[[{"header":{"parameterUnit":"m.s-1","parameterCategory":1,"la1":30.6,"la2":29.2853,"lo1":-89.7004,"lo2":-87.6739,"dy":0.0162,"dx":0.0183,"nx":112,"ny":82,"refTime":"2023-05-26T12:00:00:Z","depth":0,"parameterNumber":2,"parameterNumberName":"U-component_of_WINDS"},"data":[0.0,0.0,0.0,0.0,0.0,0.0,0.0,0.0,0.0,0.0,0.0,0.0,0.0,0.0,0.0,0.0,0.0,0.0,0.0,0.0,0.0,0.0,0.0,0.0,0.0,0.0,0.0,0.0,0.0,0.0,0.0,0.0,0.0,0.0,0.0,0.0,0.0,0.0,0.0,0.0,0.0,0.0,0.0,0.0,0.0,0.0,0.0,0.0,0.0,0.0,0.0,0.0,0.0,0.0,0.0,0.0,0.0,0.0,0.0,0.0,0.0,0.0,0.0,0.0,0.0,0.0,0.0,0.0,0.0,0.0,0.0,0.0,0.0,0.0,0.0,0.0,0.0,0.0,0.0,0.0,0.0,0.0,0.0,0.0,0.0,0.0,0.0,0.0,0.0,0.0,-1.8757,-2.1474,-2.3565,-2.4526,-2.4117,-2.3261,-2.1793,-1.9539,0.0,0.0,0.0,0.0,0.0,0.0,0.0,0.0,0.0,0.0,0.0,0.0,0.0,0.0,0.0,0.0,0.0,0.0,0.0,0.0,0.0,0.0,0.0,0.0,0.0,0.0,0.0,0.0,0.0,0.0,0.0,0.0,0.0,0.0,0.0,0.0,0.0,0.0,0.0,0.0,0.0,0.0,0.0,0.0,0.0,0.0,0.0,0.0,0.0,0.0,0.0,0.0,0.0,0.0,0.0,0.0,0.0,0.0,0.0,0.0,0.0,0.0,0.0,0.0,0.0,0.0,0.0,0.0,0.0,0.0,0.0,0.0,0.0,0.0,0.0,0.0,0.0,0.0,0.0,0.0,0.0,0.0,0.0,0.0,0.0,0.0,0.0,0.0,0.0,0.0,0.0,0.0,0.0,0.0,0.0,0.0,0.0,0.0,0.0,0.0,0.0,0.0,0.0,0.0,-2.335,-2.7078,-2.7413,-2.692,-2.5716,-2.4702,-2.3011,-2.0446,0.0,0.0,0.0,0.0,0.0,0.0,0.0,0.0,0.0,0.0,0.0,0.0,0.0,0.0,0.0,0.0,0.0,0.0,0.0,0.0,0.0,0.0,0.0,0.0,0.0,0.0,0.0,0.0,0.0,0.0,0.0,0.0,0.0,0.0,0.0,0.0,0.0,0.0,0.0,0.0,0.0,0.0,0.0,0.0,0.0,0.0,0.0,0.0,0.0,0.0,0.0,0.0,0.0,0.0,0.0,0.0,0.0,0.0,0.0,0.0,0.0,0.0,0.0,0.0,0.0,0.0,0.0,0.0,0.0,0.0,0.0,0.0,0.0,0.0,0.0,0.0,0.0,0.0,0.0,0.0,0.0,0.0,0.0,0.0,0.0,0.0,0.0,0.0,0.0,0.0,0.0,0.0,0.0,0.0,0.0,0.0,0.0,0.0,0.0,0.0,0.0,0.0,0.0,-2.3977,-2.6712,-2.8494,-2.9472,-2.9144,-2.7128,-2.6325,-2.4828,-2.2093,-2.095,0.0,0.0,0.0,0.0,0.0,0.0,0.0,0.0,0.0,0.0,0.0,0.0,0.0,0.0,0.0,0.0,0.0,0.0,0.0,0.0,0.0,0.0,0.0,0.0,0.0,0.0,0.0,0.0,0.0,0.0,0.0,0.0,0.0,0.0,0.0,0.0,0.0,0.0,0.0,0.0,0.0,0.0,0.0,0.0,0.0,0.0,0.0,0.0,0.0,0.0,0.0,0.0,0.0,0.0,0.0,0.0,0.0,0.0,0.0,0.0,0.0,0.0,0.0,0.0,0.0,0.0,0.0,0.0,0.0,0.0,0.0,0.0,0.0,0.0,0.0,0.0,0.0,0.0,0.0,0.0,0.0,0.0,0.0,0.0,0.0,0.0,0.0,0.0,0.0,0.0,0.0,0.0,0.0,0.0,0.0,0.0,0.0,0.0,0.0,0.0,0.0,0.0,-2.7301,-2.9042,-2.9341,-3.0781,-3.0805,-2.8533,-2.798,-2.6609,-2.3896,-2.292,0.0,0.0,0.0,0.0,0.0,0.0,0.0,0.0,0.0,0.0,0.0,0.0,0.0,0.0,0.0,0.0,0.0,0.0,0.0,0.0,0.0,0.0,0.0,0.0,0.0,0.0,0.0,0.0,0.0,0.0,0.0,0.0,0.0,0.0,0.0,0.0,0.0,0.0,0.0,0.0,0.0,0.0,0.0,0.0,0.0,0.0,0.0,0.0,0.0,0.0,0.0,0.0,0.0,0.0,0.0,0.0,0.0,0.0,0.0,0.0,0.0,0.0,0.0,0.0,0.0,0.0,0.0,0.0,0.0,0.0,0.0,0.0,0.0,0.0,0.0,0.0,0.0,0.0,0.0,0.0,0.0,0.0,0.0,0.0,0.0,0.0,0.0,0.0,0.0,0.0,0.0,0.0,0.0,0.0,0.0,0.0,0.0,0.0,0.0,0.0,0.0,0.0,-2.9003,-3.0299,-3.1128,-3.1747,-3.1583,-3.0037,-2.9486,-2.7988,-2.5363,-2.4639,0.0,0.0,0.0,0.0,0.0,0.0,0.0,0.0,0.0,0.0,0.0,0.0,0.0,0.0,0.0,0.0,0.0,0.0,0.0,0.0,0.0,0.0,0.0,0.0,0.0,0.0,0.0,0.0,0.0,0.0,0.0,0.0,0.0,0.0,0.0,0.0,0.0,0.0,0.0,0.0,0.0,0.0,0.0,0.0,0.0,0.0,0.0,0.0,0.0,0.0,0.0,0.0,0.0,0.0,0.0,0.0,0.0,0.0,0.0,0.0,0.0,0.0,0.0,0.0,0.0,0.0,0.0,0.0,0.0,0.0,0.0,0.0,0.0,0.0,0.0,0.0,0.0,0.0,0.0,0.0,0.0,0.0,0.0,0.0,0.0,0.0,0.0,0.0,0.0,0.0,0.0,0.0,0.0,0.0,0.0,0.0,0.0,0.0,0.0,0.0,0.0,0.0,-2.9995,-3.1305,0.0,-3.2452,-3.2319,-3.0705,-2.9785,-2.8626,-2.6925,0.0,0.0,0.0,0.0,0.0,0.0,0.0,0.0,0.0,0.0,0.0,0.0,0.0,0.0,0.0,0.0,0.0,0.0,0.0,0.0,0.0,0.0,0.0,0.0,0.0,0.0,0.0,0.0,0.0,0.0,0.0,0.0,0.0,0.0,0.0,0.0,0.0,0.0,0.0,0.0,0.0,0.0,0.0,0.0,0.0,0.0,0.0,0.0,0.0,0.0,0.0,0.0,0.0,0.0,0.0,0.0,0.0,0.0,0.0,0.0,0.0,0.0,0.0,0.0,0.0,0.0,0.0,0.0,0.0,0.0,0.0,0.0,0.0,0.0,0.0,0.0,0.0,0.0,0.0,0.0,0.0,0.0,0.0,0.0,0.0,0.0,0.0,0.0,0.0,0.0,0.0,0.0,0.0,0.0,0.0,0.0,0.0,0.0,0.0,0.0,0.0,0.0,-2.8805,-3.0842,-3.2059,0.0,-3.281,-3.281,-3.0934,-3.0091,-2.9132,-2.7883,0.0,0.0,0.0,0.0,0.0,0.0,0.0,0.0,0.0,0.0,0.0,0.0,0.0,0.0,0.0,0.0,0.0,0.0,0.0,0.0,0.0,0.0,0.0,0.0,0.0,0.0,0.0,0.0,0.0,0.0,0.0,0.0,0.0,0.0,0.0,0.0,0.0,0.0,0.0,0.0,0.0,0.0,0.0,0.0,0.0,0.0,0.0,0.0,0.0,0.0,0.0,0.0,0.0,0.0,0.0,0.0,0.0,0.0,0.0,0.0,0.0,0.0,0.0,0.0,0.0,0.0,0.0,0.0,0.0,0.0,0.0,0.0,0.0,0.0,0.0,0.0,0.0,0.0,0.0,0.0,0.0,0.0,0.0,0.0,0.0,0.0,0.0,0.0,0.0,0.0,0.0,0.0,0.0,0.0,0.0,0.0,0.0,0.0,0.0,0.0,0.0,0.0,-2.9861,-3.1664,-3.2489,-3.1823,-3.279,-3.273,-3.0775,-3.0608,-2.9804,0.0,0.0,0.0,0.0,0.0,0.0,0.0,0.0,0.0,0.0,0.0,0.0,0.0,0.0,0.0,0.0,0.0,0.0,0.0,0.0,0.0,0.0,0.0,0.0,0.0,0.0,0.0,0.0,0.0,0.0,0.0,0.0,0.0,0.0,0.0,0.0,0.0,0.0,0.0,0.0,0.0,0.0,0.0,0.0,0.0,0.0,0.0,0.0,0.0,0.0,0.0,0.0,0.0,0.0,0.0,0.0,0.0,0.0,0.0,0.0,0.0,0.0,0.0,0.0,0.0,0.0,0.0,0.0,0.0,0.0,0.0,0.0,0.0,0.0,0.0,0.0,0.0,0.0,0.0,0.0,0.0,0.0,0.0,0.0,0.0,0.0,0.0,0.0,0.0,0.0,0.0,0.0,0.0,0.0,0.0,0.0,0.0,0.0,0.0,0.0,0.0,0.0,0.0,-3.0737,-3.301,-3.4327,-3.3895,-3.3829,-3.3272,-3.1926,-3.07,-2.9639,-2.8661,0.0,0.0,0.0,0.0,0.0,0.0,0.0,0.0,0.0,0.0,0.0,0.0,0.0,0.0,0.0,0.0,0.0,0.0,0.0,0.0,0.0,0.0,0.0,0.0,0.0,0.0,0.0,0.0,0.0,0.0,0.0,0.0,0.0,0.0,0.0,0.0,0.0,0.0,0.0,0.0,0.0,0.0,0.0,0.0,0.0,0.0,0.0,0.0,0.0,0.0,0.0,0.0,0.0,0.0,0.0,0.0,0.0,0.0,0.0,0.0,0.0,0.0,0.0,0.0,0.0,0.0,0.0,0.0,0.0,0.0,0.0,0.0,0.0,0.0,0.0,0.0,0.0,0.0,0.0,0.0,0.0,0.0,0.0,0.0,0.0,0.0,0.0,0.0,0.0,0.0,0.0,0.0,0.0,0.0,0.0,0.0,0.0,0.0,0.0,0.0,0.0,0.0,-3.1387,-3.3561,-3.4836,-3.4279,-3.3947,-3.3179,-3.1836,-3.0548,-2.9453,-2.8649,0.0,0.0,0.0,0.0,0.0,0.0,0.0,0.0,0.0,0.0,0.0,0.0,0.0,0.0,0.0,0.0,0.0,0.0,0.0,0.0,0.0,0.0,0.0,0.0,0.0,0.0,0.0,0.0,0.0,0.0,0.0,0.0,0.0,0.0,0.0,0.0,0.0,0.0,0.0,0.0,0.0,0.0,0.0,0.0,0.0,0.0,0.0,0.0,0.0,0.0,0.0,0.0,0.0,0.0,0.0,0.0,0.0,0.0,0.0,0.0,0.0,0.0,0.0,0.0,0.0,0.0,0.0,0.0,0.0,0.0,0.0,0.0,0.0,0.0,0.0,0.0,0.0,0.0,0.0,0.0,0.0,0.0,0.0,0.0,0.0,0.0,0.0,0.0,0.0,0.0,0.0,0.0,0.0,0.0,0.0,0.0,0.0,0.0,0.0,0.0,0.0,0.0,-3.1931,-3.3665,-3.4511,-3.3801,-3.3517,-3.2711,-3.1158,-3.0279,-2.9327,-2.8247,0.0,0.0,0.0,0.0,0.0,0.0,0.0,0.0,0.0,0.0,0.0,0.0,0.0,0.0,0.0,0.0,0.0,0.0,0.0,0.0,0.0,0.0,0.0,0.0,0.0,0.0,0.0,0.0,0.0,0.0,0.0,0.0,0.0,0.0,0.0,0.0,0.0,0.0,0.0,0.0,0.0,0.0,0.0,0.0,0.0,0.0,0.0,0.0,0.0,0.0,0.0,0.0,0.0,0.0,0.0,0.0,0.0,0.0,0.0,0.0,-3.9714,0.0,0.0,0.0,0.0,0.0,0.0,0.0,0.0,0.0,0.0,0.0,0.0,0.0,0.0,0.0,0.0,0.0,0.0,0.0,0.0,0.0,0.0,0.0,0.0,0.0,0.0,0.0,0.0,0.0,0.0,0.0,0.0,0.0,0.0,0.0,0.0,0.0,0.0,0.0,0.0,0.0,-3.2832,-3.4496,-3.5629,-3.5633,-3.4199,-3.2932,-3.2087,-3.0633,-2.949,-2.88,-2.8188,0.0,0.0,0.0,0.0,0.0,0.0,0.0,0.0,0.0,0.0,0.0,0.0,0.0,0.0,0.0,0.0,0.0,0.0,0.0,0.0,0.0,0.0,0.0,0.0,0.0,0.0,0.0,0.0,0.0,0.0,0.0,0.0,0.0,0.0,0.0,0.0,0.0,0.0,0.0,0.0,0.0,0.0,0.0,0.0,0.0,0.0,0.0,0.0,0.0,0.0,0.0,0.0,0.0,0.0,0.0,0.0,0.0,0.0,0.0,0.0,-3.9686,0.0,0.0,0.0,0.0,0.0,0.0,0.0,0.0,0.0,0.0,0.0,0.0,0.0,0.0,0.0,0.0,0.0,0.0,0.0,0.0,0.0,0.0,0.0,0.0,0.0,0.0,0.0,0.0,0.0,0.0,0.0,0.0,0.0,0.0,0.0,0.0,0.0,0.0,0.0,0.0,-3.3275,-3.4756,-3.5652,-3.557,-3.4044,-3.275,-3.2218,-3.0709,-2.9541,-2.8963,-2.8662,0.0,0.0,0.0,0.0,0.0,0.0,0.0,0.0,0.0,0.0,0.0,0.0,0.0,0.0,0.0,0.0,0.0,0.0,0.0,0.0,0.0,0.0,0.0,0.0,0.0,0.0,0.0,0.0,0.0,0.0,0.0,0.0,0.0,0.0,0.0,0.0,0.0,0.0,0.0,0.0,0.0,0.0,0.0,0.0,0.0,0.0,0.0,0.0,0.0,0.0,0.0,0.0,0.0,-4.3214,-4.3526,-4.3116,-4.3975,-4.3819,-4.2819,-4.1678,-4.0988,-4.0612,-3.987,0.0,0.0,0.0,0.0,0.0,0.0,0.0,0.0,0.0,0.0,0.0,0.0,0.0,0.0,0.0,0.0,0.0,0.0,0.0,0.0,0.0,0.0,0.0,0.0,-3.1185,-3.0667,-2.8721,0.0,0.0,0.0,0.0,0.0,0.0,0.0,0.0,0.0,0.0,0.0,-3.3526,-3.4678,-3.5294,-3.4935,-3.3478,-3.2407,-3.2146,-3.0722,-2.9591,-2.9114,-2.8988,-2.8213,0.0,0.0,0.0,0.0,0.0,0.0,0.0,0.0,0.0,0.0,0.0,0.0,0.0,0.0,0.0,0.0,0.0,0.0,0.0,0.0,0.0,0.0,0.0,0.0,0.0,0.0,0.0,0.0,0.0,0.0,0.0,0.0,-3.7137,-3.7831,0.0,0.0,0.0,0.0,0.0,0.0,0.0,0.0,0.0,0.0,0.0,0.0,0.0,-4.1788,-4.2171,-4.3377,-4.4089,-4.4193,-4.5338,-4.5455,-4.4599,-4.5025,-4.4936,-4.4398,-4.4147,0.0,-4.1923,-4.0696,0.0,0.0,0.0,0.0,0.0,0.0,0.0,0.0,0.0,0.0,0.0,0.0,0.0,0.0,0.0,0.0,0.0,0.0,0.0,0.0,0.0,0.0,-3.1942,-3.1942,-3.1942,-3.1709,0.0,-3.0306,-2.9874,-2.9158,-2.8734,0.0,0.0,0.0,0.0,0.0,0.0,0.0,-3.4059,-3.4738,-3.5082,-3.4765,-3.3283,-3.2249,-3.2074,-3.0722,-2.9767,-2.9679,-2.9202,-2.8787,-2.8562,-2.66,0.0,0.0,0.0,0.0,0.0,0.0,0.0,0.0,0.0,0.0,0.0,0.0,0.0,0.0,0.0,0.0,0.0,0.0,0.0,0.0,0.0,0.0,0.0,0.0,0.0,0.0,0.0,0.0,0.0,-3.8258,-3.9037,-3.8815,-3.9478,-3.9887,0.0,0.0,0.0,0.0,0.0,0.0,0.0,0.0,0.0,-4.3184,-4.3114,-4.364,-4.4689,-4.5374,-4.587,-4.621,-4.8144,-4.8326,-4.6951,-4.7748,-4.7237,-4.5706,-4.5348,-4.4587,-4.3487,-4.2001,-4.0976,-4.0183,0.0,0.0,0.0,0.0,-3.6368,-3.5608,-3.5529,-3.5204,-3.4662,-3.4177,0.0,0.0,0.0,0.0,0.0,0.0,0.0,0.0,0.0,0.0,-3.272,-3.272,-3.272,-3.2648,-3.2318,-3.2041,-3.1544,0.0,-3.0401,-3.0387,-3.0093,0.0,0.0,0.0,0.0,-3.394,-3.4159,-3.4296,-3.4303,-3.4031,-3.2635,-3.1609,-3.1402,-3.0432,-2.9792,-2.9792,-2.9553,-2.9264,-2.8938,-2.7593,-2.637,0.0,0.0,0.0,0.0,0.0,0.0,0.0,0.0,0.0,0.0,0.0,0.0,0.0,0.0,0.0,0.0,0.0,0.0,0.0,0.0,0.0,0.0,0.0,0.0,0.0,0.0,0.0,0.0,-4.008,-4.0658,-3.9707,-4.0865,-4.1612,0.0,0.0,0.0,0.0,0.0,0.0,-4.2849,-4.4009,-4.4993,-4.5605,-4.5223,-4.564,-4.698,-4.7453,-4.7837,-4.819,-5.0507,-5.0624,-4.8907,-4.9899,-4.8941,-4.655,-4.617,-4.5449,-4.4485,-4.3132,-4.2004,-4.0967,-3.9889,-3.8907,-3.8094,-3.7583,-3.6982,-3.643,-3.6258,-3.6085,-3.5894,-3.5139,-3.4876,-3.4677,-3.3988,0.0,0.0,0.0,0.0,-3.3796,-3.3796,-3.3644,-3.3492,-3.3492,-3.3492,-3.3422,-3.3213,-3.3353,-3.3142,0.0,-3.1938,-3.1985,-3.1344,0.0,0.0,0.0,0.0,-3.4327,-3.4362,-3.4199,-3.3934,-3.3506,-3.2205,-3.1254,-3.097,-3.0203,-2.9792,-2.9792,-2.9792,-2.9603,-2.9164,-2.8427,-2.7377,-2.6217,0.0,0.0,0.0,0.0,0.0,0.0,0.0,0.0,0.0,0.0,0.0,0.0,0.0,0.0,0.0,0.0,0.0,0.0,0.0,0.0,0.0,0.0,0.0,0.0,0.0,0.0,0.0,0.0,0.0,-4.0858,-4.2192,0.0,0.0,0.0,0.0,-4.3867,-4.4589,-4.5012,-4.5105,-4.5912,-4.6401,-4.6436,-4.7077,-4.7695,-4.8289,-4.9627,-5.0281,-5.0267,-5.1748,-5.1533,-4.9827,-5.0407,-4.9257,-4.6777,-4.6735,-4.5923,-4.4519,-4.369,-4.328,-4.304,-4.1055,-4.0216,-3.9952,-3.8094,-3.7266,-3.6951,-3.6368,-3.6085,-3.5973,-3.5688,-3.5589,-3.5439,-3.5424,-3.5359,0.0,0.0,-3.5344,-3.5359,-3.5359,-3.4839,-3.423,-3.423,-3.423,-3.4041,-3.3353,-3.3768,-3.4027,0.0,-3.2721,-3.2599,-3.3128,0.0,-3.2947,-3.4152,-3.4442,-3.4569,-3.4802,-3.4839,-3.4438,-3.3367,-3.2506,-3.1709,-3.097,-3.0203,-2.9792,-2.9792,-2.9792,-2.9779,-2.9754,-2.8912,-2.8252,-2.771,-2.5542,0.0,0.0,0.0,0.0,0.0,0.0,0.0,0.0,0.0,0.0,0.0,0.0,0.0,0.0,0.0,0.0,0.0,0.0,0.0,0.0,0.0,0.0,0.0,0.0,0.0,0.0,0.0,0.0,-4.2959,-4.4836,0.0,-4.5534,-4.5435,-4.5564,-4.5952,-4.6746,-4.7237,-4.7155,-4.8217,-4.9315,-5.034,-5.0096,-5.0584,-5.1788,-5.2804,-5.3075,-5.254,-5.4538,-5.4395,-5.2353,-5.266,-5.1246,-4.8563,-4.7692,-4.6561,-4.5246,-4.4485,-4.3876,-4.3213,-4.155,-4.0625,-4.0111,-3.8553,-3.7679,-3.7222,-3.6585,-3.6352,-3.6289,-3.5973,-3.5733,-3.5504,-3.5504,-3.5504,-3.5504,-3.5504,-3.5504,-3.5504,-3.5504,-3.5279,-3.5052,-3.5052,-3.5052,-3.4986,-3.4721,-3.492,-3.4868,-3.4149,-3.3796,-3.3584,-3.3461,-3.3665,-3.3639,-3.3244,-3.3389,-3.3416,-3.3108,-3.2383,-3.1625,-3.0807,-3.0296,-2.9928,-2.9642,-2.9719,-2.9792,-2.9792,-2.9453,-2.9239,-2.9239,-2.8574,-2.7887,-2.714,-2.587,-2.4614,0.0,0.0,0.0,0.0,0.0,0.0,0.0,0.0,0.0,0.0,0.0,0.0,0.0,0.0,0.0,0.0,0.0,0.0,0.0,0.0,0.0,0.0,0.0,0.0,0.0,0.0,-4.5515,-4.4811,-4.714,-4.8672,-4.8209,-4.8304,-4.8514,-4.8902,-4.9721,-5.0124,-5.006,-5.1112,-5.2208,-5.3277,-5.2788,-5.3023,-5.4092,-5.4363,-5.4237,-5.3729,-5.4997,-5.4683,-5.2972,-5.2921,-5.16,-4.929,-4.82,-4.709,-4.6007,-4.5263,-4.4654,-4.4045,-4.254,-4.1718,-4.1171,-3.9555,-3.8594,-3.7955,-3.6862,-3.6429,-3.6289,-3.61,-3.5797,-3.5504,-3.5504,-3.5504,-3.5504,-3.5504,-3.5504,-3.5504,-3.5504,-3.5504,-3.5504,-3.5504,-3.5504,-3.5504,-3.5504,-3.5504,-3.537,-3.4906,-3.4564,-3.4212,-3.3617,-3.3858,-3.3844,-3.2976,-3.3032,-3.2989,-3.2454,-3.1519,-3.0651,-3.0037,-2.9572,-2.9301,-2.9202,-2.9566,-2.9704,-2.9515,-2.9139,-2.885,-2.8662,-2.8298,-2.7791,-2.7249,-2.5906,-2.443,-2.3068,0.0,0.0,0.0,0.0,0.0,0.0,0.0,0.0,0.0,0.0,0.0,0.0,0.0,0.0,0.0,0.0,0.0,0.0,0.0,0.0,0.0,0.0,0.0,-4.3453,-4.5144,-4.6398,-4.6308,-4.9064,-5.0887,-5.0672,-5.1344,-5.2054,-5.2708,-5.3388,-5.3729,-5.3748,-5.449,-5.4907,-5.4943,-5.4943,-5.4925,-5.4907,-5.4146,-5.3766,-5.3729,-5.2951,-5.2282,-5.1672,-5.1087,-5.0076,-4.8803,-4.8167,-4.7539,-4.6769,-4.5991,-4.5686,-4.5551,-4.4012,-4.342,-4.3179,-4.1067,-3.9949,-3.9092,-3.7186,-3.6304,-3.6037,-3.6037,-3.5797,-3.5504,-3.5504,-3.5504,-3.5504,-3.5504,-3.5504,-3.5504,-3.5504,-3.5504,-3.5504,-3.5504,-3.5504,-3.5504,-3.5504,-3.5504,-3.5489,-3.5474,-3.4936,-3.4262,-3.3604,-3.3484,-3.3455,-3.344,-3.3425,0.0,-3.3102,-3.2382,-3.1768,-3.1349,-3.0538,-2.9938,-2.9793,-2.9767,-2.9528,-2.8963,-2.89,-2.8637,-2.8109,-2.8059,-2.8059,-2.7999,-2.56,-2.3486,-2.1818,0.0,0.0,0.0,0.0,0.0,0.0,0.0,0.0,0.0,0.0,0.0,0.0,0.0,0.0,0.0,0.0,0.0,0.0,0.0,0.0,0.0,0.0,-4.6322,-4.6057,-4.8068,-4.9935,-5.1,-5.2977,-5.4145,-5.3781,-5.4145,-5.4371,-5.4284,-5.4495,-5.4622,-5.4562,-5.478,-5.516,-5.5667,-5.5703,-5.5432,-5.4907,-5.5214,-5.5088,-5.4581,-5.4345,-5.4122,-5.3989,-5.323,-5.191,-5.013,-4.8868,-4.8075,-4.7462,-4.5635,-4.5213,-4.5551,-4.4012,-4.342,-4.3192,-4.1649,-4.0091,-3.8619,-3.7534,-3.6693,-3.6148,-3.6148,-3.5894,-3.5638,-3.5638,-3.5604,-3.5504,-3.5504,-3.5504,-3.5504,-3.5504,-3.5504,-3.5504,-3.5504,-3.5504,-3.5504,-3.5504,-3.5504,-3.5355,-3.4861,-3.4607,-3.4262,-3.3604,-3.3095,-3.2617,-3.2138,-3.1945,0.0,-3.0324,-2.9911,-2.9383,-2.8498,-2.8579,-2.8771,-2.9114,-2.9164,-2.9101,-2.8938,-2.8185,-2.767,-2.7519,-2.713,-2.681,-2.6615,-2.5577,-2.4388,0.0,0.0,0.0,0.0,0.0,0.0,0.0,0.0,0.0,0.0,0.0,0.0,0.0,0.0,0.0,0.0,0.0,0.0,0.0,0.0,0.0,0.0,-4.6838,-4.8471,-4.9517,-5.0912,-5.2247,-5.3451,-5.5027,-5.5953,-5.5751,-5.6108,-5.6262,-5.6109,-5.6025,-5.5977,-5.5964,-5.5915,-5.5903,-5.5993,-5.6319,-5.5993,-5.4907,-5.5323,-5.5142,-5.4399,-5.4055,-5.3892,-5.3874,-5.3129,-5.1869,-5.0188,-4.9431,-4.8459,-4.7344,-4.6041,-4.5585,0.0,0.0,0.0,0.0,0.0,-4.0573,-3.877,-3.809,-3.7155,-3.6196,-3.6148,-3.5958,-3.5688,-3.5638,-3.5554,-3.5504,-3.5504,-3.5504,-3.5504,-3.5504,-3.5504,-3.5504,-3.5504,-3.5504,-3.5504,-3.5504,-3.5504,-3.5385,-3.4981,-3.4666,0.0,-3.3978,-3.3365,-3.2796,-3.2422,-3.2288,-3.1661,-3.01,-2.9581,-2.8984,-2.8228,-2.8113,-2.8335,-2.8875,-2.8925,0.0,0.0,0.0,-2.718,-2.6942,-2.6697,0.0,0.0,0.0,-2.497,-2.3678,0.0,0.0,0.0,-2.2333,-2.2254,0.0,0.0,0.0,0.0,0.0,0.0,0.0,0.0,0.0,0.0,0.0,0.0,0.0,0.0,0.0,0.0,-4.8196,-5.0655,-5.3133,-5.3647,-5.4014,-5.473,-5.598,-5.6795,-5.6887,-5.7342,-5.7697,-5.7745,-5.7534,-5.7437,-5.7388,0.0,0.0,0.0,0.0,-5.6228,-5.478,-5.4762,-5.4399,-5.3693,-5.2878,-5.2552,-5.2625,-5.1897,-5.0883,-4.9592,-4.9677,-4.8603,-4.6786,-4.6701,-4.6244,-4.5517,-4.484,-4.4587,-4.4412,-4.3079,-4.1272,-3.9418,-3.8806,0.0,0.0,-3.61,-3.5894,-3.5752,-3.5619,-3.5569,-3.5504,-3.5504,-3.5504,-3.5504,-3.5504,-3.5504,-3.5504,-3.5504,-3.5504,-3.5504,-3.5504,-3.5504,-3.5504,-3.5504,-3.5011,-3.4592,-3.4592,-3.3978,-3.3499,-3.3499,-3.3438,-3.2847,-3.1248,-3.0339,-2.9711,-2.9236,0.0,0.0,-2.88,-2.8837,-2.8398,-2.7344,-2.7218,-2.6967,-2.6546,-2.6533,-2.6201,-2.5538,-2.5949,-2.5436,-2.3984,-2.4682,-2.422,-2.2642,-2.2564,-2.2418,0.0,0.0,0.0,0.0,0.0,0.0,0.0,0.0,0.0,0.0,0.0,0.0,0.0,0.0,0.0,-4.748,-4.9903,-5.2344,-5.4785,-5.6253,-5.7134,-5.7281,-5.7574,-5.7712,-5.7619,-5.7812,-5.7792,-5.7504,-5.7649,-5.7649,-5.7388,-5.677,-5.6303,-5.614,-5.5668,-5.493,-5.3947,-5.3987,-5.3914,-5.3693,0.0,0.0,-5.3422,-5.2007,-5.073,-4.9591,-4.8943,-4.7966,-4.6735,-4.616,-4.5483,-4.479,-4.4637,-4.4587,-4.4485,-4.358,-4.2003,-4.0183,-3.9499,-3.803,-3.6414,-3.6429,-3.6289,-3.6085,-3.591,-3.5782,0.0,-3.5554,-3.5504,-3.5504,-3.5504,-3.5504,-3.5504,-3.5504,-3.5504,-3.5504,-3.5504,-3.5504,-3.5504,-3.5504,-3.54,-3.531,-3.531,-3.4292,-3.3499,-3.3499,-3.2974,-3.2017,-3.0437,-2.9599,-2.8728,-2.7831,-2.7905,-2.8147,-2.826,-2.826,-2.7984,-2.7318,-2.6866,-2.6647,-2.6533,-2.6533,-2.6596,-2.6893,-2.6569,-2.6171,-2.5642,-2.5373,-2.4716,-2.3756,-2.3196,-2.2541,0.0,0.0,0.0,0.0,0.0,0.0,0.0,0.0,0.0,0.0,0.0,-4.2559,0.0,0.0,-4.704,-4.8673,-5.1334,-5.3823,-5.566,-5.7085,-5.7997,-5.7997,-5.7997,-5.7997,-5.7904,-5.795,-5.7904,-5.7697,-5.7745,-5.7697,-5.7486,-5.6739,-5.6055,-5.5607,-5.5254,-5.449,-5.3152,-5.3562,-5.358,-5.3096,-5.2679,-5.2498,-5.248,-5.1748,-5.0535,-4.8977,-4.8749,-4.7713,-4.6194,-4.5449,-4.4925,-4.4587,-4.4587,-4.4587,-4.4536,-4.4147,-4.2724,-4.0945,-4.0588,-3.8959,-3.6999,-3.6858,-3.6549,-3.6148,-3.6037,-3.5831,-3.5688,-3.5589,-3.5554,-3.5504,-3.5504,-3.5504,-3.5504,-3.5504,-3.5504,-3.5504,-3.5504,-3.5504,-3.5504,-3.5504,-3.5504,-3.5504,-3.5504,-3.4951,-3.4502,-3.4502,-3.3868,-3.2694,-3.0862,-2.9902,-2.8868,-2.7601,-2.7603,-2.7695,-2.7695,-2.7444,-2.7168,-2.6892,-2.6615,-2.6533,-2.6533,-2.6533,-2.6659,-2.6866,-2.7143,-2.7036,-2.6466,-2.6858,-2.6478,-2.5332,-2.5079,-2.4503,0.0,0.0,0.0,0.0,0.0,0.0,0.0,-3.8268,-3.9204,-4.126,-4.2515,-4.3579,-4.4711,-4.6783,-4.8636,-4.9664,-5.227,-5.462,-5.5899,-5.6965,-5.7692,-5.7857,-5.7932,-5.7997,-5.7997,-5.7997,-5.7997,-5.795,-5.7904,-5.7719,-5.743,-5.6664,-5.5814,-5.4854,-5.4829,-5.4118,-5.2654,-5.3145,-5.3045,-5.2309,-5.2145,-5.1729,-5.1067,-5.1084,-5.0012,-4.8153,-4.8055,-4.7096,-4.5652,-4.4891,-4.4587,-4.4587,-4.4587,-4.4587,-4.4587,-4.4587,-4.3273,-4.1496,-4.1367,-3.9658,-3.7477,-3.7131,-3.6718,-3.6211,-3.6085,-3.5894,-3.5752,-3.5688,-3.5589,-3.5504,-3.5504,-3.5504,-3.5504,-3.5504,-3.5504,-3.5504,-3.5504,-3.5504,-3.5474,-3.5325,-3.531,-3.5265,-3.513,-3.522,-3.5355,-3.5489,-3.4589,-3.3303,-3.1419,-3.0174,-2.8956,-2.7627,-2.7442,-2.7352,-2.7281,-2.6779,-2.6533,-2.6533,-2.6533,-2.6533,-2.6533,-2.6533,-2.6584,-2.6615,-2.7394,-2.7518,-2.693,-2.7965,-2.7753,-2.6511,-2.6593,-2.6273,-3.3665,-3.4219,-3.5131,-3.7216,-3.7381,-3.7695,0.0,-4.0697,-4.1199,-4.3325,-4.4162,-4.4765,-4.5608,-4.715,-4.882,-5.0417,-5.2179,-5.3867,-5.5459,-5.6053,-5.6611,-5.7353,-5.7788,-5.7997,-5.7997,-5.7997,-5.795,-5.7839,-5.7904,-5.7592,-5.6739,-5.5935,-5.5131,-5.4326,-5.3595,-5.3094,-5.2761,-5.2291,-5.1876,-5.1583,-5.082,-5.0359,-5.0198,-4.9539,-4.8547,-4.7329,-4.574,-4.5286,-4.5652,-4.4891,-4.4587,-4.4587,-4.4587,-4.4587,-4.4587,-4.4587,-4.3273,-4.1432,-4.0799,-3.9245,-3.74,-3.6799,-3.6553,-3.6414,-3.6211,-3.6085,-3.591,-3.5752,-3.5589,-3.5504,-3.5504,-3.5504,-3.5504,-3.5504,-3.5504,-3.5504,-3.5504,-3.5504,-3.5325,-3.4711,-3.4592,-3.4397,-3.3829,-3.4203,-3.4801,-3.5415,-3.3877,-3.2281,-3.1296,-2.9496,-2.7993,-2.7165,-2.7367,-2.7506,-2.7281,-2.6779,-2.6533,-2.6533,-2.6533,-2.6533,-2.6533,-2.6533,-2.6691,-2.718,-2.6829,-2.6879,-2.7214,-2.6942,-2.6671,-2.6519,-2.58,-2.5609,-3.4219,-3.497,-3.5852,-3.7123,-3.7655,-3.8442,-4.0812,-4.1202,-4.1747,-4.427,-4.513,-4.5645,-4.6452,-4.8343,-5.0055,0.0,-5.2819,-5.4608,-5.5715,-5.6201,-5.6668,-5.7261,-5.7266,-5.7546,-5.8277,-5.7668,-5.7233,-5.7217,-5.7026,-5.6602,-5.5926,-5.4763,-5.3921,-5.3529,-5.2328,-5.1669,-5.1505,-5.1219,-5.097,-5.0755,-5.0373,-4.9905,-4.9401,-4.8851,-4.7814,-4.633,-4.5575,-4.5162,-4.5026,-4.4705,-4.4587,-4.4587,-4.4587,-4.4587,-4.4587,-4.4587,-4.3788,-4.2643,-4.2348,-4.0659,-3.8623,-3.8341,-3.7468,-3.6492,-3.6414,-3.6226,-3.5973,-3.5894,-3.5668,-3.5504,-3.5504,-3.5504,-3.5504,-3.5504,-3.5504,-3.5504,-3.5504,-3.5504,-3.5295,-3.4607,-3.4472,-3.4382,-3.4113,-3.3962,-3.4089,-3.4736,-3.3704,-3.2471,-3.1364,-2.9993,-2.8699,-2.767,-2.7564,-2.7424,-2.6968,-2.6659,-2.6533,-2.6533,-2.6533,-2.6533,-2.6533,-2.6533,-2.6634,-2.6804,-2.6892,-2.7055,-2.7281,-2.7369,-2.7419,-2.7419,-2.712,-2.698,-3.4814,-3.5546,-3.6333,-3.7609,-3.8429,-3.9502,-4.1664,-4.221,-4.2829,-4.4738,-4.5552,-4.6159,-4.6966,-4.8823,-5.0488,-5.1176,-5.3014,-5.465,-5.5492,-5.5734,-5.6097,-5.6898,-5.6393,-5.656,-5.807,-5.7286,-5.6743,-5.6755,-5.6366,-5.5747,-5.4981,-5.3812,-5.2962,-5.2419,-5.1367,-5.0743,-5.0643,-5.0424,-5.0213,-4.9925,-4.9707,-4.9222,-4.8544,-4.8032,-4.7021,-4.5781,-4.5552,-4.5077,-4.4587,-4.4587,-4.4587,-4.4587,-4.4587,-4.4587,-4.4587,-4.4587,-4.4105,-4.3479,-4.328,-4.1852,-3.9973,-3.9406,-3.8262,-3.6925,-3.6384,-3.6151,-3.5961,-3.5596,-3.551,-3.5464,-3.504,-3.522,-3.5459,-3.5265,-3.522,-3.5265,-3.5459,-3.522,-3.4801,-3.4307,-3.4203,-3.4143,-3.3963,-3.3633,-3.3492,-3.371,-3.324,-3.2512,-3.1344,-3.0302,-2.9274,-2.8305,-2.7864,-2.7456,-2.698,-2.6678,-2.6533,-2.6533,-2.6533,-2.6533,-2.6533,-2.6533,-2.6533,-2.6533,-2.6854,-2.7055,-2.7055,-2.7457,-2.7657,-2.7657,-2.7657,-2.7733,-3.5525,-3.579,-3.6539,-3.9469,-4.0219,-4.0898,-4.3426,-4.4621,-4.5083,-4.4766,-4.5369,-4.6159,-4.6966,-4.8051,-4.9394,-5.1008,-5.2295,-5.3361,-5.4221,-5.3931,-5.4227,-5.5936,-5.4988,-5.4996,0.0,-5.6949,-5.672,-5.6703,-5.633,-5.5389,-5.383,-5.3396,-5.2491,-5.093,-5.082,-5.0802,-5.0802,-5.0013,-4.949,-4.9232,-4.8448,-4.7943,-4.7693,-4.6666,-4.6168,-4.6035,-4.5049,-4.4604,-4.4587,-4.4587,-4.4587,-4.4587,-4.4587,-4.4587,-4.4587,-4.4587,-4.4105,-4.3413,-4.2759,-4.2068,-4.1148,-3.9176,-3.8489,-3.8083,-3.6135,-3.583,-3.5873,-3.4471,-3.4832,-3.5337,-3.3935,-3.4532,-3.534,-3.4666,-3.4502,-3.4696,-3.5355,-3.4472,-3.3544,-3.3529,-3.3529,-3.332,-3.2677,-3.3044,-3.3134,-3.2396,-3.2205,-3.1942,-3.1273,-3.0113,-2.9216,-2.9009,-2.8318,-2.7831,-2.7583,-2.6892,-2.6533,-2.6533,-2.6533,-2.6533,-2.6533,-2.6533,-2.6533,-2.6533,-2.6546,-2.6546,-2.6546,-2.6571,-2.6584,-2.6584,-2.6584,-2.6804,-3.5464,-3.6219,-3.7035,-3.8656,-4.0053,-4.1648,-4.3913,-4.4457,-4.4828,-4.6067,-4.5241,-4.4544,-4.5369,-4.6886,-4.8453,-4.98,-5.1908,-5.3789,-5.4886,-5.4865,-5.4958,-5.5576,-5.5255,0.0,0.0,0.0,0.0,-5.5892,-5.4811,-5.3861,-5.3283,-5.1711,-5.0628,-5.0287,-4.9562,-4.915,-4.915,-4.8875,-4.8669,-4.855,-4.8134,-4.7723,-4.7258,-4.6454,-4.5918,-4.5511,-4.4852,-4.4587,-4.4587,-4.4587,-4.4587,-4.4587,-4.4587,-4.4587,-4.4587,-4.4587,-4.444,-4.4135,-4.3362,-4.1806,-3.9994,-3.9333,-3.7916,-3.6443,-3.6199,-3.5539,-3.4866,-3.4805,-3.4561,-3.4271,-3.3773,-3.3875,-3.4113,-3.3888,-3.3829,-3.3888,-3.4113,-3.4158,-3.4023,-3.3589,-3.3844,-3.4068,-3.3858,-3.3588,-3.313,-3.2289,-3.1688,-3.1328,-3.1056,-3.0664,-3.0111,-2.9282,-2.8879,-2.8228,-2.7288,-2.684,-2.6589,-2.6533,-2.6533,-2.6533,-2.6533,-2.6533,-2.6533,-2.6533,-2.6533,-2.6533,-2.6533,-2.6533,-2.6533,-2.6533,-2.6533,-2.6634,-3.5963,-3.6932,-3.7916,-3.9434,-4.0762,-4.2207,-4.4196,-4.446,-4.4527,-4.5224,-4.4158,-4.3256,-4.3889,-4.5366,-4.6943,-4.8456,-5.0542,-5.2582,-5.425,-5.397,-5.3932,-5.483,-5.4658,-5.46,0.0,0.0,0.0,-5.5007,-5.3937,-5.2943,-5.2175,-5.06,-4.9639,-4.9399,-4.8659,-4.8306,-4.8306,-4.8306,-4.8286,-4.8187,-4.7984,-4.7717,-4.7363,-4.6501,-4.59,-4.5545,-4.4562,-4.4164,-4.4147,-4.3876,-4.391,-4.4164,-4.4164,-4.4164,-4.4164,-4.4164,-4.3826,-4.3335,-4.2863,-4.161,-3.9952,-3.873,-3.7261,-3.5804,-3.5459,-3.4893,-3.4252,-3.4132,-3.3984,-3.3728,-3.3141,-3.3307,-3.3486,-3.32,-3.314,-3.3275,-3.3739,-3.3814,-3.3784,-3.3844,-3.4188,-3.4472,-3.4472,-3.3849,-3.3053,-3.2236,-3.1296,-3.0764,-3.096,-3.0803,-3.0398,-2.9653,-2.9054,-2.8298,-2.7439,-2.6977,-2.6658,-2.6589,-2.6521,-2.6533,-2.6533,-2.6533,-2.6533,-2.6533,-2.6533,-2.6533,-2.6533,-2.6533,-2.6533,-2.6533,-2.6533,-2.6533,-3.6825,-3.7892,-3.9074,-4.1564,-4.2297,-4.2749,-4.4273,-4.46,-4.4195,-4.258,-4.2158,-4.2216,-4.2556,-4.3531,-4.496,-4.7005,-4.8372,-5.0015,-5.2518,-5.1448,-5.1334,0.0,0.0,0.0,0.0,0.0,0.0,-5.397,0.0,-5.2643,-5.0748,-5.021,-4.9472,-4.8401,-4.8326,-4.8306,-4.8306,-4.8306,-4.8286,-4.8187,-4.8024,-4.792,-4.7861,-4.6707,-4.6165,-4.6014,-4.423,-4.342,-4.3352,-4.2591,-4.2709,-4.3352,-4.3352,-4.3352,-4.3352,-4.3352,-4.2472,-4.1287,-4.1326,-4.1361,-4.0773,-3.756,-3.6451,-3.5995,-3.4058,-3.3875,-3.4091,-3.266,-3.3138,-3.3752,-3.2216,-3.2688,-3.3397,-3.2676,-3.2482,-3.2856,-3.4098,-3.344,-3.2976,-3.4233,-3.4502,-3.4532,-3.4532,-3.3787,-3.2918,-3.2177,-3.095,-3.0333,-3.0869,-3.0438,-3.0085,-3.0045,-2.884,-2.811,-2.8071,-2.7237,-2.6714,-2.6714,-2.6589,-2.6533,-2.6533,-2.6533,-2.6533,-2.6533,-2.6533,-2.6533,-2.6533,-2.6533,-2.6533,-2.6533,-2.6533,-2.6533,-3.7024,-3.8315,-3.9628,-4.0629,-4.2008,-4.3171,-4.33,-4.3579,-4.3351,-4.1754,-4.0603,-3.9935,-4.004,-4.1606,-4.3725,-4.6183,-4.8514,0.0,-5.3465,-5.2867,0.0,-5.3951,0.0,-5.2881,-5.311,-5.3129,0.0,0.0,-5.192,-5.1602,-5.1364,-5.0142,-4.9351,-4.9048,-4.8797,-4.855,-4.8306,-4.8306,-4.8306,-4.8286,-4.8187,-4.8126,-4.8068,-4.724,-4.6613,-4.6161,-4.4663,-4.3763,-4.3352,-4.2591,-4.2405,-4.2574,-4.2574,-4.2574,-4.2574,-4.2574,-4.2337,-4.1743,-3.9721,-3.8994,-3.8689,-3.6859,-3.5591,-3.4699,-3.4353,-3.3598,-3.2952,-3.3049,-3.2931,-3.2634,-3.2185,-3.2239,-3.2337,-3.2071,-3.2329,-3.2706,-3.2946,-3.3529,-3.4068,-3.4412,-3.4891,-3.5026,-3.4427,-3.3736,-3.2779,-3.1632,-3.0698,-3.0189,-3.0333,-2.9849,-2.9327,-2.8869,-2.8556,-2.8079,-2.7514,-2.7156,-2.6863,-2.6714,-2.6589,-2.6533,-2.6533,-2.6533,-2.6533,-2.6533,-2.6533,-2.6533,-2.6533,-2.6533,-2.6533,-2.6533,-2.6533,-2.6533,-3.8348,-3.9713,-4.091,-4.1392,-4.2069,-4.2526,-4.2178,-4.1748,-4.113,-4.0262,-3.9005,-3.8316,-3.9202,-4.0768,-4.2552,-4.4532,0.0,0.0,-5.1633,-5.1514,-5.162,0.0,-5.2628,0.0,-5.227,-5.2322,-5.2154,0.0,-5.1415,-5.1173,-5.0837,-4.9995,-4.9453,-4.9283,-4.8949,-4.8658,-4.8306,-4.8306,-4.8306,-4.8306,-4.8208,-4.8187,-4.8148,-4.6863,-4.6081,-4.5729,0.0,-4.2739,-4.2388,-4.1627,-4.1525,-4.1813,-4.1813,-4.1813,-4.1813,-4.1813,-4.161,-4.1102,-3.921,-3.8288,-3.7686,-3.5834,-3.4595,-3.3792,-3.3904,-3.3222,-3.2475,-3.2859,-3.2634,-3.2287,-3.2191,-3.2364,-3.2479,-3.2379,-3.2777,-3.3261,-3.3427,-3.401,-3.4472,-3.4472,-3.4786,-3.4832,-3.4053,-3.3072,-3.211,-3.1346,-3.0153,-2.9366,-2.9366,-2.9078,-2.8765,-2.8412,-2.815,-2.7808,-2.7429,-2.7214,-2.7079,-2.6863,-2.6658,-2.6589,-2.6533,-2.6533,-2.6533,-2.6533,-2.6533,-2.6533,-2.6533,-2.6533,-2.6533,-2.6533,-2.6533,-2.6533,-3.9676,-4.1078,-4.2244,-4.2441,-4.2048,-4.1488,-4.1031,-3.979,-3.8664,-3.8545,-3.758,-3.7261,-3.895,-4.0302,-4.1628,-4.2977,0.0,-4.7296,-4.9235,-4.9403,-4.9873,-5.148,-5.1653,-5.1619,-5.1503,-5.1554,-5.1576,-5.1457,-5.1429,-5.0969,-4.9922,-4.9857,-4.9702,-4.9394,-4.9001,-4.8603,-4.8198,-4.8141,-4.8141,-4.8141,-4.7991,-4.797,-4.8004,-4.6129,-4.522,-4.49,-4.2494,-4.1342,-4.1136,-4.0392,-4.046,-4.1052,-4.1052,-4.1052,-4.1052,-4.1052,-4.0646,-3.9969,-3.9242,-3.8514,-3.7461,-3.4971,-3.3797,-3.3287,-3.3145,-3.2803,-3.2398,-3.2398,-3.2398,-3.2398,-3.2247,-3.2675,-3.3077,-3.3026,-3.3379,-3.3864,-3.4437,-3.4463,-3.4367,-3.4457,-3.4412,-3.4085,-3.3282,-3.2151,-3.1274,-3.0893,-2.9419,-2.8347,-2.8281,-2.8268,-2.8268,-2.8268,-2.7824,-2.7523,-2.7523,-2.7403,-2.7214,-2.7011,-2.6794,-2.6658,-2.6521,-2.6533,-2.6533,-2.6533,-2.6533,-2.6533,-2.6533,-2.6533,-2.6533,-2.6533,-2.6533,-2.6533,-3.8217,-4.0074,-4.1877,-4.0674,-4.0957,-4.1343,-4.0335,-3.9386,-3.8394,-3.7302,-3.7055,-3.6998,-3.692,-3.8932,-4.1437,-4.3849,-4.5651,-4.7892,-5.1131,-5.0908,-5.0797,0.0,-5.1317,-5.0892,-5.0855,-5.0779,0.0,0.0,-5.0604,-5.0431,-5.0212,-5.0212,-5.0051,-4.973,-4.9113,-4.8447,-4.7745,-4.7445,-4.7333,-4.7315,-4.6599,-4.6635,-4.7259,-4.6168,-4.5155,-4.4226,-4.3107,0.0,-4.1136,-4.0392,-4.0155,-4.0273,-4.0273,-4.0273,-4.0273,-4.0273,-4.0189,-3.9969,-3.9242,-3.8514,-3.761,-3.5627,-3.4471,-3.3716,-3.2803,-3.2492,-3.2398,-3.2398,-3.2398,-3.2398,-3.2398,-3.2435,-3.265,-3.3062,-3.3233,-3.345,-3.3834,-3.3802,-3.3829,-3.4367,-3.4038,-3.3262,-3.1952,-3.1523,-3.0849,-2.9127,-2.8641,-2.8203,-2.7732,-2.768,-2.768,-2.768,-2.7589,-2.7523,-2.7523,-2.7403,-2.7268,-2.7268,-2.6918,-2.6714,-2.6658,-2.6589,-2.6533,-2.6533,-2.6533,-2.6533,-2.6533,-2.6533,-2.6533,-2.6533,-2.6533,-2.6533,-3.9265,-4.0615,-4.1787,-4.1252,-4.1318,-4.1056,-3.9093,-3.8158,-3.7479,-3.6863,-3.6592,-3.6876,-3.8098,-3.958,-4.1161,-4.286,-4.4926,-4.7021,-4.9195,-4.9818,-5.0387,-5.1217,-5.1054,-5.0819,-5.0713,-5.033,-5.02,-5.0469,-4.9637,-4.9455,-5.0264,-4.9901,-4.9306,-4.8515,-4.8044,-4.7532,-4.6995,-4.6634,-4.6489,-4.6471,-4.6085,-4.6104,-4.6452,-4.533,-4.4385,-4.358,-4.2466,-4.1479,-4.0697,-4.0441,-4.0238,-4.0138,-4.0188,-4.0188,-4.007,-4.007,-4.007,-4.002,-3.9681,-3.9089,-3.8299,-3.7134,-3.5736,-3.4381,-3.359,-3.3377,-3.3398,-3.3029,-3.3198,-3.3475,-3.3475,-3.3737,-3.4091,-3.4355,-3.4314,-3.4363,-3.468,-3.4435,-3.407,-3.3963,-3.3709,-3.3037,-3.1584,-3.0839,-3.0076,-2.8986,-2.8333,-2.7837,-2.7562,-2.7523,-2.7523,-2.7523,-2.7523,-2.7523,-2.7523,-2.7469,-2.7403,-2.7268,-2.7134,-2.693,-2.6714,-2.6658,-2.6589,-2.6533,-2.6533,-2.6533,-2.6533,-2.6533,-2.6533,-2.6533,-2.6533,-2.6533,-4.0095,-4.1245,-4.2068,-4.1933,-4.1664,-4.0781,-3.8379,-3.723,-3.6733,-3.6902,-3.6578,-3.6956,-3.9297,-4.0246,-4.0977,0.0,-4.3833,-4.5815,-4.7243,-4.8517,-4.9695,-5.0684,-5.0952,0.0,-5.0816,-5.0147,0.0,-5.0567,-4.9144,-4.8717,-4.971,-4.9328,-4.8567,-4.7435,-4.7135,-4.6746,-4.6257,-4.5944,-4.5698,-4.5645,-4.5461,-4.548,-4.5608,-4.4379,-4.3476,-4.2868,-4.1771,-4.0926,-4.0337,-4.0436,-4.0387,-4.0171,-4.0288,-4.0255,-4.0138,-4.0121,-4.007,-4.0054,-3.9901,-3.9377,-3.8653,-3.8,-3.6623,-3.5174,-3.4625,-3.4513,-3.4352,-3.3798,-3.4029,-3.4429,-3.4291,-3.4752,-3.5276,-3.5276,-3.5232,-3.5278,-3.5561,-3.4936,-3.4149,-3.3636,-3.3336,-3.2608,-3.1174,-3.0101,-2.9348,-2.896,-2.8124,-2.7523,-2.7523,-2.7523,-2.7523,-2.7523,-2.7523,-2.7523,-2.7523,-2.7523,-2.7469,-2.7335,-2.7335,-2.7134,-2.6794,-2.6714,-2.6658,-2.6533,-2.6339,-2.6339,-2.6533,-2.6339,-2.6339,-2.6533,-2.6533,-2.6533,-3.8634,-4.0815,-4.2898,-4.1105,-4.0912,-4.0749,-3.9219,-3.7691,-3.6764,-3.7334,-3.7395,-3.7525,-3.8101,-3.9565,-4.0994,0.0,0.0,-4.4848,-4.8093,-4.8672,-4.936,-5.0965,0.0,0.0,-5.1159,-5.0267,-5.0042,-5.0898,-4.9852,-4.8853,-4.8067,-4.8716,-4.8697,-4.7774,-4.7416,-4.6776,-4.5762,-4.5432,-4.5094,-4.48,-4.4066,-4.4103,-4.4782,-4.394,-4.3012,-4.2086,-4.1973,-4.1348,0.0,-4.0468,-4.0485,-4.0436,-4.0337,-4.0288,-4.0255,-4.0121,-4.007,-3.9986,-3.9326,-3.8616,-3.7846,-3.6725,-3.6259,-3.5986,-3.5458,-3.4904,-3.446,-3.4398,-3.4429,-3.4321,-3.366,-3.4029,-3.4568,-3.4568,-3.4894,-3.5217,-3.5217,-3.4076,-3.3126,-3.3668,-3.2661,-3.1265,-2.9874,-2.9588,-2.9044,-2.7867,-2.7589,-2.7523,-2.7523,-2.7523,-2.7523,-2.7523,-2.7523,-2.7523,-2.7523,-2.7523,-2.7456,-2.7469,-2.7403,-2.7214,-2.6943,-2.6794,-2.6658,-2.6533,-2.5937,-2.5937,-2.6533,-2.5937,-2.5937,-2.6533,-2.6533,-2.6533,-4.0012,-4.1686,-4.2996,-4.2465,-4.1949,-4.0987,-3.8776,-3.7661,-3.7162,-3.7451,-3.7544,-3.8019,-3.9331,-4.0292,-4.101,-4.1381,0.0,0.0,-4.5358,-4.6052,-4.7174,-4.9439,-4.9671,0.0,0.0,0.0,-4.8729,-4.7998,-4.8291,-4.7894,-4.6492,-4.7138,-4.715,-4.6328,-4.5965,-4.5603,-4.516,-4.4726,-4.4424,-4.4262,-4.3251,-4.3204,-4.3956,-4.313,-4.2305,-4.1462,-4.1462,-4.0858,0.0,-3.9495,-3.9551,-3.9768,-3.9259,-3.8976,-3.8911,-3.88,-3.8768,-3.8717,-3.8447,-3.7932,-3.7319,-3.69,-3.6259,-3.5529,-3.4491,-3.4353,-3.4383,-3.3952,-3.4429,-3.4922,-3.4229,-3.426,-3.4475,-3.4475,-3.4278,-3.4204,-3.4514,-3.3695,-3.2957,-3.3095,-3.2273,-3.1166,-3.0221,-2.9406,-2.8706,-2.8116,-2.7745,-2.7523,-2.7523,-2.7523,-2.7523,-2.7523,-2.7523,-2.7523,-2.7523,-2.7523,-2.7523,-2.7523,-2.7469,-2.7335,-2.7214,-2.6745,-2.6432,-2.6152,-2.5542,-2.5464,-2.5937,-2.5711,-2.5887,-2.6533,-2.6533,-2.6533,-4.0889,-4.2225,-4.3091,-4.3638,-4.2864,-4.1349,-3.8971,-3.7945,-3.7528,-3.7637,-3.7763,-3.8425,-4.032,-4.0858,-4.0994,-4.1006,-4.1518,-4.2334,-4.345,-4.4091,-4.5312,-4.7646,0.0,-4.8205,0.0,-4.8816,-4.7944,-4.6371,-4.7182,-4.7181,-4.5917,-4.609,-4.5797,-4.4934,-4.4954,-4.4796,-4.4459,-4.4233,-4.4079,-4.3986,-4.2838,-4.2598,-4.3112,-4.2304,-4.1558,-4.0894,-4.0778,-4.0235,0.0,-3.8801,-3.8814,-3.9076,-3.8482,-3.8213,-3.8103,-3.7967,-3.7919,-3.7902,-3.7652,-3.7198,-3.6704,-3.6306,-3.5558,-3.4549,-3.3413,-3.3752,-3.4368,-3.386,-3.4275,-3.4814,-3.4552,-3.4321,-3.4214,-3.4429,-3.4091,-3.386,-3.4219,-3.363,-3.3041,-3.2851,-3.2139,-3.1253,-3.0305,-2.9384,-2.8682,-2.8195,-2.7785,-2.7523,-2.7523,-2.7523,-2.7523,-2.7523,-2.7523,-2.7458,-2.7288,-2.7432,-2.7458,-2.7288,-2.7432,-2.7469,-2.7335,-2.6893,-2.6398,-2.5889,-2.5509,-2.5365,-2.5598,-2.5598,-2.5887,-2.6533,-2.6533,-2.6383,-4.057,-4.2036,-4.3296,-4.4177,-4.322,-4.1737,-4.0304,-3.8783,-3.7778,-3.8035,-3.8141,-3.8739,-4.0477,-4.0913,-4.1006,-4.0994,-4.1058,0.0,-4.3366,-4.3609,-4.4239,0.0,0.0,-4.646,-4.7338,-4.8127,-4.8177,-4.7171,-4.7099,0.0,-4.6685,-4.5936,-4.5036,-4.4055,-4.4857,-4.475,-4.3625,-4.4124,-4.426,-4.3986,-4.2838,-4.2304,-4.2286,-4.1497,-4.0857,-4.0402,-3.9998,-3.9589,0.0,-3.8755,-3.8594,-3.8594,-3.8459,-3.8414,-3.8368,-3.8103,-3.7993,-3.7908,-3.7072,-3.6474,-3.5794,-3.4446,-3.3697,-3.3108,-3.2563,-3.3367,-3.4475,-3.446,-3.3967,-3.3583,-3.4291,-3.3952,-3.3598,-3.4306,-3.446,-3.446,-3.4475,-3.3805,-3.3142,-3.3041,-3.2352,-3.1292,-2.9766,-2.9504,-2.9016,-2.7723,-2.7523,-2.7523,-2.7523,-2.7523,-2.7523,-2.7523,-2.7523,-2.7301,-2.6726,-2.7196,-2.7288,-2.6713,-2.721,-2.7469,-2.7335,-2.7268,-2.6863,-2.5902,-2.5876,-2.581,-2.5598,-2.5598,-2.5887,-2.6533,-2.6533,-2.6094,-3.9695,-4.1106,-4.2272,-4.1945,-4.1313,-4.0463,-3.947,-3.901,-3.883,-3.8967,-3.9081,-3.9516,-4.0662,-4.0983,-4.1062,-4.1072,-4.109,-4.1284,0.0,0.0,0.0,-4.5958,-4.7709,-4.864,0.0,0.0,-4.7368,-4.643,-4.63,-4.5982,-4.5298,-4.485,-4.4691,-4.4876,-4.459,-4.4243,-4.3893,-4.3095,-4.264,-4.2557,-4.1268,-4.0946,-4.146,-4.0653,-4.0035,-3.9641,-3.9517,-3.9078,0.0,-3.772,-3.7617,-3.7784,-3.7136,-3.6886,-3.6886,-3.6693,-3.6631,-3.6597,-3.6331,-3.5824,-3.5112,-3.3843,-3.301,-3.2415,-3.1851,-3.2336,-3.3152,-3.3614,-3.3244,-3.2875,-3.3567,-3.3229,-3.2782,-3.2998,-3.3044,-3.3044,-3.3044,-3.2778,-3.2512,-3.2455,-3.1702,-3.0837,-2.9889,-2.9205,-2.8532,-2.7656,-2.7523,-2.7523,-2.7523,-2.7523,-2.7523,-2.7523,-2.7523,-2.7301,-2.6726,-2.7196,-2.7288,-2.6713,-2.721,-2.7469,-2.7469,-2.7091,-2.6479,-2.5512,-2.5128,-2.4811,-2.4506,-2.4883,-2.5269,-2.5676,-2.5676,-2.5229,-3.9009,-4.0084,-4.099,-4.1085,-4.048,-3.9738,-3.9238,-3.8788,-3.8593,-3.8957,-3.9101,-3.9544,-4.0714,-4.103,-4.1094,-4.111,-4.1093,-4.1094,0.0,0.0,0.0,-4.6035,0.0,0.0,0.0,-4.7242,-4.6668,-4.6084,-4.5684,-4.5234,-4.4634,-4.4129,-4.4011,-4.4384,-4.3827,-4.3386,-4.3061,-4.2389,-4.2008,-4.1886,-4.0651,-4.0265,-4.0616,-3.9808,-3.9296,-3.9064,-3.8912,-3.8331,0.0,-3.6749,-3.6382,-3.618,-3.5949,-3.5648,-3.5442,-3.5574,-3.5634,-3.5634,-3.5591,-3.5182,-3.4492,-3.3498,-3.2463,-3.1482,-3.1118,-3.1659,-3.249,-3.2906,-3.2721,-3.249,-3.2906,-3.2705,-3.2398,-3.2398,-3.2198,-3.2013,-3.2013,-3.1774,-3.1512,-3.1442,-3.1125,-3.0499,-2.9294,-2.8781,-2.8189,-2.7039,-2.6883,-2.6883,-2.6883,-2.6883,-2.6883,-2.6883,-2.6883,-2.6648,-2.6073,-2.6948,-2.7288,-2.6713,-2.7,-2.721,-2.721,-2.6661,-2.5946,-2.5112,-2.4908,-2.4418,-2.3716,-2.4136,-2.4458,-2.4862,-2.4587,-2.4143,0.0,-3.8907,-3.9502,-4.0993,-4.0378,-3.9437,-3.9425,-3.8355,0.0,-3.8429,-3.8635,-3.9164,-4.0722,-4.1054,-4.1108,-4.1099,-4.1105,-4.1107,0.0,-4.2656,0.0,0.0,-4.642,0.0,-4.6308,-4.623,-4.6164,-4.6098,-4.5278,-4.4722,-4.4531,-4.3685,-4.3057,-4.2746,-4.268,-4.2278,-4.1514,-4.1917,-4.1987,-4.1717,-4.0691,-4.0059,-3.979,-3.9038,-3.8707,0.0,-3.8285,-3.7446,0.0,-3.5964,-3.5126,-3.4162,-3.4835,-3.4697,-3.4162,-3.4713,-3.4929,-3.4929,-3.4864,-3.4507,-3.3929,-3.3219,-3.1817,-3.0351,-3.0351,-3.1243,-3.2259,-3.2259,-3.2259,-3.2259,-3.2259,-3.2259,-3.2259,-3.2259,-3.1767,-3.132,-3.132,-3.0843,-3.0391,-3.0302,-3.0632,-3.0268,-2.8369,-2.8316,-2.7958,-2.6077,-2.5824,-2.5824,-2.5824,-2.5824,-2.5824,-2.5824,-2.5824,-2.5615,-2.5066,-2.6491,-2.7157,-2.6582,-2.6582,-2.6621,-2.6621,-2.6112,-2.5475,-2.4706,-2.4998,-2.457,-2.3223,-2.3379,-2.3639,-2.3975,-2.3316,-2.2968,-3.6495,0.0,-3.7491,-3.7199,-3.7948,-3.8711,0.0,-3.9394,-4.0164,-4.0418,-4.0446,-4.0547,-4.0986,-4.1097,-4.1094,-4.1101,-4.1104,-4.1108,-4.1108,-4.3177,0.0,-4.792,-4.82,-4.794,-4.7265,-4.7132,-4.6816,-4.6144,-4.5278,-4.4491,-4.3809,-4.2831,-4.1951,-4.1176,-4.1017,-4.1147,-4.1495,-4.0817,-4.0329,-4.0065,-3.9591,-3.9227,-3.8982,-3.8799,-3.8707,-3.8676,-3.8285,-3.7446,-3.6363,-3.5964,-3.5126,-3.4111,-3.4283,-3.4231,-3.4111,-3.4283,-3.4295,-3.4295,-3.4312,-3.3894,-3.3165,-3.1572,-3.0415,-2.9658,-2.9658,-3.0228,-3.0889,-3.0889,-3.0889,-3.0889,-3.0889,-3.0889,-3.0889,-3.0889,-3.0766,-3.0643,-3.0643,-3.0535,-3.0514,-3.1006,-3.0364,-2.9574,-2.9103,-2.8113,-2.7086,-2.6074,-2.5887,-2.5824,-2.5824,-2.5824,-2.5824,-2.5824,-2.5824,-2.5772,-2.5628,-2.5994,-2.5981,-2.5406,-2.5785,-2.602,-2.602,-2.5903,-2.5475,-2.4706,-2.4227,-2.3928,-2.3717,-2.3429,-2.329,-2.3276,-2.2681,-2.2347,-3.5799,-3.6438,-3.7074,-3.6996,-3.7749,-3.859,-3.8928,-3.9449,-3.9974,-4.0371,-4.0427,-4.0422,-4.0489,-4.0836,-4.0953,-4.0535,-4.0788,0.0,0.0,0.0,-4.5889,-4.8486,-4.8466,-4.8063,0.0,-4.7128,-4.6485,-4.5601,-4.472,-4.381,-4.2947,-4.2013,-4.1249,-4.0707,-4.0559,-4.0636,-4.0941,-4.0366,-3.9892,-3.9502,-3.935,-3.9073,-3.8707,-3.8707,-3.8505,-3.8138,-3.7917,-3.6855,-3.5275,-3.5049,-3.423,-3.3076,-3.3404,-3.3335,-3.3076,-3.3421,-3.3542,-3.3542,-3.3542,-3.3012,-3.2131,-3.081,-2.9737,-2.9049,-2.9049,-2.9246,-2.9627,-3.0243,-3.0428,-3.0428,-3.0428,-3.0428,-3.0428,-3.0428,-3.0181,-2.9966,-2.9966,-2.972,-2.9495,-2.9596,-2.9192,-2.8571,-2.7783,-2.7125,-2.6372,-2.5342,-2.5135,-2.5074,-2.504,-2.504,-2.504,-2.504,-2.504,-2.504,-2.504,-2.504,-2.5132,-2.5341,-2.5406,-2.5432,-2.5432,-2.5184,-2.4823,-2.4331,-2.3251,-2.2811,-2.3054,-2.2116,-2.1785,-2.2147,-2.188,-2.1808,-3.5858,-3.6599,-3.7498,-3.81,-3.8356,-3.863,-3.9334,-3.8963,-3.8652,-3.9351,-3.9501,-3.9544,-3.9708,-4.0357,-4.0649,-3.9979,0.0,0.0,-4.4445,-4.4888,-4.582,-4.8123,-4.7795,0.0,-4.7393,-4.6557,-4.5701,-4.4965,-4.3924,-4.2992,-4.2256,-4.1383,-4.0868,-4.08,-4.0675,-4.0519,-4.0328,-4.031,-4.0057,-3.9575,-3.9526,-3.9245,-3.875,-3.8591,-3.8138,-3.7477,0.0,0.0,-3.399,-3.3906,-3.3072,-3.1852,-3.249,-3.2352,-3.1869,-3.2507,-3.2731,-3.2693,-3.2561,-3.1955,-3.11,-3.032,-2.9438,-2.8636,-2.8621,-2.8541,-2.8642,-2.9797,-3.012,-3.012,-3.012,-3.012,-3.012,-3.012,-2.9673,-2.9258,-2.9258,-2.8812,-2.8266,-2.7765,-2.7899,-2.7588,-2.6062,-2.5979,-2.5748,-2.4545,-2.435,-2.4247,-2.4157,-2.4112,-2.4112,-2.4112,-2.4112,-2.4112,-2.4112,-2.4112,-2.453,-2.5497,-2.5105,-2.4831,-2.4831,-2.4374,-2.3995,-2.376,-2.247,-2.1926,-2.2004,-2.0714,-2.0435,-2.1114,-2.1114,-2.1321,-3.6532,-3.7325,-3.7821,-3.7288,-3.7689,-3.8293,-3.8479,-3.8415,-3.8358,-3.8481,-3.8505,-3.8708,-3.9345,-3.9626,-3.9937,0.0,0.0,-4.3404,0.0,0.0,-4.5939,-4.6456,0.0,-4.6371,-4.6491,-4.566,-4.5039,-4.4902,-4.3392,-4.2429,-4.2279,-4.1399,-4.0868,-4.08,-4.0788,-4.0654,-4.0392,-4.0327,-4.0138,-3.9848,-3.9623,-3.935,-3.8998,-3.8122,-3.7606,-3.7441,0.0,-3.5209,-3.399,-3.3652,-3.2825,-3.18,-3.1921,-3.1903,-3.18,-3.1921,-3.1972,-3.1881,-3.1133,-3.0667,-3.0314,-2.9425,-2.8982,-2.8747,-2.8636,-2.8589,-2.8587,-2.8706,-2.8719,-2.8719,-2.8719,-2.8719,-2.8719,-2.8719,-2.8642,-2.855,-2.855,-2.8473,-2.8419,-2.8447,-2.7632,-2.6876,-2.6749,-2.5797,-2.5,-2.4734,-2.4465,-2.4292,-2.4292,-2.4157,-2.4112,-2.4112,-2.4112,-2.4112,-2.4112,-2.4112,-2.4191,-2.4374,-2.4295,-2.4243,-2.4243,-2.4164,-2.3793,-2.322,-2.3015,-2.2696,-2.2241,-2.1476,-2.117,-2.1335,-2.1188,-2.1155,-3.5945,-3.6659,-3.7308,-3.7433,-3.8487,-3.9568,-3.9593,-3.9606,-3.9597,-3.9606,0.0,0.0,0.0,0.0,-4.1291,-4.2594,0.0,-4.4206,-4.5124,-4.5163,-4.5297,0.0,0.0,-4.5854,-4.5513,-4.5089,-4.4494,-4.3613,-4.2804,-4.2139,-4.1627,-4.1195,-4.0949,-4.0915,-4.0837,-4.0707,-4.0515,-4.0411,-4.0196,-3.9892,-3.9647,-3.9133,-3.8432,-3.779,-3.7,-3.6138,0.0,-3.4685,-3.3602,-3.325,-3.2685,-3.2055,-3.1856,-3.18,-3.18,-3.18,-3.18,-3.1709,-3.1044,-3.0625,-3.0309,-2.9617,-2.9136,-2.8842,-2.8795,-2.8716,-2.8589,-2.8541,-2.846,-2.8411,-2.8411,-2.8411,-2.8411,-2.8411,-2.8411,-2.8411,-2.8411,-2.8411,-2.8229,-2.7676,-2.7106,-2.6515,-2.598,-2.5351,-2.4835,-2.4734,-2.4549,-2.4376,-2.4203,-2.4157,-2.4112,-2.4112,-2.4112,-2.4112,-2.4112,-2.4112,-2.4112,-2.4112,-2.4112,-2.3923,-2.3603,-2.3543,-2.322,-2.2592,-2.2113,-2.1724,-2.1417,-2.0599,-2.046,-2.0886,-2.0741,-2.101,-3.5465,-3.5935,-3.6625,-3.7484,-3.867,-3.9767,-4.0236,-4.0011,0.0,0.0,0.0,0.0,0.0,-4.0559,0.0,-4.3603,-4.41,-4.4566,-4.5345,-4.5171,-4.51,-4.5503,-4.5545,-4.5278,-4.4542,-4.4311,-4.3699,-4.2472,-4.2206,-4.1776,-4.106,-4.1013,-4.0994,-4.0994,-4.0878,-4.0769,-4.0648,-4.0303,-4.0093,-3.9996,-3.9509,-3.8814,-3.7981,-3.7313,-3.6268,-3.499,-3.4789,-3.4191,-3.3273,-3.2939,-3.2619,-3.2283,-3.1929,-3.18,-3.18,-3.18,-3.18,-3.1709,-3.124,-3.0885,-3.0559,-2.9968,-2.9483,-2.9074,-2.8951,-2.8795,-2.8636,-2.8621,-2.8493,-2.8411,-2.8411,-2.8411,-2.8411,-2.8411,-2.8411,-2.8411,-2.8411,-2.8411,-2.8073,-2.6901,-2.6678,-2.6361,-2.5216,-2.5005,-2.4948,-2.4734,-2.462,-2.4505,-2.4229,-2.4171,-2.4112,-2.4112,-2.4112,-2.4112,-2.4112,-2.4112,-2.4054,-2.3865,-2.3865,-2.3662,-2.3148,-2.2967,-2.2531,-2.1865,-2.1262,-2.0884,-2.0651,-1.9897,-1.9797,-2.0346,-2.0483,-2.0907,-3.5837,-3.5964,-3.6061,-3.6855,-3.6783,-3.7009,-3.8892,-3.7913,0.0,-3.7901,0.0,0.0,0.0,-3.9789,-4.0741,-4.1747,-4.3246,-4.4323,-4.4399,0.0,-4.6103,-4.4679,-4.4515,-4.4234,-4.3559,-4.2887,-4.2422,-4.2317,-4.1629,-4.1152,-4.1094,-4.1031,-4.0994,-4.0994,-4.0932,-4.0858,-4.0788,-3.9837,-3.9685,-4.0253,-3.9178,-3.8527,-3.8201,-3.6379,-3.5354,-3.4954,-3.4211,-3.3661,-3.3273,-3.2939,-3.2619,-3.2283,-3.1929,-3.18,-3.18,-3.18,-3.18,-3.1709,-3.124,-3.1083,-3.0925,-3.0081,-2.975,-2.9617,-2.909,-2.8858,-2.8747,-2.8636,-2.8493,-2.8411,-2.8411,-2.8411,-2.8411,-2.8411,-2.8411,-2.8411,-2.8411,-2.8411,-2.8073,-2.6901,-2.6678,-2.6361,-2.5216,-2.5005,-2.5005,-2.4948,-2.4778,-2.462,-2.4563,-2.4287,-2.4112,-2.4112,-2.4112,-2.4112,-2.4112,-2.4112,-2.3852,-2.3207,-2.3148,-2.3148,-2.3088,-2.247,-2.1865,-2.1187,-2.1135,-2.1054,-2.0873,-2.0468,-2.0239,-2.0323,-2.0823,-2.0866,-3.5011,-3.5418,-3.5822,-3.6164,-3.6344,-3.6821,-3.83,-3.8073,-3.7934,-3.934,-3.9372,0.0,0.0,0.0,-4.2107,-4.2711,-4.4077,-4.4997,-4.4882,-4.5074,-4.5012,-4.4402,-4.3898,-4.3303,-4.2548,-4.2287,-4.1996,-4.1533,-4.1257,-4.1103,-4.1103,-4.1073,-4.0818,-4.027,-4.0195,-3.9846,-3.9193,-3.8798,-3.8684,-3.8791,-3.8118,-3.748,-3.6885,-3.5861,-3.5076,-3.4467,-3.3997,-3.3734,-3.3578,-3.3243,-3.2908,-3.2553,-3.202,-3.18,-3.18,-3.18,-3.18,-3.1709,-3.124,-3.0965,-3.0625,-3.0011,-2.9589,-2.9289,-2.8997,-2.8842,-2.8747,-2.8636,-2.8493,-2.8411,-2.8411,-2.8411,-2.8411,-2.8411,-2.8411,-2.8411,-2.8411,-2.8122,-2.763,-2.6834,-2.6443,-2.5974,-2.5174,-2.5005,-2.4948,-2.4892,-2.4734,-2.4549,-2.4421,-2.4216,-2.4112,-2.4112,-2.4112,-2.4112,-2.4112,-2.4112,-2.3995,-2.3734,-2.3339,-2.2725,-2.1865,-2.1616,-2.1187,-2.0518,-2.0453,-2.0412,-2.027,-2.0137,-2.0236,-2.0534,-2.0739,-2.0969,-3.4473,-3.4927,-3.5491,-3.5533,-3.5813,-3.6433,-3.7746,-3.8109,-3.8577,-4.0021,-4.0042,-3.9955,-4.0549,0.0,0.0,0.0,-4.3232,-4.3973,-4.3833,-4.3708,-4.356,-4.3368,-4.2887,-4.2264,-4.1523,-4.1575,-4.1461,-4.0972,-4.1022,-4.1078,-4.1108,-4.109,-4.0702,-3.9834,-3.9731,-3.924,-3.8268,-3.7936,-3.7718,-3.755,-3.6969,-3.6483,-3.6083,-3.5506,-3.4843,-3.4197,-3.3998,-3.3868,-3.378,-3.3302,-3.2858,-3.2419,-3.1984,-3.18,-3.18,-3.18,-3.18,-3.1746,-3.1411,-3.1044,-3.0642,-3.0182,-2.9705,-2.9289,-2.9059,-2.8905,-2.8794,-2.8684,-2.8541,-2.8411,-2.8411,-2.8411,-2.8411,-2.8411,-2.8411,-2.8348,-2.8186,-2.7795,-2.7312,-2.6587,-2.6136,-2.5729,-2.5118,-2.5005,-2.4948,-2.4835,-2.4677,-2.4549,-2.435,-2.4157,-2.4112,-2.4112,-2.3923,-2.3793,-2.3793,-2.3616,-2.3365,-2.3185,-2.2725,-2.2163,-2.1428,-2.1008,-2.0582,-2.0074,-2.0085,-2.0074,-1.9944,-1.9933,-2.0143,-2.0576,-2.0642,-2.099,-3.4401,-3.4607,-3.5009,-3.499,-3.5009,-3.5477,-3.711,-3.772,-3.8197,-3.9283,-3.9502,-3.9502,-3.9502,-3.9502,0.0,-3.95,-4.022,-4.0791,-4.0791,-4.1599,-4.1987,-4.1371,-4.1338,-4.1151,-4.0569,-4.0615,-4.0734,-4.0781,-4.0933,-4.1037,-4.1108,-4.109,-4.0703,-3.9824,-3.9728,-3.926,-3.8396,-3.7394,-3.6856,-3.6768,-3.5853,-3.5643,-3.6064,-3.5268,-3.463,-3.4197,-3.4197,-3.4049,-3.3734,-3.3075,-3.2419,-3.18,-3.18,-3.18,-3.18,-3.18,-3.18,-3.18,-3.18,-3.1504,-3.1044,-3.0625,-3.0182,-2.9722,-2.9243,-2.8951,-2.8794,-2.8794,-2.8604,-2.8411,-2.8411,-2.8411,-2.8411,-2.8411,-2.8411,-2.8235,-2.763,-2.7515,-2.7159,-2.6096,-2.5893,-2.5729,-2.5118,-2.5005,-2.4948,-2.4835,-2.4677,-2.4549,-2.4292,-2.4157,-2.4112,-2.4112,-2.3543,-2.3088,-2.3088,-2.247,-2.1803,-2.1123,-2.1123,-2.1365,-2.2039,-2.0828,-2.0085,-2.0085,-2.0085,-2.0085,-2.0085,-1.9944,-2.006,-2.0339,-2.0576,-2.0823,-3.4142,-3.489,-3.5771,-3.5137,-3.6321,-3.7588,-3.7514,-3.7566,0.0,0.0,-3.9666,-3.989,-3.933,-3.9376,0.0,-3.9064,-4.0012,-4.0741,-4.0615,-4.0973,-4.1236,-4.1105,-4.0724,-4.0425,-4.0306,-4.054,-4.0718,-4.0734,-4.082,-4.0906,-4.1017,-4.1037,-4.0659,-3.9824,-3.9197,-3.8414,-3.7492,-3.6638,-3.6148,-3.6013,-3.5649,-3.5456,-3.545,-3.5059,-3.4713,-3.4398,-3.425,-3.4049,-3.378,-3.3332,-3.2908,-3.2486,-3.2249,-3.202,-3.18,-3.18,-3.18,-3.1746,-3.1411,-3.1044,-3.0517,-2.9592,-2.9318,-2.9164,-2.8462,-2.8559,-2.8842,-2.8716,-2.8589,-2.8541,-2.8396,-2.8411,-2.8299,-2.7845,-2.7795,-2.763,-2.7041,-2.664,-2.6297,-2.5948,-2.5564,-2.523,-2.5005,-2.5005,-2.4948,-2.4835,-2.4677,-2.4505,-2.4216,-2.4112,-2.4112,-2.4112,-2.3923,-2.3603,-2.3148,-2.2907,-2.2543,-2.1865,-2.1376,-2.1008,-2.07,-2.0324,-2.0085,-2.0085,-2.0085,-2.0085,-2.0085,-2.0279,-2.0554,-2.0828,-2.106,-2.1376,-3.4926,-3.5752,-3.6652,-3.6119,-3.7129,-3.8175,-3.801,-3.7973,-3.8162,0.0,-3.9338,-3.9523,-3.9042,-3.9073,0.0,-3.8792,-3.9435,-3.9927,-3.9788,-3.9935,-4.0101,-4.0233,-3.9962,-3.9835,-3.9943,-4.0264,-4.0472,-4.0511,-4.0343,-4.0296,-4.0439,-4.0474,-3.9936,-3.8754,-3.8572,-3.7908,-3.6648,-3.6148,-3.5827,-3.5688,-3.5618,-3.5464,-3.5273,-3.5107,-3.4889,-3.4632,-3.4344,-3.3795,-3.3122,-3.3117,-3.2711,-3.211,-3.2092,-3.2001,-3.18,-3.18,-3.18,-3.1746,-3.1466,-3.1083,-3.0599,-2.9757,-2.941,-2.9255,-2.8586,-2.859,-2.8858,-2.8732,-2.8668,-2.8573,-2.8493,-2.8444,-2.8299,-2.7959,-2.7845,-2.763,-2.6886,-2.6443,-2.6082,-2.5605,-2.523,-2.5005,-2.5005,-2.5005,-2.4948,-2.4835,-2.4677,-2.4505,-2.4216,-2.4157,-2.4157,-2.4112,-2.3616,-2.3173,-2.2713,-2.2224,-2.1741,-2.1313,-2.0944,-2.0506,-2.0151,-2.0085,-2.0085,-2.0085,-2.0085,-2.0172,-2.0435,-2.0517,-2.0855,-2.1296,-2.1355,-2.1511,-3.6211,-3.6817,-3.7507,-3.7507,-3.7581,-3.779,-3.8524,-3.8707,-3.8707,-3.8707,0.0,-3.8707,-3.8707,-3.8707,-3.8707,-3.8707,-3.8707,-3.8707,-3.8707,-3.875,-3.8873,-3.9063,-3.9208,-3.9364,-3.9552,-3.9859,-4.0043,-4.0068,-3.9601,-3.9364,-3.9452,-3.9524,-3.8805,-3.7155,-3.7853,-3.746,-3.5801,-3.5708,-3.5599,-3.5488,-3.5543,-3.5485,-3.5311,-3.5251,-3.5107,-3.487,-3.439,-3.3423,-3.2218,-3.2691,-3.2222,-3.123,-3.1724,-3.1856,-3.1819,-3.175,-3.1696,-3.1679,-3.1573,-3.1223,-3.0746,-3.0318,-2.9894,-2.9468,-2.8989,-2.8777,-2.8732,-2.8716,-2.8607,-2.8528,-2.8496,-2.8446,-2.8411,-2.8348,-2.8299,-2.7925,-2.6782,-2.652,-2.6269,-2.5216,-2.5005,-2.5005,-2.5005,-2.5005,-2.4948,-2.4778,-2.4664,-2.4492,-2.4234,-2.4163,-2.4118,-2.3923,-2.2859,-2.2113,-2.1978,-2.088,-2.0151,-2.0085,-2.0085,-2.0085,-2.0085,-2.0085,-2.0085,-2.0085,-2.0085,-2.038,-2.0928,-2.0769,-2.1048,-2.169,-2.1523,-2.1543,-3.5642,-3.6376,-3.7507,-3.7507,-3.7955,-3.8487,-3.867,-3.8707,-3.8707,-3.8707,-3.8707,-3.8707,-3.8707,-3.8707,-3.8707,-3.8707,-3.8707,-3.8707,-3.8707,-3.8689,-3.878,-3.8844,-3.9045,-3.9197,-3.9338,-3.9571,-3.9534,-3.9071,-3.8917,-3.8741,-3.8431,-3.8438,-3.8025,-3.713,-3.6674,-3.5971,-3.4961,-3.4224,-3.3836,0.0,-3.4398,-3.4651,-3.4627,-3.5128,-3.519,-3.487,-3.439,-3.3685,-3.2835,-3.3386,-3.2918,-3.1918,-3.2396,-3.2419,-3.2092,-3.1235,-3.0938,-3.0798,-2.9856,-2.9248,-2.8749,-2.7758,-2.7541,-2.7545,-2.6889,-2.704,-2.7438,-2.723,-2.7515,-2.786,-2.769,-2.8059,-2.8299,-2.7795,-2.7363,-2.6745,-2.5632,-2.537,-2.5258,-2.5061,-2.5005,-2.5005,-2.5005,-2.5005,-2.4892,-2.4677,-2.4478,-2.4118,-2.3446,-2.3386,-2.3148,-2.2604,-2.2298,-2.1865,-2.1376,-2.1071,-2.0635,-2.014,-2.0085,-2.0085,-2.0085,-2.0085,-2.0085,-2.0085,-2.0085,-2.038,-2.0928,-2.1036,-2.1371,-2.17,-2.185,-2.1931,-3.6909,-3.7422,-3.8065,-3.8065,-3.8395,-3.8707,-3.8707,-3.8546,-3.8401,-3.8401,-3.8401,-3.8401,-3.8401,-3.8401,-3.8401,-3.8401,-3.8578,-3.8707,-3.8707,-3.8707,-3.8689,-3.875,-3.8493,-3.8377,-3.8442,-3.8308,-3.808,-3.7785,-3.7499,-3.7319,-3.7241,-3.7271,-3.6991,-3.6345,-3.5993,-3.5435,-3.4666,-3.3749,-3.3508,-3.3934,-3.4315,-3.4669,-3.5039,-3.5277,-3.5207,-3.4889,-3.463,-3.3721,-3.2488,-3.3379,-3.2766,-3.1332,-3.1831,-3.1841,-3.1429,-3.0473,-3.0127,-3.004,-2.94,-2.9033,-2.8693,-2.7745,-2.7541,-2.7517,-2.6751,-2.6799,-2.7056,-2.6851,-2.6998,-2.7174,-2.7009,-2.7442,-2.7697,-2.6852,-2.6872,-2.6782,-2.5646,-2.5453,-2.5342,-2.5061,-2.5005,-2.5005,-2.5005,-2.5005,-2.4948,-2.4778,-2.4664,-2.435,-2.3884,-2.3446,-2.3015,-2.2592,-2.199,-2.1502,-2.1123,-2.0828,-2.0453,-2.014,-2.0085,-2.0085,-2.0085,-2.0085,-2.0085,-2.0085,-2.0085,-2.0489,-2.121,-2.1183,-2.1442,-2.2041,-2.1521,-2.1252,-3.834,-3.8597,-3.8707,-3.8707,-3.8658,-3.8596,-3.8596,-3.8303,-3.8,-3.8,-3.8,-3.8,-3.8,-3.8,-3.8034,-3.8101,-3.8368,-3.8572,-3.8505,-3.8535,-3.8517,-3.8322,-3.7778,-3.7363,-3.7294,-3.6878,-3.6589,-3.6491,-3.6058,-3.5867,-3.6008,-3.6088,-3.5797,-3.5013,-3.5146,-3.4808,-3.3918,-3.334,-3.3435,-3.4148,-3.4296,-3.4846,-3.5688,-3.5374,-3.5151,-3.4963,-3.4737,-3.3558,-3.1946,-3.2889,-3.2138,-3.0391,-3.0893,-3.0902,-3.056,-2.9644,-2.9317,-2.9299,-2.9161,-2.9042,-2.8818,-2.8152,-2.7849,-2.7594,-2.693,-2.6735,-2.6693,-2.6549,-2.6424,-2.637,-2.6311,-2.6611,-2.6758,-2.5775,-2.6308,-2.6821,-2.596,-2.5729,-2.5619,-2.5118,-2.5005,-2.5005,-2.5005,-2.5005,-2.5005,-2.4948,-2.4835,-2.4607,-2.4247,-2.3564,-2.2955,-2.2592,-2.1616,-2.0944,-2.0944,-2.0453,-2.0085,-2.0085,-2.0085,-2.0085,-2.0085,-2.0085,-2.0085,-2.0085,-2.0009,-2.0443,-2.1461,-2.1129,-2.1311,-2.205,-2.1048,-2.0459,-3.7808,-3.8175,-3.8707,-3.8707,-3.8451,-3.8186,-3.8186,-3.7879,-3.7578,0.0,-3.7578,-3.7578,-3.7578,-3.7578,-3.7685,-3.8034,-3.8153,-3.8049,-3.7704,-3.7963,-3.7776,-3.6751,-3.6833,-3.6843,-3.6476,-3.6397,-3.615,-3.5609,-3.5492,-3.5287,-3.4842,-3.5003,-3.4456,-3.3029,-3.3171,-3.259,-3.1142,-3.1772,-3.2168,-3.2354,-3.3119,-3.425,-3.5669,-3.4883,-3.4827,-3.5281,-3.4037,-3.2972,-3.2047,-3.1806,-3.1114,-3.0239,-3.0496,-3.0581,-3.0353,-2.9047,-2.8558,-2.8454,-2.7816,-2.7131,-2.6528,-2.6421,-2.5961,-2.5433,-2.533,-2.529,-2.521,-2.4992,-2.5022,-2.5192,-2.5398,-2.5333,-2.5165,-2.4956,-2.5149,-2.5297,-2.5162,-2.5118,-2.5118,-2.5005,-2.5005,-2.5005,-2.5005,-2.5005,-2.4892,-2.4677,-2.462,-2.4131,-2.2592,-2.2347,-2.1803,-2.0635,-2.0324,-2.0205,-2.0205,-2.014,-2.0085,-2.0085,-2.0085,-2.0085,-2.0085,-2.0085,-2.0085,-2.0085,-1.9649,-1.9916,-2.0959,-2.0887,-2.0762,-2.0646,-2.0877,-2.044,-3.7588,-3.8083,-3.8645,-3.8401,-3.8219,-3.8034,-3.7809,-3.7469,-3.7152,-3.7152,-3.6978,-3.69,-3.7132,-3.7152,-3.7228,-3.7395,-3.7256,-3.707,-3.6895,-3.6651,-3.6276,-3.577,-3.5443,-3.5295,-3.5278,-3.487,-3.4595,-3.45,-3.4489,-3.4469,-3.4367,-3.4572,-3.4188,-3.3085,-3.2934,-3.2269,-3.1047,-3.1092,-3.1651,-3.2739,-3.3572,-3.4616,-3.5811,-3.5344,-3.5231,-3.5379,-3.4754,-3.358,-3.2126,-3.2366,-3.1468,-2.9919,-3.0044,-2.9994,-2.9686,-2.8478,-2.8014,-2.7931,-2.7448,-2.7072,-2.6742,-2.6505,-2.6068,-2.5556,-2.5346,-2.513,-2.4966,-2.4766,-2.4725,-2.4775,-2.4848,-2.4805,-2.4631,-2.4301,-2.4626,-2.4903,-2.4559,-2.4774,-2.5005,-2.5005,-2.5005,-2.5005,-2.5005,-2.5005,-2.4948,-2.4835,-2.4363,-2.3754,-2.3027,-2.2101,-2.1313,-2.07,-2.0324,-2.0085,-2.0085,-2.0085,-2.0085,-2.0085,-2.0085,-2.0085,-2.0085,-2.0085,-2.0085,-2.0085,-1.9868,-2.0234,-2.1265,-2.0832,-2.0637,-2.0777,-2.0042,-1.9344,-3.7184,-3.7546,-3.7898,-3.7824,-3.7641,-3.7487,-3.7379,0.0,-3.6759,0.0,-3.6533,-3.6367,-3.6678,-3.6759,-3.6781,-3.686,-3.6693,-3.6453,-3.6131,-3.5668,-3.5153,-3.4648,-3.4138,-3.3934,-3.4178,-3.3665,-3.3437,-3.3762,-3.3807,-3.3895,-3.4099,-3.4302,-3.3974,-3.3004,-3.2743,-3.2114,-3.1044,-3.1124,-3.1972,-3.3587,-3.4213,-3.4976,-3.5869,-3.556,-3.5436,-3.5418,-3.5144,-3.3955,-3.2241,-3.25,-3.1407,-2.958,-2.9515,-2.9305,-2.8884,-2.8012,-2.7642,-2.7569,-2.7376,-2.7218,-2.7072,-2.6691,-2.628,-2.5872,-2.5481,-2.5208,-2.4966,-2.4806,-2.4589,-2.441,-2.4317,-2.4143,-2.3877,-2.3508,-2.3858,-2.434,-2.4354,-2.4693,-2.5005,-2.5005,-2.5005,-2.5005,-2.5005,-2.4878,-2.4821,-2.4778,-2.406,-2.3471,-2.3148,-2.199,-2.1123,-2.088,-2.0388,-2.0085,-2.0085,-2.0085,-2.0085,-2.0085,-2.0085,-2.0085,-2.0085,-2.0085,-2.0009,-1.9868,-1.9997,-2.0407,-2.1188,-2.0287,-2.0072,-2.0342,-1.914,-1.8247,-3.6358,-3.6097,-3.6028,-3.6761,-3.6434,-3.6098,-3.6781,0.0,-3.6343,-3.6343,-3.6301,-3.6301,-3.6343,-3.6343,-3.6451,-3.6821,-3.6904,-3.6491,-3.5402,-3.5526,-3.5064,-3.3155,-3.321,-3.342,-3.3358,-3.3309,-3.3437,-3.3762,-3.3807,-3.3807,-3.3815,-3.4074,-3.3478,-3.1838,-3.2023,-3.1467,-3.0083,-3.1996,-3.3436,-3.434,-3.4456,-3.4951,-3.5781,-3.5014,-3.5009,-3.5524,-3.4461,-3.3448,-3.248,-3.1242,-3.0174,-2.9286,-2.8834,-2.8458,-2.8128,-2.78,-2.7539,-2.7313,-2.7282,-2.7055,-2.6657,-2.6245,-2.5872,-2.5481,-2.5146,-2.5005,-2.4926,-2.467,-2.4271,-2.3879,-2.3681,-2.3008,-2.232,-2.2273,-2.238,-2.2913,-2.4584,-2.4991,-2.5005,-2.5005,-2.5005,-2.5005,-2.5005,-2.465,-2.4292,-2.4189,-2.3734,-2.3017,-2.1865,-2.1616,-2.1187,-2.027,-2.014,-2.0085,-2.0085,-2.0085,-2.0085,-2.0085,-2.0085,-2.0085,-2.0085,-2.0085,-1.9868,-1.9365,-1.9682,-1.9944,-1.9986,-1.8971,-1.8424,-1.838,-1.8364,-1.7755,-3.5624,-3.5586,-3.5698,-3.5795,-3.5794,-3.5808,-3.5832,-3.6063,-3.6301,-3.6301,-3.6301,-3.6301,-3.6301,-3.6301,-3.6343,-3.6492,-3.6134,-3.5496,-3.4623,-3.4161,-3.348,-3.2301,-3.2299,-3.2441,-3.2654,-3.2669,-3.2813,-3.3136,-3.3379,-3.3379,-3.3166,-3.3625,-3.3051,-3.1232,-3.1566,-3.1389,-3.0593,-3.144,-3.2615,-3.4069,-3.433,-3.491,-3.5792,-3.5545,-3.5564,-3.5774,-3.5329,-3.4115,-3.2397,-3.139,-3.0321,-2.9293,-2.9104,-2.9208,-2.9395,-2.8915,-2.8676,-2.8529,-2.8132,-2.7614,-2.7023,-2.6624,-2.621,-2.5799,-2.5443,-2.5169,-2.4966,-2.4886,-2.463,-2.4271,-2.3894,-2.3231,-2.258,-2.2339,-2.2292,-2.259,-2.3648,-2.3865,-2.3987,-2.4367,-2.4435,-2.4557,-2.4937,-2.4593,-2.4292,-2.4234,-2.3233,-2.2261,-2.1877,-2.1135,-2.0518,-2.0151,-2.0085,-2.0085,-2.0085,-2.0085,-1.9933,-1.9584,-1.9584,-1.9452,-1.9121,-1.9054,-1.8977,-1.8767,-1.8602,-1.8963,-1.9809,-1.938,-1.8974,-1.8662,-1.8266,-1.7619,-3.4835,-3.4736,-3.4974,-3.5295,-3.5278,-3.5238,-3.5362,-3.5763,-3.6087,-3.5963,-3.6128,-3.6301,-3.6301,-3.6301,-3.6301,-3.6301,-3.5887,-3.5301,-3.4559,-3.4007,-3.3404,-3.2645,-3.2559,-3.2587,-3.2652,-3.2669,-3.2719,-3.2781,-3.3001,0.0,-3.2795,-3.3178,-3.2627,-3.0957,-3.0919,-3.0887,-3.0809,-3.145,-3.2458,-3.3834,-3.4376,-3.4863,-3.5274,-3.5389,-3.5253,-3.4908,-3.4613,-3.3945,-3.2981,-3.2349,-3.1353,-3.0217,-2.9874,-3.0046,-3.0385,-2.9728,-2.9326,-2.9124,-2.8704,-2.8014,-2.7218,-2.6842,-2.6436,-2.6016,-2.5615,-2.5269,-2.5005,-2.4942,-2.4726,-2.4369,-2.3736,-2.2995,-2.2348,-2.2046,-2.2007,-2.2065,-2.2318,-2.2839,-2.3297,-2.3689,-2.3717,-2.3783,-2.4375,-2.3945,-2.3593,-2.38,-2.2811,-2.1963,-2.1827,-2.1019,-2.0399,-2.027,-2.0151,-2.0085,-2.0085,-2.0085,-1.9868,-1.9299,-1.9299,-1.9034,-1.8509,-1.8509,-1.8442,-1.824,-1.8047,-1.8257,-1.9033,-1.8582,-1.8473,-1.8452,-1.7755,-1.7187,0.0,0.0,0.0,-3.5245,-3.4792,-3.4317,-3.5485,0.0,-3.5622,-3.5302,-3.5825,-3.6301,-3.6301,-3.6284,-3.6266,-3.6301,-3.6301,-3.6042,-3.5301,-3.5197,-3.4921,-3.418,-3.4093,-3.3921,-3.3439,-3.3387,-3.323,-3.282,-3.2781,-3.2763,-3.2763,-3.2745,-3.2187,-3.0902,-3.0043,-2.9893,-3.0562,-3.2057,-3.3081,-3.3633,-3.4572,-3.473,-3.4156,-3.4367,-3.3936,-3.2964,-3.2254,-3.2824,-3.4253,-3.3925,-3.3099,-3.1936,-3.0945,-3.0733,-3.0876,-3.0087,-2.9428,-2.8916,-2.8916,-2.8216,-2.7218,-2.6842,-2.6436,-2.6016,-2.5615,-2.5269,-2.4966,-2.4822,-2.4564,-2.4078,-2.3201,-2.2175,-2.1423,-2.1423,-2.1375,-2.1264,-2.0908,-2.2028,-2.3134,-2.3148,-2.2818,-2.2722,-2.3247,-2.2674,-2.2297,-2.2797,-2.2482,-2.2049,-2.1726,-2.1411,-2.1031,-2.0635,-2.0259,-2.0074,-2.0074,-2.0074,-1.9802,-1.9299,-1.9233,-1.9034,-1.8442,-1.8442,-1.824,-1.7706,-1.8031,-1.8029,-1.7477,-1.6701,-1.673,-1.7371,-1.661,-1.6404,-3.5073,0.0,0.0,0.0,0.0,0.0,0.0,0.0,-3.6038,-3.5622,-3.6195,-3.6638,-3.6326,-3.5852,-3.568,-3.6215,-3.6301,-3.6042,-3.5301,-3.5197,-3.4921,-3.418,-3.4093,-3.4029,-3.3921,-3.3384,-3.2988,0.0,-3.2616,-3.2335,-3.2073,-3.174,-3.1164,-3.0287,-2.969,-2.9485,-2.9673,-3.0485,-3.1265,-3.2061,-3.2887,-3.3234,-3.3122,-3.3372,-3.3359,-3.3122,-3.2938,-3.3099,-3.3394,-3.1903,-3.1015,-3.0525,-3.0058,-3.0193,-3.0567,-2.9955,-2.9493,-2.9136,-2.8916,-2.8154,-2.7218,-2.6842,-2.6436,-2.6016,-2.5615,-2.5269,-2.4926,-2.4661,-2.4302,-2.3752,-2.2694,-2.1921,-2.1423,-2.1423,-2.1166,-2.0957,-2.0795,-2.0922,-2.1185,-2.1603,-2.1562,-2.169,-2.2315,-2.2236,-2.216,-2.2322,-2.2031,-2.1726,-2.1348,-2.1019,-2.0646,-2.027,-1.9791,-1.9518,-1.9518,-1.9187,-1.871,-1.8172,-1.8172,-1.7901,-1.7373,-1.7373,-1.7235,-1.7107,-1.7209,-1.7204,-1.7073,-1.7442,-1.7685,-1.7856,-1.7351,-1.6831,0.0,0.0,0.0,0.0,0.0,0.0,-3.4146,-3.4921,-3.554,0.0,-3.5975,-3.6365,-3.6127,-3.5596,-3.5335,-3.5766,-3.5835,-3.5801,-3.568,-3.5663,-3.549,-3.5059,-3.5007,-3.4887,-3.4576,-3.3852,-3.3266,-3.2938,-3.2418,-3.2001,-3.18,-3.1237,-3.066,-3.0021,-2.9593,-2.9372,-2.928,-2.98,-3.0501,-3.136,-3.182,-3.2027,-3.1962,-3.2237,-3.2174,-3.188,-3.2044,-3.2124,-3.2029,-3.088,-3.0673,-3.0983,-3.0506,-3.0603,-3.0954,-3.0656,-3.0329,-2.995,-2.9615,-2.8838,-2.7851,-2.719,-2.6573,-2.6068,-2.5835,-2.5384,-2.4926,-2.458,-2.3952,-2.3187,-2.2249,-2.1698,-2.1423,-2.1423,-2.1104,-2.0759,-2.061,-2.022,-2.0118,-2.0604,-2.0615,-2.0676,-2.1234,-2.1213,-2.1227,-2.1448,-2.1548,-2.1531,-2.1295,-2.1032,-2.0775,-2.0593,-1.9781,-1.9299,-1.9299,-1.8834,-1.824,-1.7706,-1.7706,-1.7442,-1.6908,-1.6908,-1.6908,-1.6908,-1.6908,-1.6826,-1.6661,-1.7009,-1.6993,-1.6623,-1.669,-1.642,0.0,0.0,0.0,0.0,-3.4495,0.0,-3.4364,-3.4564,-3.4767,0.0,-3.5438,-3.5674,-3.5691,-3.5331,-3.5077,-3.514,-3.514,-3.5393,-3.618,-3.6301,-3.6301,-3.6301,-3.6301,-3.6008,-3.5266,-3.4525,-3.3766,-3.2955,-3.2214,-3.18,-3.1763,-3.1126,-3.0508,-2.9964,-2.9609,-2.9325,-2.9136,-2.9497,-3.0107,-3.0888,-3.0962,-3.0868,-3.0695,-3.0945,-3.0662,-2.9994,-3.0366,-3.0555,-3.0574,-3.0597,-3.128,-3.2199,-3.1446,-3.1312,-3.1517,-3.1448,-3.1146,-3.0704,-3.0363,-2.958,-2.8596,-2.7615,-2.6775,-2.6104,-2.6104,-2.5572,-2.4846,-2.4441,-2.3566,-2.2572,-2.1935,-2.1602,-2.1361,-2.1313,-2.1006,-2.056,-2.022,-1.9823,-1.9668,-1.9978,-1.9772,-1.9661,-2.0143,-2.0007,-1.9937,-2.0463,-2.1007,-2.1344,-2.1284,-2.1233,-2.1158,-2.1019,-1.9901,-1.9166,-1.91,-1.8633,-1.8104,-1.7638,-1.7638,-1.7373,-1.6908,-1.6908,-1.6908,-1.6908,-1.6862,-1.667,-1.6245,-1.5964,-1.5421,-1.4673,-1.5375,-1.5702,0.0,0.0,0.0,0.0,0.0,0.0,-3.4202,-3.4989,-3.5707,0.0,-3.5213,-3.5502,-3.4937,-3.4499,-3.4341,-3.4646,-3.4731,-3.5087,-3.6153,-3.6301,-3.6301,-3.6301,-3.6301,-3.6008,-3.5266,-3.4525,-3.3766,-3.2955,-3.2214,-3.1671,-3.1411,-3.1236,-3.0734,-2.9783,-2.91,-2.8571,-2.8201,-2.7947,-2.8014,-2.8408,-2.8799,-2.9077,-2.9285,-2.9524,-2.9662,-2.9779,-3.0016,-3.0205,-3.0377,-3.0531,-3.0741,-3.0925,-3.0449,-3.0316,-3.0361,-2.9924,-2.9566,-2.9247,-2.8739,-2.8308,-2.7864,-2.7442,-2.6775,-2.6104,-2.6104,-2.5422,-2.4441,-2.361,-2.2994,-2.2509,-2.1935,-2.1541,-2.1188,-2.0957,-2.0359,-1.9811,-1.9708,-1.9408,-1.9146,-1.9198,-1.9146,-1.9129,-1.9238,-1.9558,-1.9817,-1.9925,-2.0767,-2.1224,-2.0656,-2.0973,-2.0828,-1.977,-1.9034,-1.8499,-1.8037,-1.7501,-1.7176,-1.7038,-1.7038,-1.7038,-1.6908,-1.6908,-1.6908,-1.6908,-1.6597,-1.6251,-1.5815,-1.5828,-1.5522,-1.5068,-1.5526,-1.5575,0.0,0.0,0.0,-3.6016,0.0,0.0,0.0,-3.4833,-3.4981,-3.479,-3.4921,-3.4975,-3.4613,-3.4242,-3.4051,-3.427,-3.4641,-3.5082,-3.5615,-3.5717,-3.5611,-3.5249,-3.5197,-3.5059,-3.468,-3.3938,-3.3124,-3.2158,-3.1747,-3.1411,-3.1083,-3.1044,-3.0628,-2.975,-2.9365,-2.8665,-2.7719,-2.7487,-2.7429,-2.7487,-2.7741,-2.8085,-2.8511,-2.8717,-2.8978,-2.9306,-2.9542,-2.9842,-3.0171,-3.0393,-3.0552,-3.0624,-3.0387,-3.02,-3.0069,-3.0194,-3.0016,-2.9628,-2.9234,-2.882,-2.8399,-2.7722,-2.6856,-2.6104,-2.6104,-2.5237,-2.4109,-2.3377,-2.2799,-2.2278,-2.1746,-2.1299,-2.0993,-2.0845,-2.0207,-1.9617,-1.9617,-1.9303,-1.8934,-1.8602,-1.8536,-1.8655,-1.8934,-1.8988,-1.8924,-1.8924,-1.9599,-1.9901,-1.9454,-1.9902,-1.9966,-1.9243,-1.8509,-1.7969,-1.7706,-1.7245,-1.6908,-1.6908,-1.6908,-1.6908,-1.6908,-1.6908,-1.6908,-1.6908,-1.6312,-1.6035,-1.6026,-1.4828,-1.4323,-1.4404,-1.4805,-1.4864,0.0,0.0,0.0,0.0,0.0,-3.5857,0.0,0.0,0.0,-3.4751,-3.4621,-3.4418,-3.4292,-3.4096,-3.3956,0.0,0.0,0.0,0.0,-3.4865,0.0,-3.4436,-3.4219,-3.4093,-3.4093,-3.3193,-3.2231,-3.1385,-3.1257,-3.1044,-3.0707,-3.0707,-3.0416,-2.9769,-2.9603,-2.8971,-2.7848,-2.7564,-2.7382,-2.7321,-2.7247,-2.7452,-2.7946,-2.8165,-2.8449,-2.8753,-2.901,-2.9399,-2.9821,-3.0121,-3.0399,-3.0594,-3.0604,-3.0397,-3.0188,-3.0753,-3.0711,-3.0302,-2.9978,-2.9566,-2.8987,-2.8012,-2.6952,-2.6052,-2.5855,-2.4965,-2.3882,-2.329,-2.2709,-2.2137,-2.1568,-2.1104,-2.0759,-2.0597,-2.0003,-1.946,-1.946,-1.9251,-1.8881,-1.8375,-1.8201,-1.8201,-1.859,-1.8267,-1.7963,-1.8054,-1.8411,-1.8648,-1.847,-1.8977,-1.9177,-1.8844,-1.8104,-1.7638,-1.7569,-1.7176,-1.6908,-1.6908,-1.6908,-1.6872,-1.6798,-1.6716,-1.6716,-1.6789,-1.5991,-1.567,-1.5876,-1.387,-1.3181,-1.3813,-1.3747,-1.3913,0.0,0.0,0.0,0.0,-3.7634,0.0,0.0,0.0,-3.525,-3.4457,0.0,-3.4057,-3.3535,0.0,0.0,0.0,0.0,0.0,-3.3593,-3.3874,-3.45,-3.5419,-3.4671,-3.4093,-3.4093,-3.2518,-3.1419,-3.1295,-3.1004,-3.0707,-3.0377,-3.0335,-3.0192,-2.9876,-2.9241,-2.8943,-2.9008,-2.7778,-2.7251,-2.7461,-2.7063,-2.7051,-2.7409,-2.7666,-2.7936,-2.8192,-2.8413,-2.875,-2.9137,-2.9534,-2.9901,-3.0279,-3.0508,-3.057,-3.049,-3.0241,-2.9991,-2.9718,-2.9222,-2.8888,-2.8582,-2.7922,-2.6952,-2.5928,-2.4996,-2.4364,-2.3855,-2.3157,-2.2752,-2.2417,-2.1746,-2.1104,-2.0459,-1.9862,-1.9408,-1.9093,-1.9093,-1.904,-1.8987,-1.8934,-1.8483,-1.7929,-1.7479,-1.7368,-1.7456,-1.7838,-1.8386,-1.8707,-1.8733,-1.9049,-1.8977,-1.8202,-1.7852,-1.751,-1.7038,-1.6908,-1.6908,-1.6908,-1.6908,-1.6752,-1.6395,-1.6028,-1.6001,-1.6376,-1.5588,-1.4926,-1.4323,-1.3545,-1.3605,-1.4425,-1.3095,-1.3055,0.0,0.0,0.0,0.0,0.0,0.0,-3.6917,0.0,-3.5454,0.0,0.0,0.0,0.0,0.0,0.0,0.0,-3.4504,0.0,0.0,0.0,-3.416,0.0,0.0,0.0,-3.2786,-3.2049,-3.1428,-3.1044,-3.0885,-3.0601,-3.0087,-3.0087,-3.0017,-2.9902,-2.961,-2.9296,-2.8983,-2.7972,-2.741,-2.7247,-2.6628,-2.6505,-2.6791,-2.7068,-2.7365,-2.7648,-2.7872,-2.8234,-2.8682,-2.9098,-2.9496,-2.9883,-3.023,-3.0447,-3.0524,-3.0354,-3.012,-2.9807,-2.9457,-2.8938,-2.834,-2.7439,-2.6657,-2.5944,-2.5051,-2.442,-2.3855,-2.3187,-2.2828,-2.2509,-2.2044,-2.1299,-2.051,-2.0258,-1.9319,-1.8483,-1.8483,-1.8201,-1.7875,-1.7479,-1.7257,-1.6866,-1.6255,-1.6472,-1.6761,-1.6963,-1.7113,-1.7216,-1.7403,-1.767,-1.7684,-1.7226,-1.7241,-1.6775,-1.5695,-1.5863,-1.5685,-1.5112,-1.5382,-1.5379,-1.4805,-1.4989,-1.5186,-1.5354,-1.4797,-1.4567,-1.4731,-1.3572,-1.3275,-1.3834,-1.2833,-1.26,-4.0099,0.0,0.0,0.0,0.0,0.0,0.0,0.0,0.0,0.0,0.0,0.0,0.0,0.0,-3.4986,0.0,0.0,-3.5157,0.0,-3.4301,0.0,0.0,0.0,0.0,0.0,-3.1783,-3.1466,-3.0965,-3.0764,-3.0477,-3.0017,-2.9946,-2.9918,-2.9918,-2.9918,-2.9659,-2.9097,-2.8075,-2.7429,-2.724,-2.629,-2.5977,-2.6279,-2.659,-2.6873,-2.7178,-2.7382,-2.7747,-2.8252,-2.8668,-2.906,-2.9463,-2.9967,-3.0276,-3.0428,-3.0468,-3.0308,-3.0013,-2.9746,-2.9058,-2.8174,-2.7344,-2.664,-2.598,-2.5243,-2.4542,-2.3855,-2.3083,-2.2646,-2.2278,-2.1827,-2.1055,-2.0359,-2.0271,-1.9267,-1.8321,-1.8147,-1.7765,-1.7257,-1.6641,-1.6415,-1.614,-1.569,-1.5853,-1.6124,-1.6257,-1.6148,-1.6221,-1.6461,-1.6605,-1.659,-1.6525,-1.6529,-1.6129,-1.5085,-1.5089,-1.4714,-1.3776,-1.4073,-1.4073,-1.3693,-1.3973,-1.4182,-1.4284,-1.3849,-1.379,-1.4148,-1.2932,-1.2416,-1.2439,-1.2204,-1.22,0.0,0.0,0.0,-4.0233,0.0,0.0,0.0,0.0,-3.7451,0.0,0.0,0.0,-3.5764,-3.6311,-3.6372,0.0,0.0,0.0,0.0,0.0,0.0,0.0,0.0,0.0,0.0,-3.1694,-3.1295,0.0,-3.0666,-3.0293,-3.0293,-3.006,-2.9918,-2.9918,-2.9918,-2.9902,-2.987,-2.8019,-2.7301,-2.7656,-2.6089,-2.5561,-2.601,-2.6279,-2.6556,-2.6825,-2.6825,-2.7164,-2.7771,-2.8226,-2.8615,-2.9,-2.9794,-3.0147,-3.0231,-3.0368,-3.0315,-3.0155,-2.9794,-2.9003,-2.8084,-2.8075,-2.7155,-2.5964,-2.5309,-2.4592,-2.3754,-2.254,-2.203,-2.1602,-2.0709,-2.0156,-1.9708,-1.9328,-1.9105,-1.8827,-1.8213,-1.8093,-1.7875,-1.7313,-1.6698,-1.6301,-1.6255,-1.5806,-1.5547,-1.6037,-1.6115,-1.6221,-1.6607,-1.6402,-1.6211,-1.6211,-1.5909,-1.5716,-1.5689,-1.505,-1.4453,-1.376,-1.338,-1.3348,-1.3677,-1.2972,-1.2773,-1.3132,-1.2656,-1.205,-1.1394,-1.1295,-1.0916,-1.0353,-1.1075,-1.1789,0.0,0.0,-4.0194,-4.0285,0.0,0.0,0.0,0.0,0.0,0.0,0.0,0.0,0.0,0.0,0.0,0.0,0.0,0.0,0.0,0.0,0.0,0.0,0.0,0.0,0.0,0.0,0.0,0.0,-3.018,0.0,-2.9601,-2.9799,-2.9918,-2.9918,-2.9918,-2.9918,-2.9918,-2.8035,-2.7316,-2.7688,-2.5886,-2.5269,-2.5749,-2.601,-2.6279,-2.6556,-2.6708,-2.7038,-2.7465,-2.8002,-2.8348,-2.8638,-2.9439,-2.9918,-3.0172,-3.0385,-3.0466,-3.038,-2.9668,-2.8941,-2.8128,-2.7102,-2.633,-2.5542,-2.4385,-2.3856,-2.3465,-2.2828,-2.2324,-2.1841,-2.1554,-2.0408,-1.9282,-1.919,-1.8167,-1.7146,-1.6978,-1.6585,-1.6244,-1.6026,-1.5853,-1.569,-1.569,-1.5526,-1.5459,-1.5605,-1.5635,-1.5671,-1.5656,-1.5401,-1.5213,-1.5151,-1.481,-1.4298,-1.3664,-1.2624,-1.1875,-1.1682,-1.1892,-1.1948,-1.1675,-1.1781,-1.1902,-1.2022,-1.1847,-1.1732,-1.1615,-1.16,-1.1247,-1.0526,-1.0791,-1.1025,-4.0177,-4.023,0.0,-4.0367,-4.0266,0.0,-3.9581,0.0,-3.9278,0.0,0.0,0.0,0.0,0.0,0.0,0.0,0.0,0.0,0.0,-3.4668,0.0,0.0,0.0,0.0,0.0,0.0,-3.1272,-3.0691,-3.0197,-2.9822,0.0,-2.9713,-2.977,-2.977,-2.9665,-2.9621,-2.9621,-2.7803,-2.7024,-2.7201,-2.5696,-2.5115,-2.5355,-2.5696,-2.601,-2.6279,-2.6556,-2.6775,-2.7023,-2.7695,-2.7984,-2.8103,-2.9008,-2.9549,-2.9888,-3.0331,-3.0495,-3.0401,-2.9764,-2.9091,-2.8275,-2.6952,-2.6016,-2.517,-2.3734,-2.3262,-2.305,-2.2243,-2.1895,-2.1684,-2.1348,-2.027,-1.923,-1.8967,-1.795,-1.6866,-1.6415,-1.5968,-1.5633,-1.5468,-1.541,-1.541,-1.541,-1.541,-1.541,-1.541,-1.541,-1.5332,-1.5242,-1.4784,-1.4487,-1.4426,-1.3823,-1.314,-1.2251,-1.1421,-1.0807,-1.0624,-1.0933,-1.0996,-1.0624,-1.0989,-1.1277,-1.1432,-1.1157,-1.1157,-1.151,-1.1157,-1.0712,-1.0255,-1.035,-1.0436]},{"header":{"parameterUnit":"m.s-1","parameterCategory":1,"la1":30.6,"la2":29.2853,"lo1":-89.7004,"lo2":-87.6739,"dy":0.0162,"dx":0.0183,"nx":112,"ny":82,"refTime":"2023-05-26T12:00:00:Z","depth":0,"parameterNumber":3,"parameterNumberName":"V-component_of_WINDS"},"data":[0.0,0.0,0.0,0.0,0.0,0.0,0.0,0.0,0.0,0.0,0.0,0.0,0.0,0.0,0.0,0.0,0.0,0.0,0.0,0.0,0.0,0.0,0.0,0.0,0.0,0.0,0.0,0.0,0.0,0.0,0.0,0.0,0.0,0.0,0.0,0.0,0.0,0.0,0.0,0.0,0.0,0.0,0.0,0.0,0.0,0.0,0.0,0.0,0.0,0.0,0.0,0.0,0.0,0.0,0.0,0.0,0.0,0.0,0.0,0.0,0.0,0.0,0.0,0.0,0.0,0.0,0.0,0.0,0.0,0.0,0.0,0.0,0.0,0.0,0.0,0.0,0.0,0.0,0.0,0.0,0.0,0.0,0.0,0.0,0.0,0.0,0.0,0.0,0.0,0.0,-3.9547,-3.9345,-4.0611,-4.1429,-4.1148,-4.1325,-4.0772,-3.9188,0.0,0.0,0.0,0.0,0.0,0.0,0.0,0.0,0.0,0.0,0.0,0.0,0.0,0.0,0.0,0.0,0.0,0.0,0.0,0.0,0.0,0.0,0.0,0.0,0.0,0.0,0.0,0.0,0.0,0.0,0.0,0.0,0.0,0.0,0.0,0.0,0.0,0.0,0.0,0.0,0.0,0.0,0.0,0.0,0.0,0.0,0.0,0.0,0.0,0.0,0.0,0.0,0.0,0.0,0.0,0.0,0.0,0.0,0.0,0.0,0.0,0.0,0.0,0.0,0.0,0.0,0.0,0.0,0.0,0.0,0.0,0.0,0.0,0.0,0.0,0.0,0.0,0.0,0.0,0.0,0.0,0.0,0.0,0.0,0.0,0.0,0.0,0.0,0.0,0.0,0.0,0.0,0.0,0.0,0.0,0.0,0.0,0.0,0.0,0.0,0.0,0.0,0.0,0.0,-3.7918,-3.9216,-3.915,-3.9537,-4.0955,-4.0113,-3.9261,-3.8656,0.0,0.0,0.0,0.0,0.0,0.0,0.0,0.0,0.0,0.0,0.0,0.0,0.0,0.0,0.0,0.0,0.0,0.0,0.0,0.0,0.0,0.0,0.0,0.0,0.0,0.0,0.0,0.0,0.0,0.0,0.0,0.0,0.0,0.0,0.0,0.0,0.0,0.0,0.0,0.0,0.0,0.0,0.0,0.0,0.0,0.0,0.0,0.0,0.0,0.0,0.0,0.0,0.0,0.0,0.0,0.0,0.0,0.0,0.0,0.0,0.0,0.0,0.0,0.0,0.0,0.0,0.0,0.0,0.0,0.0,0.0,0.0,0.0,0.0,0.0,0.0,0.0,0.0,0.0,0.0,0.0,0.0,0.0,0.0,0.0,0.0,0.0,0.0,0.0,0.0,0.0,0.0,0.0,0.0,0.0,0.0,0.0,0.0,0.0,0.0,0.0,0.0,0.0,-3.7456,-3.7277,-3.9218,-3.9468,-3.9566,-3.9656,-3.9772,-3.916,-3.7694,-3.8585,0.0,0.0,0.0,0.0,0.0,0.0,0.0,0.0,0.0,0.0,0.0,0.0,0.0,0.0,0.0,0.0,0.0,0.0,0.0,0.0,0.0,0.0,0.0,0.0,0.0,0.0,0.0,0.0,0.0,0.0,0.0,0.0,0.0,0.0,0.0,0.0,0.0,0.0,0.0,0.0,0.0,0.0,0.0,0.0,0.0,0.0,0.0,0.0,0.0,0.0,0.0,0.0,0.0,0.0,0.0,0.0,0.0,0.0,0.0,0.0,0.0,0.0,0.0,0.0,0.0,0.0,0.0,0.0,0.0,0.0,0.0,0.0,0.0,0.0,0.0,0.0,0.0,0.0,0.0,0.0,0.0,0.0,0.0,0.0,0.0,0.0,0.0,0.0,0.0,0.0,0.0,0.0,0.0,0.0,0.0,0.0,0.0,0.0,0.0,0.0,0.0,0.0,-3.7405,-3.734,-3.876,-3.9575,-3.9606,-3.856,-3.9227,-3.8898,-3.6973,-3.722,0.0,0.0,0.0,0.0,0.0,0.0,0.0,0.0,0.0,0.0,0.0,0.0,0.0,0.0,0.0,0.0,0.0,0.0,0.0,0.0,0.0,0.0,0.0,0.0,0.0,0.0,0.0,0.0,0.0,0.0,0.0,0.0,0.0,0.0,0.0,0.0,0.0,0.0,0.0,0.0,0.0,0.0,0.0,0.0,0.0,0.0,0.0,0.0,0.0,0.0,0.0,0.0,0.0,0.0,0.0,0.0,0.0,0.0,0.0,0.0,0.0,0.0,0.0,0.0,0.0,0.0,0.0,0.0,0.0,0.0,0.0,0.0,0.0,0.0,0.0,0.0,0.0,0.0,0.0,0.0,0.0,0.0,0.0,0.0,0.0,0.0,0.0,0.0,0.0,0.0,0.0,0.0,0.0,0.0,0.0,0.0,0.0,0.0,0.0,0.0,0.0,0.0,-3.7123,-3.8091,-3.7594,-3.8172,-3.8484,-3.8446,-3.791,-3.748,-3.7077,-3.6529,0.0,0.0,0.0,0.0,0.0,0.0,0.0,0.0,0.0,0.0,0.0,0.0,0.0,0.0,0.0,0.0,0.0,0.0,0.0,0.0,0.0,0.0,0.0,0.0,0.0,0.0,0.0,0.0,0.0,0.0,0.0,0.0,0.0,0.0,0.0,0.0,0.0,0.0,0.0,0.0,0.0,0.0,0.0,0.0,0.0,0.0,0.0,0.0,0.0,0.0,0.0,0.0,0.0,0.0,0.0,0.0,0.0,0.0,0.0,0.0,0.0,0.0,0.0,0.0,0.0,0.0,0.0,0.0,0.0,0.0,0.0,0.0,0.0,0.0,0.0,0.0,0.0,0.0,0.0,0.0,0.0,0.0,0.0,0.0,0.0,0.0,0.0,0.0,0.0,0.0,0.0,0.0,0.0,0.0,0.0,0.0,0.0,0.0,0.0,0.0,0.0,0.0,-3.6225,-3.6654,0.0,-3.7497,-3.7508,-3.7083,-3.7277,-3.6971,-3.6056,0.0,0.0,0.0,0.0,0.0,0.0,0.0,0.0,0.0,0.0,0.0,0.0,0.0,0.0,0.0,0.0,0.0,0.0,0.0,0.0,0.0,0.0,0.0,0.0,0.0,0.0,0.0,0.0,0.0,0.0,0.0,0.0,0.0,0.0,0.0,0.0,0.0,0.0,0.0,0.0,0.0,0.0,0.0,0.0,0.0,0.0,0.0,0.0,0.0,0.0,0.0,0.0,0.0,0.0,0.0,0.0,0.0,0.0,0.0,0.0,0.0,0.0,0.0,0.0,0.0,0.0,0.0,0.0,0.0,0.0,0.0,0.0,0.0,0.0,0.0,0.0,0.0,0.0,0.0,0.0,0.0,0.0,0.0,0.0,0.0,0.0,0.0,0.0,0.0,0.0,0.0,0.0,0.0,0.0,0.0,0.0,0.0,0.0,0.0,0.0,0.0,0.0,-3.5256,-3.548,-3.5761,0.0,-3.6923,-3.6923,-3.638,-3.6829,-3.6624,-3.537,0.0,0.0,0.0,0.0,0.0,0.0,0.0,0.0,0.0,0.0,0.0,0.0,0.0,0.0,0.0,0.0,0.0,0.0,0.0,0.0,0.0,0.0,0.0,0.0,0.0,0.0,0.0,0.0,0.0,0.0,0.0,0.0,0.0,0.0,0.0,0.0,0.0,0.0,0.0,0.0,0.0,0.0,0.0,0.0,0.0,0.0,0.0,0.0,0.0,0.0,0.0,0.0,0.0,0.0,0.0,0.0,0.0,0.0,0.0,0.0,0.0,0.0,0.0,0.0,0.0,0.0,0.0,0.0,0.0,0.0,0.0,0.0,0.0,0.0,0.0,0.0,0.0,0.0,0.0,0.0,0.0,0.0,0.0,0.0,0.0,0.0,0.0,0.0,0.0,0.0,0.0,0.0,0.0,0.0,0.0,0.0,0.0,0.0,0.0,0.0,0.0,0.0,-3.3456,-3.5013,-3.5925,-3.5343,-3.6417,-3.6994,-3.6514,-3.6477,-3.6155,0.0,0.0,0.0,0.0,0.0,0.0,0.0,0.0,0.0,0.0,0.0,0.0,0.0,0.0,0.0,0.0,0.0,0.0,0.0,0.0,0.0,0.0,0.0,0.0,0.0,0.0,0.0,0.0,0.0,0.0,0.0,0.0,0.0,0.0,0.0,0.0,0.0,0.0,0.0,0.0,0.0,0.0,0.0,0.0,0.0,0.0,0.0,0.0,0.0,0.0,0.0,0.0,0.0,0.0,0.0,0.0,0.0,0.0,0.0,0.0,0.0,0.0,0.0,0.0,0.0,0.0,0.0,0.0,0.0,0.0,0.0,0.0,0.0,0.0,0.0,0.0,0.0,0.0,0.0,0.0,0.0,0.0,0.0,0.0,0.0,0.0,0.0,0.0,0.0,0.0,0.0,0.0,0.0,0.0,0.0,0.0,0.0,0.0,0.0,0.0,0.0,0.0,0.0,-3.3691,-3.4183,-3.4477,-3.4492,-3.5184,-3.5524,-3.5302,-3.5629,-3.5479,-3.4768,0.0,0.0,0.0,0.0,0.0,0.0,0.0,0.0,0.0,0.0,0.0,0.0,0.0,0.0,0.0,0.0,0.0,0.0,0.0,0.0,0.0,0.0,0.0,0.0,0.0,0.0,0.0,0.0,0.0,0.0,0.0,0.0,0.0,0.0,0.0,0.0,0.0,0.0,0.0,0.0,0.0,0.0,0.0,0.0,0.0,0.0,0.0,0.0,0.0,0.0,0.0,0.0,0.0,0.0,0.0,0.0,0.0,0.0,0.0,0.0,0.0,0.0,0.0,0.0,0.0,0.0,0.0,0.0,0.0,0.0,0.0,0.0,0.0,0.0,0.0,0.0,0.0,0.0,0.0,0.0,0.0,0.0,0.0,0.0,0.0,0.0,0.0,0.0,0.0,0.0,0.0,0.0,0.0,0.0,0.0,0.0,0.0,0.0,0.0,0.0,0.0,0.0,-3.222,-3.2837,-3.3203,-3.3247,-3.3947,-3.4508,-3.4591,-3.5141,-3.51,-3.4143,0.0,0.0,0.0,0.0,0.0,0.0,0.0,0.0,0.0,0.0,0.0,0.0,0.0,0.0,0.0,0.0,0.0,0.0,0.0,0.0,0.0,0.0,0.0,0.0,0.0,0.0,0.0,0.0,0.0,0.0,0.0,0.0,0.0,0.0,0.0,0.0,0.0,0.0,0.0,0.0,0.0,0.0,0.0,0.0,0.0,0.0,0.0,0.0,0.0,0.0,0.0,0.0,0.0,0.0,0.0,0.0,0.0,0.0,0.0,0.0,0.0,0.0,0.0,0.0,0.0,0.0,0.0,0.0,0.0,0.0,0.0,0.0,0.0,0.0,0.0,0.0,0.0,0.0,0.0,0.0,0.0,0.0,0.0,0.0,0.0,0.0,0.0,0.0,0.0,0.0,0.0,0.0,0.0,0.0,0.0,0.0,0.0,0.0,0.0,0.0,0.0,0.0,-2.9907,-3.1256,-3.2182,-3.1797,-3.2937,-3.3874,-3.4153,-3.4986,-3.4951,-3.3664,0.0,0.0,0.0,0.0,0.0,0.0,0.0,0.0,0.0,0.0,0.0,0.0,0.0,0.0,0.0,0.0,0.0,0.0,0.0,0.0,0.0,0.0,0.0,0.0,0.0,0.0,0.0,0.0,0.0,0.0,0.0,0.0,0.0,0.0,0.0,0.0,0.0,0.0,0.0,0.0,0.0,0.0,0.0,0.0,0.0,0.0,0.0,0.0,0.0,0.0,0.0,0.0,0.0,0.0,0.0,0.0,0.0,0.0,0.0,0.0,-2.4456,0.0,0.0,0.0,0.0,0.0,0.0,0.0,0.0,0.0,0.0,0.0,0.0,0.0,0.0,0.0,0.0,0.0,0.0,0.0,0.0,0.0,0.0,0.0,0.0,0.0,0.0,0.0,0.0,0.0,0.0,0.0,0.0,0.0,0.0,0.0,0.0,0.0,0.0,0.0,0.0,0.0,-3.0085,-3.0924,-3.1384,-3.1112,-3.2739,-3.3659,-3.3227,-3.4624,-3.5145,-3.4322,-3.3892,0.0,0.0,0.0,0.0,0.0,0.0,0.0,0.0,0.0,0.0,0.0,0.0,0.0,0.0,0.0,0.0,0.0,0.0,0.0,0.0,0.0,0.0,0.0,0.0,0.0,0.0,0.0,0.0,0.0,0.0,0.0,0.0,0.0,0.0,0.0,0.0,0.0,0.0,0.0,0.0,0.0,0.0,0.0,0.0,0.0,0.0,0.0,0.0,0.0,0.0,0.0,0.0,0.0,0.0,0.0,0.0,0.0,0.0,0.0,0.0,-2.4799,0.0,0.0,0.0,0.0,0.0,0.0,0.0,0.0,0.0,0.0,0.0,0.0,0.0,0.0,0.0,0.0,0.0,0.0,0.0,0.0,0.0,0.0,0.0,0.0,0.0,0.0,0.0,0.0,0.0,0.0,0.0,0.0,0.0,0.0,0.0,0.0,0.0,0.0,0.0,0.0,-2.9181,-2.9948,-3.0584,-3.0649,-3.2165,-3.3181,-3.3073,-3.4558,-3.5205,-3.4517,-3.4158,0.0,0.0,0.0,0.0,0.0,0.0,0.0,0.0,0.0,0.0,0.0,0.0,0.0,0.0,0.0,0.0,0.0,0.0,0.0,0.0,0.0,0.0,0.0,0.0,0.0,0.0,0.0,0.0,0.0,0.0,0.0,0.0,0.0,0.0,0.0,0.0,0.0,0.0,0.0,0.0,0.0,0.0,0.0,0.0,0.0,0.0,0.0,0.0,0.0,0.0,0.0,0.0,0.0,-2.2857,-2.3143,-2.39,-2.3877,-2.404,-2.4349,-2.4796,-2.4995,-2.5009,-2.5892,0.0,0.0,0.0,0.0,0.0,0.0,0.0,0.0,0.0,0.0,0.0,0.0,0.0,0.0,0.0,0.0,0.0,0.0,0.0,0.0,0.0,0.0,0.0,0.0,-3.4182,-3.4359,-3.4997,0.0,0.0,0.0,0.0,0.0,0.0,0.0,0.0,0.0,0.0,0.0,-2.8381,-2.9227,-3.0011,-3.0368,-3.1769,-3.2834,-3.3143,-3.4572,-3.5265,-3.4696,-3.4547,-3.4226,0.0,0.0,0.0,0.0,0.0,0.0,0.0,0.0,0.0,0.0,0.0,0.0,0.0,0.0,0.0,0.0,0.0,0.0,0.0,0.0,0.0,0.0,0.0,0.0,0.0,0.0,0.0,0.0,0.0,0.0,0.0,0.0,-2.7105,-2.6367,0.0,0.0,0.0,0.0,0.0,0.0,0.0,0.0,0.0,0.0,0.0,0.0,0.0,-2.2336,-2.1603,-2.2461,-2.2829,-2.2883,-2.2481,-2.3161,-2.4849,-2.4193,-2.4398,-2.5247,-2.5488,0.0,-2.4572,-2.5061,0.0,0.0,0.0,0.0,0.0,0.0,0.0,0.0,0.0,0.0,0.0,0.0,0.0,0.0,0.0,0.0,0.0,0.0,0.0,0.0,0.0,0.0,-3.3367,-3.3367,-3.3367,-3.3561,0.0,-3.4105,-3.3471,-3.2669,-3.2053,0.0,0.0,0.0,0.0,0.0,0.0,0.0,-2.8961,-2.9669,-3.0228,-3.0622,-3.2001,-3.2961,-3.3213,-3.4572,-3.5474,-3.537,-3.4801,-3.446,-3.4343,-3.498,0.0,0.0,0.0,0.0,0.0,0.0,0.0,0.0,0.0,0.0,0.0,0.0,0.0,0.0,0.0,0.0,0.0,0.0,0.0,0.0,0.0,0.0,0.0,0.0,0.0,0.0,0.0,0.0,0.0,-2.654,-2.5594,-2.5327,-2.4909,-2.4323,0.0,0.0,0.0,0.0,0.0,0.0,0.0,0.0,0.0,-2.1766,-2.1731,-2.164,-2.1676,-2.2008,-2.2372,-2.2788,-2.2963,-2.344,-2.4181,-2.4724,-2.4984,-2.4946,-2.5788,-2.5742,-2.5107,-2.4864,-2.4865,-2.5109,0.0,0.0,0.0,0.0,-2.8542,-2.9484,-2.9549,-2.9935,-3.0532,-3.1044,0.0,0.0,0.0,0.0,0.0,0.0,0.0,0.0,0.0,0.0,-3.2577,-3.2577,-3.2577,-3.2648,-3.303,-3.2891,-3.2665,0.0,-3.2459,-3.1881,-3.0093,0.0,0.0,0.0,0.0,-2.8859,-2.9174,-3.0209,-3.1022,-3.132,-3.2635,-3.3602,-3.3822,-3.4854,-3.5504,-3.5504,-3.522,-3.4876,-3.4487,-3.5002,-3.5154,0.0,0.0,0.0,0.0,0.0,0.0,0.0,0.0,0.0,0.0,0.0,0.0,0.0,0.0,0.0,0.0,0.0,0.0,0.0,0.0,0.0,0.0,0.0,0.0,0.0,0.0,0.0,0.0,-2.4682,-2.3949,-2.4095,-2.3712,-2.2947,0.0,0.0,0.0,0.0,0.0,0.0,-2.1951,-2.1465,-2.122,-2.1387,-2.1328,-2.1404,-2.1534,-2.1626,-2.2053,-2.2728,-2.2884,-2.3472,-2.4251,-2.5151,-2.5477,-2.5274,-2.6121,-2.624,-2.5684,-2.4902,-2.4742,-2.5104,-2.4805,-2.5508,-2.6673,-2.7056,-2.7742,-2.8462,-2.8712,-2.8961,-2.9197,-3.0012,-3.0317,-3.0545,-3.1281,0.0,0.0,0.0,0.0,-3.1516,-3.1516,-3.1649,-3.1783,-3.1783,-3.1783,-3.1856,-3.2074,-3.1928,-3.1866,0.0,-3.25,-3.1985,-2.9875,0.0,0.0,0.0,0.0,-2.9188,-2.9478,-3.0524,-3.1368,-3.1796,-3.3059,-3.3959,-3.4245,-3.5052,-3.5504,-3.5504,-3.5504,-3.528,-3.4756,-3.5261,-3.5517,-3.5269,0.0,0.0,0.0,0.0,0.0,0.0,0.0,0.0,0.0,0.0,0.0,0.0,0.0,0.0,0.0,0.0,0.0,0.0,0.0,0.0,0.0,0.0,0.0,0.0,0.0,0.0,0.0,0.0,0.0,-2.1839,-2.2198,0.0,0.0,0.0,0.0,-2.1041,-2.1387,-2.159,-2.1394,-2.1653,-2.176,-2.1777,-2.2203,-2.1988,-2.0997,-2.1836,-2.2386,-2.2512,-2.17,-2.3079,-2.6354,-2.527,-2.5505,-2.6871,-2.6982,-2.6514,-2.5703,-2.5225,-2.5114,-2.51,-2.5035,-2.513,-2.533,-2.6673,-2.7325,-2.7718,-2.8542,-2.8961,-2.9131,-2.9419,-2.9599,-2.9869,-2.9856,-2.9934,0.0,0.0,-2.9921,-2.9934,-2.9934,-3.0419,-3.0957,-3.0957,-3.0957,-3.1193,-3.1928,-3.1489,-3.118,0.0,-3.1599,-3.0936,-3.0224,0.0,-2.9021,-2.8911,-2.89,-2.9265,-3.0253,-3.0419,-3.0872,-3.1942,-3.2791,-3.3561,-3.4245,-3.5052,-3.5504,-3.5504,-3.5504,-3.5489,-3.5459,-3.6024,-3.5999,-3.5308,-3.5808,0.0,0.0,0.0,0.0,0.0,0.0,0.0,0.0,0.0,0.0,0.0,0.0,0.0,0.0,0.0,0.0,0.0,0.0,0.0,0.0,0.0,0.0,0.0,0.0,0.0,0.0,0.0,0.0,-2.0721,-2.1506,0.0,-2.0751,-2.1428,-2.1611,-2.0821,-2.1057,-2.1155,-2.1242,-2.0965,-2.0933,-2.1368,-2.1393,-2.1342,-2.1451,-2.2007,-2.212,-2.2032,-2.2312,-2.281,-2.3446,-2.3999,-2.458,-2.5146,-2.5626,-2.5942,-2.6123,-2.5684,-2.5332,-2.5075,-2.4475,-2.4652,-2.5186,-2.6005,-2.6753,-2.7418,-2.8327,-2.8657,-2.8736,-2.9131,-2.9456,-2.9792,-2.9792,-2.9792,-2.9792,-2.9792,-2.9792,-2.9792,-2.9792,-2.9998,-3.0203,-3.0203,-3.0203,-3.0279,-3.0583,-3.0355,-3.0177,-3.008,-3.0564,-3.0506,-2.9087,-2.888,-2.873,-2.8019,-2.8391,-2.9048,-2.981,-3.0596,-3.1351,-3.2182,-3.3353,-3.4126,-3.4401,-3.5106,-3.5504,-3.5504,-3.51,-3.4846,-3.4846,-3.4663,-3.4592,-3.4737,-3.5282,-3.5316,0.0,0.0,0.0,0.0,0.0,0.0,0.0,0.0,0.0,0.0,0.0,0.0,0.0,0.0,0.0,0.0,0.0,0.0,0.0,0.0,0.0,0.0,0.0,0.0,0.0,0.0,-2.0027,-1.9834,-2.0988,-2.129,-2.034,-2.1254,-2.16,-2.0758,-2.0977,-2.1276,-2.1378,-2.1041,-2.1094,-2.1525,-2.1328,-2.1423,-2.1854,-2.1964,-2.1913,-2.1708,-2.222,-2.2371,-2.2213,-2.3562,-2.4336,-2.4709,-2.5628,-2.6237,-2.6562,-2.6133,-2.5781,-2.543,-2.456,-2.4574,-2.5106,-2.5443,-2.6154,-2.7073,-2.8158,-2.859,-2.8736,-2.8973,-2.9378,-2.9792,-2.9792,-2.9792,-2.9792,-2.9792,-2.9792,-2.9792,-2.9792,-2.9792,-2.9792,-2.9792,-2.9792,-2.9792,-2.9792,-2.9792,-2.9679,-2.9289,-2.9782,-2.974,-2.8333,-2.8411,-2.8398,-2.767,-2.8088,-2.8677,-2.9222,-3.0173,-3.1191,-3.2211,-3.3425,-3.4307,-3.4801,-3.5235,-3.54,-3.5175,-3.4726,-3.4382,-3.4158,-3.3724,-3.3713,-3.4103,-3.4379,-3.4729,-3.5018,0.0,0.0,0.0,0.0,0.0,0.0,0.0,0.0,0.0,0.0,0.0,0.0,0.0,0.0,0.0,0.0,0.0,0.0,0.0,0.0,0.0,0.0,0.0,-1.9233,-1.9163,-1.91,-1.9419,-2.0574,-2.0818,-1.9451,-2.1399,-2.223,-2.0895,-2.13,-2.1708,-2.1715,-2.2015,-2.2184,-2.2198,-2.2198,-2.2191,-2.2184,-2.1876,-2.1723,-2.1708,-2.1393,-2.1789,-2.3006,-2.4094,-2.5103,-2.5949,-2.7113,-2.7308,-2.7002,-2.6553,-2.6377,-2.6299,-2.541,-2.5068,-2.5055,-2.5166,-2.5696,-2.6742,-2.8022,-2.8749,-2.9052,-2.9052,-2.9378,-2.9792,-2.9792,-2.9792,-2.9792,-2.9792,-2.9792,-2.9792,-2.9792,-2.9792,-2.9792,-2.9792,-2.9792,-2.9792,-2.9792,-2.9792,-2.9779,-2.9767,-2.9315,-2.875,-2.8197,-2.8097,-2.8072,-2.8059,-2.8047,0.0,-2.8397,-2.9157,-3.0279,-3.1901,-3.2892,-3.3988,-3.535,-3.5474,-3.519,-3.4517,-3.4442,-3.4128,-3.3499,-3.344,-3.344,-3.3516,-3.3212,-3.3697,-3.4916,0.0,0.0,0.0,0.0,0.0,0.0,0.0,0.0,0.0,0.0,0.0,0.0,0.0,0.0,0.0,0.0,0.0,0.0,0.0,0.0,0.0,0.0,-1.7204,-1.7795,-1.8331,-1.8919,-1.9577,-2.0204,-2.0649,-2.105,-2.1192,-2.1417,-2.1795,-2.1741,-2.1792,-2.2045,-2.2132,-2.2286,-2.2491,-2.2506,-2.2396,-2.2184,-2.2308,-2.2257,-2.2052,-2.1957,-2.2142,-2.2363,-2.2458,-2.3384,-2.4994,-2.4765,-2.5697,-2.7402,-2.6348,-2.6103,-2.6299,-2.541,-2.5068,-2.5189,-2.5523,-2.641,-2.742,-2.7521,-2.8155,-2.8882,-2.8882,-2.9197,-2.9509,-2.9509,-2.9611,-2.9792,-2.9792,-2.9792,-2.9792,-2.9792,-2.9792,-2.9792,-2.9792,-2.9792,-2.9792,-2.9792,-2.9792,-2.9666,-2.9252,-2.9038,-2.875,-2.8197,-2.777,-2.7369,-2.6967,-2.7044,0.0,-2.8651,-2.9138,-3.0163,-3.2211,-3.3022,-3.3835,-3.4696,-3.4756,-3.4681,-3.4487,-3.3589,-3.2976,-3.2796,-3.2332,-3.2523,-3.3459,-3.2884,-3.3414,0.0,0.0,0.0,0.0,0.0,0.0,0.0,0.0,0.0,0.0,0.0,0.0,0.0,0.0,0.0,0.0,0.0,0.0,0.0,0.0,0.0,0.0,-1.7048,-1.7642,-1.8023,-1.8531,-1.9146,-1.9719,-2.0301,-2.0781,-2.1261,-2.1257,-2.1456,-2.1961,-2.2069,-2.2191,-2.2327,-2.245,-2.2586,-2.2623,-2.2754,-2.2623,-2.2184,-2.2352,-2.2279,-2.1979,-2.184,-2.1774,-2.1767,-2.2143,-2.3093,-2.4479,-2.4645,-2.5766,-2.7334,-2.6582,-2.6318,0.0,0.0,0.0,0.0,0.0,-2.6601,-2.7273,-2.7421,-2.7998,-2.8791,-2.8882,-2.9118,-2.9419,-2.9509,-2.9702,-2.9792,-2.9792,-2.9792,-2.9792,-2.9792,-2.9792,-2.9792,-2.9792,-2.9792,-2.9792,-2.9792,-2.9792,-2.9691,-2.9352,-2.9089,0.0,-2.8511,-2.7996,-2.7519,-2.7205,-2.7213,-2.7644,-2.8689,-2.9196,-3.0277,-3.2188,-3.3062,-3.3769,-3.4412,-3.4472,0.0,0.0,0.0,-3.2392,-3.2108,-3.1676,0.0,0.0,0.0,-3.3591,-3.5104,0.0,0.0,0.0,-3.609,-3.6139,0.0,0.0,0.0,0.0,0.0,0.0,0.0,0.0,0.0,0.0,0.0,0.0,0.0,0.0,0.0,0.0,-1.7542,-1.8437,-1.9339,-1.9526,-1.9659,-1.992,-2.0652,-2.1094,-2.0846,-2.1582,-2.1859,-2.1734,-2.223,-2.248,-2.2606,0.0,0.0,0.0,0.0,-2.2718,-2.2132,-2.2125,-2.1979,-2.1693,-2.1364,-2.1233,-2.1262,-2.2297,-2.3189,-2.4187,-2.5585,-2.6527,-2.7012,-2.6963,-2.6699,-2.6279,-2.5889,-2.5742,-2.5771,-2.6141,-2.642,-2.6713,-2.7426,0.0,0.0,-2.8973,-2.9197,-2.9341,-2.9624,-2.9714,-2.9792,-2.9792,-2.9792,-2.9792,-2.9792,-2.9792,-2.9792,-2.9792,-2.9792,-2.9792,-2.9792,-2.9792,-2.9792,-2.9792,-2.9377,-2.9026,-2.9026,-2.8511,-2.8109,-2.8109,-2.8182,-2.8303,-2.8633,-2.9426,-3.0499,-3.2046,0.0,0.0,-3.4322,-3.4367,-3.3844,-3.2587,-3.2437,-3.2138,-3.1497,-3.1482,-3.1784,-3.2394,-3.2916,-3.3755,-3.4897,-3.4286,-3.459,-3.5712,-3.5762,-3.5876,0.0,0.0,0.0,0.0,0.0,0.0,0.0,0.0,0.0,0.0,0.0,0.0,0.0,0.0,0.0,-1.7281,-1.8163,-1.9052,-1.994,-2.0474,-2.0795,-2.0848,-2.0955,-2.1148,-2.14,-2.1328,-2.1607,-2.2362,-2.1985,-2.1985,-2.2606,-2.2362,-2.232,-2.2256,-2.2069,-2.1915,-2.1796,-2.1539,-2.151,-2.1693,0.0,0.0,-2.1584,-2.1277,-2.219,-2.4054,-2.4136,-2.5236,-2.6982,-2.665,-2.626,-2.5859,-2.5771,-2.5742,-2.5684,-2.5415,-2.5992,-2.6976,-2.6768,-2.7504,-2.8578,-2.859,-2.8736,-2.8961,-2.9209,-2.9365,0.0,-2.9702,-2.9792,-2.9792,-2.9792,-2.9792,-2.9792,-2.9792,-2.9792,-2.9792,-2.9792,-2.9792,-2.9792,-2.9792,-2.9704,-2.9628,-2.9628,-2.8775,-2.8109,-2.8109,-2.8664,-2.921,-2.9522,-3.0252,-3.1214,-3.23,-3.3109,-3.3544,-3.3679,-3.3679,-3.335,-3.2557,-3.2018,-3.1616,-3.1482,-3.1482,-3.1837,-3.2479,-3.2088,-3.2463,-3.3721,-3.3067,-3.3099,-3.377,-3.4228,-3.471,0.0,0.0,0.0,0.0,0.0,0.0,0.0,0.0,0.0,0.0,0.0,-1.6657,0.0,0.0,-1.7121,-1.7716,-1.8684,-1.9325,-1.9165,-2.0355,-2.1109,-2.1109,-2.1109,-2.1109,-2.1362,-2.1235,-2.1362,-2.1859,-2.1734,-2.1859,-2.2355,-2.2065,-2.1939,-2.1904,-2.1626,-2.1327,-2.1206,-2.1234,-2.1241,-2.1452,-2.1284,-2.1211,-2.1203,-2.17,-2.2632,-2.3888,-2.4438,-2.5503,-2.667,-2.624,-2.5937,-2.5742,-2.5742,-2.5742,-2.5713,-2.5488,-2.631,-2.7488,-2.7249,-2.7918,-2.8907,-2.9056,-2.8943,-2.8882,-2.9052,-2.9275,-2.9419,-2.9599,-2.9702,-2.9792,-2.9792,-2.9792,-2.9792,-2.9792,-2.9792,-2.9792,-2.9792,-2.9792,-2.9792,-2.9792,-2.9792,-2.9792,-2.9792,-2.9327,-2.895,-2.895,-2.9571,-3.009,-3.0065,-3.083,-3.1642,-3.2317,-3.2751,-3.3006,-3.3006,-3.2706,-3.2377,-3.2048,-3.1719,-3.1482,-3.1482,-3.1482,-3.1631,-3.2018,-3.2347,-3.2943,-3.3875,-3.3615,-3.3891,-3.4707,-3.436,-3.451,0.0,0.0,0.0,0.0,0.0,0.0,0.0,-1.9498,-1.8385,-1.8155,-1.7502,-1.6838,-1.6495,-1.7027,-1.7702,-1.8076,-1.9025,-1.9476,-1.8704,-1.9754,-2.0572,-2.0631,-2.0943,-2.1109,-2.1109,-2.1109,-2.1109,-2.1235,-2.1362,-2.158,-2.1902,-2.1609,-2.1425,-2.147,-2.1047,-2.0774,-2.0608,-2.08,-2.0895,-2.1001,-2.0936,-2.0769,-2.0633,-2.1815,-2.2792,-2.3616,-2.5149,-2.6106,-2.6357,-2.5918,-2.5742,-2.5742,-2.5742,-2.5742,-2.5742,-2.5742,-2.6648,-2.7858,-2.7771,-2.8418,-2.928,-2.9403,-2.9076,-2.8803,-2.8961,-2.9197,-2.9341,-2.9419,-2.9599,-2.9792,-2.9792,-2.9792,-2.9792,-2.9792,-2.9792,-2.9792,-2.9792,-2.9792,-2.9767,-2.9641,-2.9628,-2.9591,-2.9478,-2.9553,-2.9666,-2.9779,-3.0467,-3.0785,-3.0473,-3.1246,-3.1878,-3.2063,-3.2273,-3.2452,-3.2512,-3.1913,-3.1482,-3.1482,-3.1482,-3.1482,-3.1482,-3.1482,-3.1541,-3.1719,-3.2647,-3.3382,-3.4007,-3.3924,-3.4425,-3.5341,-3.4345,-3.4395,-2.3463,-2.2649,-2.1952,-2.1595,-2.1149,-2.0787,0.0,-1.9521,-1.8343,-1.7946,-1.7063,-1.6404,-1.66,-1.7161,-1.7769,-1.835,-1.8991,-1.9606,-1.9912,-1.9164,-1.8667,-1.8912,-2.0181,-2.1109,-2.1109,-2.1109,-2.1235,-2.1481,-2.1362,-2.1247,-2.1355,-2.1052,-2.075,-2.0447,-2.0172,-2.0116,-2.0385,-1.9811,-1.9913,-2.0449,-2.0147,-2.0091,-2.0281,-2.0141,-2.1235,-2.3212,-2.4964,-2.6014,-2.6357,-2.5918,-2.5742,-2.5742,-2.5742,-2.5742,-2.5742,-2.5742,-2.6648,-2.7815,-2.739,-2.8123,-2.922,-2.8751,-2.8558,-2.8578,-2.8803,-2.8961,-2.9209,-2.9341,-2.9599,-2.9792,-2.9792,-2.9792,-2.9792,-2.9792,-2.9792,-2.9792,-2.9792,-2.9792,-2.9641,-2.9126,-2.9026,-2.8863,-2.8386,-2.8699,-2.9202,-2.9716,-3.0503,-3.0902,-3.0487,-3.1219,-3.164,-3.125,-3.1901,-3.2348,-3.2512,-3.1913,-3.1482,-3.1482,-3.1482,-3.1482,-3.1482,-3.1482,-3.1809,-3.2392,-3.1973,-3.2033,-3.2721,-3.2108,-3.1927,-3.2028,-3.2435,-3.3525,-2.2649,-2.2171,-2.1863,-2.1325,-2.098,-2.0764,-2.0571,-1.9322,-1.8261,-1.8111,-1.7211,-1.6613,-1.6907,-1.7595,-1.7972,0.0,-1.8058,-1.8007,-1.6768,-1.6915,-1.692,-1.6284,-1.7508,-1.8698,-1.9782,-1.9016,-1.915,-2.0967,-2.0054,-1.9905,-2.091,-2.0339,-2.0026,-2.0014,-1.9435,-1.919,-1.9514,-1.9277,-1.9438,-1.9993,-1.9843,-1.991,-1.9959,-2.1368,-2.3063,-2.5024,-2.5785,-2.6074,-2.5996,-2.581,-2.5742,-2.5742,-2.5742,-2.5742,-2.5742,-2.5742,-2.6441,-2.7429,-2.7239,-2.7944,-2.8841,-2.8631,-2.8491,-2.851,-2.8578,-2.8816,-2.9131,-2.9197,-2.9534,-2.9792,-2.9792,-2.9792,-2.9792,-2.9792,-2.9792,-2.9792,-2.9792,-2.9792,-2.9616,-2.9038,-2.8925,-2.885,-2.8624,-2.9134,-2.9764,-3.0329,-3.1156,-3.1632,-3.1502,-3.2305,-3.2581,-3.1691,-3.1989,-3.2109,-3.1856,-3.1631,-3.1482,-3.1482,-3.1482,-3.1482,-3.1482,-3.1482,-3.1601,-3.1943,-3.2048,-3.2243,-3.2512,-3.2617,-3.2677,-3.2677,-3.2899,-3.3467,-2.1649,-2.1464,-2.1402,-2.074,-2.0541,-2.0345,-1.9761,-1.8904,-1.8069,-1.7735,-1.7145,-1.68,-1.7094,-1.7529,-1.7508,-1.6751,-1.697,-1.6578,-1.461,-1.5064,-1.5294,-1.4318,-1.4715,-1.5818,-1.7615,-1.6969,-1.7213,-1.9404,-1.8723,-1.8788,-1.974,-1.9586,-1.9408,-1.9469,-1.8823,-1.8594,-1.8809,-1.8727,-1.8899,-1.954,-1.9455,-1.9513,-1.9736,-2.2143,-2.4088,-2.5377,-2.5904,-2.6025,-2.5742,-2.5742,-2.5742,-2.5742,-2.5742,-2.5742,-2.5742,-2.5742,-2.637,-2.7169,-2.7044,-2.757,-2.8381,-2.8368,-2.8312,-2.8333,-2.8299,-2.8627,-2.8991,-2.8697,-2.9142,-2.9626,-2.9402,-2.9553,-2.9754,-2.9591,-2.9553,-2.9591,-2.9754,-2.9553,-2.9202,-2.8787,-2.8699,-2.8649,-2.8499,-2.9365,-3.0288,-3.089,-3.182,-3.237,-3.2316,-3.2924,-3.3089,-3.2276,-3.2195,-3.2005,-3.1589,-3.1513,-3.1482,-3.1482,-3.1482,-3.1482,-3.1482,-3.1482,-3.1482,-3.1482,-3.2003,-3.2243,-3.2243,-3.2721,-3.2961,-3.2961,-3.2961,-3.3051,-2.0304,-2.0352,-2.0254,-1.9894,-1.9834,-1.9507,-1.821,-1.8028,-1.7872,-1.6626,-1.6513,-1.68,-1.7094,-1.6545,-1.6168,-1.6573,-1.5864,-1.5427,-1.5548,-1.4325,-1.3646,-1.3817,-1.2569,-1.2444,0.0,-1.566,-1.6398,-1.6527,-1.7626,-1.8131,-1.762,-1.8777,-1.9105,-1.8537,-1.8497,-1.849,-1.849,-1.8203,-1.8381,-1.8898,-1.8597,-1.8764,-1.939,-2.1514,-2.2518,-2.2702,-2.4843,-2.5752,-2.5742,-2.5742,-2.5742,-2.5742,-2.5742,-2.5742,-2.5742,-2.5742,-2.637,-2.7127,-2.6589,-2.7059,-2.7886,-2.7815,-2.7836,-2.7796,-2.7727,-2.8246,-2.8663,-2.7789,-2.8459,-2.926,-2.8349,-2.8976,-2.9654,-2.9089,-2.895,-2.9114,-2.9666,-2.8925,-2.8147,-2.8134,-2.8134,-2.7959,-2.7419,-2.8852,-3.0362,-3.1148,-3.2346,-3.2933,-3.2384,-3.2434,-3.2591,-3.2645,-3.2291,-3.2016,-3.2153,-3.1766,-3.1482,-3.1482,-3.1482,-3.1482,-3.1482,-3.1482,-3.1482,-3.1482,-3.1497,-3.1497,-3.1497,-3.1526,-3.1541,-3.1541,-3.1541,-3.1943,-2.0372,-2.0387,-2.0529,-2.0446,-2.0298,-1.9977,-1.9208,-1.8529,-1.7771,-1.6995,-1.6466,-1.6213,-1.6513,-1.603,-1.5394,-1.487,-1.4395,-1.3786,-1.3177,-1.2667,-1.2436,-1.2448,-1.1997,0.0,0.0,0.0,0.0,-1.6027,-1.6106,-1.6082,-1.6037,-1.7554,-1.8053,-1.707,-1.7551,-1.7889,-1.7889,-1.7789,-1.7955,-1.8273,-1.8597,-1.916,-2.0181,-2.1785,-2.2894,-2.3692,-2.5118,-2.5742,-2.5742,-2.5742,-2.5742,-2.5742,-2.5742,-2.5742,-2.5742,-2.5742,-2.5917,-2.6127,-2.567,-2.6123,-2.6977,-2.6907,-2.7295,-2.7838,-2.8155,-2.8016,-2.7733,-2.7809,-2.8112,-2.8251,-2.7964,-2.8299,-2.8624,-2.8436,-2.8386,-2.8436,-2.8624,-2.8662,-2.8549,-2.8185,-2.8398,-2.8586,-2.8411,-2.9327,-3.0626,-3.2289,-3.3393,-3.3891,-3.3743,-3.3758,-3.3441,-3.2664,-3.2499,-3.2188,-3.153,-3.1426,-3.1409,-3.1482,-3.1482,-3.1482,-3.1482,-3.1482,-3.1482,-3.1482,-3.1482,-3.1482,-3.1482,-3.1482,-3.1482,-3.1482,-3.1482,-3.1601,-2.0244,-2.0472,-2.0587,-2.0093,-1.9881,-1.957,-1.8646,-1.785,-1.7092,-1.6684,-1.6072,-1.5637,-1.5434,-1.485,-1.4128,-1.3097,-1.2602,-1.2139,-1.1655,-1.1472,-1.1464,-1.1654,-1.1618,-1.1606,0.0,0.0,0.0,-1.4226,-1.4452,-1.4682,-1.4961,-1.6563,-1.7213,-1.6769,-1.7351,-1.7582,-1.7582,-1.7582,-1.7694,-1.8016,-1.866,-1.9279,-1.9983,-2.1684,-2.2885,-2.3583,-2.4956,-2.5498,-2.5488,-2.5332,-2.5352,-2.5498,-2.5498,-2.5498,-2.5498,-2.5498,-2.5303,-2.5019,-2.5248,-2.5624,-2.6194,-2.637,-2.6701,-2.7226,-2.7579,-2.7384,-2.7124,-2.715,-2.7397,-2.7557,-2.7319,-2.7578,-2.7974,-2.7858,-2.7808,-2.7921,-2.831,-2.8373,-2.8348,-2.8398,-2.8687,-2.8925,-2.8925,-2.9947,-3.1366,-3.2947,-3.3708,-3.4167,-3.4385,-3.4211,-3.3761,-3.2933,-3.2553,-3.2126,-3.1426,-3.1309,-3.1351,-3.1409,-3.1467,-3.1482,-3.1482,-3.1482,-3.1482,-3.1482,-3.1482,-3.1482,-3.1482,-3.1482,-3.1482,-3.1482,-3.1482,-3.1482,-2.0099,-2.0467,-2.0449,-1.9052,-1.8611,-1.8256,-1.6663,-1.6343,-1.6086,-1.5498,-1.5344,-1.495,-1.3827,-1.2998,-1.2258,-1.1611,-1.0835,-1.0631,-1.1163,-1.0936,-1.0911,0.0,0.0,0.0,0.0,0.0,0.0,-1.1472,0.0,-1.3614,-1.4193,-1.547,-1.6553,-1.7378,-1.747,-1.7582,-1.7582,-1.7582,-1.7694,-1.8016,-1.8555,-1.8876,-1.8974,-2.1285,-2.2391,-2.2567,-2.4265,-2.5068,-2.5029,-2.459,-2.4658,-2.5029,-2.5029,-2.5029,-2.5029,-2.5029,-2.4521,-2.3957,-2.5077,-2.547,-2.5602,-2.5935,-2.612,-2.6152,-2.6134,-2.6466,-2.6635,-2.5863,-2.636,-2.6968,-2.6321,-2.6946,-2.7653,-2.7297,-2.7256,-2.757,-2.8612,-2.8059,-2.767,-2.8725,-2.895,-2.8976,-2.8976,-3.069,-3.2349,-3.3031,-3.3336,-3.3688,-3.4283,-3.3804,-3.3412,-3.3369,-3.2455,-3.1772,-3.1728,-3.1471,-3.1278,-3.1278,-3.1409,-3.1482,-3.1482,-3.1482,-3.1482,-3.1482,-3.1482,-3.1482,-3.1482,-3.1482,-3.1482,-3.1482,-3.1482,-3.1482,-2.0102,-2.0588,-2.0739,-1.9707,-1.9255,-1.8659,-1.7385,-1.651,-1.5778,-1.5197,-1.4179,-1.3169,-1.2721,-1.1636,-1.0801,-1.0768,-1.0644,0.0,-1.1121,-1.1117,0.0,-1.1468,0.0,-1.124,-1.1289,-1.1293,0.0,0.0,-1.2225,-1.2627,-1.1858,-1.367,-1.4736,-1.4995,-1.5855,-1.6717,-1.7582,-1.7582,-1.7582,-1.7694,-1.8016,-1.8233,-1.8331,-2.0174,-2.1489,-2.2265,-2.3374,-2.4383,-2.5029,-2.459,-2.4482,-2.458,-2.458,-2.458,-2.458,-2.458,-2.4443,-2.4222,-2.4222,-2.4248,-2.4293,-2.4745,-2.5037,-2.5442,-2.636,-2.625,-2.5745,-2.5937,-2.5961,-2.5958,-2.5832,-2.6107,-2.642,-2.6437,-2.6768,-2.7201,-2.7645,-2.8134,-2.8586,-2.8875,-2.9277,-2.9783,-3.0325,-3.1322,-3.2212,-3.2471,-3.3064,-3.3529,-3.3688,-3.3151,-3.2571,-3.2063,-3.1714,-3.146,-3.1099,-3.1102,-3.1176,-3.1278,-3.1409,-3.1482,-3.1482,-3.1482,-3.1482,-3.1482,-3.1482,-3.1482,-3.1482,-3.1482,-3.1482,-3.1482,-3.1482,-3.1482,-1.9856,-2.0017,-1.9843,-1.8864,-1.8402,-1.7832,-1.6614,-1.5609,-1.497,-1.4555,-1.3241,-1.2081,-1.1519,-1.0543,-0.9824,-0.9466,0.0,0.0,-1.0622,-1.0715,-1.0972,0.0,-1.0827,0.0,-1.111,-1.0764,-1.0611,0.0,-1.1634,-1.1814,-1.162,-1.2697,-1.3599,-1.4132,-1.5316,-1.6399,-1.7582,-1.7582,-1.7582,-1.7582,-1.7905,-1.8016,-1.8122,-2.0013,-2.1244,-2.1811,0.0,-2.3935,-2.4473,-2.4033,-2.3975,-2.4141,-2.4141,-2.4141,-2.4141,-2.4141,-2.4023,-2.373,-2.3328,-2.3119,-2.3094,-2.3606,-2.4111,-2.4664,-2.5433,-2.5492,-2.5372,-2.5673,-2.5612,-2.5453,-2.5606,-2.5859,-2.6184,-2.6337,-2.69,-2.7418,-2.7801,-2.8412,-2.8925,-2.8925,-2.9189,-2.9618,-3.0394,-3.0975,-3.1555,-3.2178,-3.2477,-3.2614,-3.2614,-3.2295,-3.1946,-3.1555,-3.1264,-3.102,-3.0731,-3.0895,-3.1014,-3.1176,-3.1351,-3.1409,-3.1482,-3.1482,-3.1482,-3.1482,-3.1482,-3.1482,-3.1482,-3.1482,-3.1482,-3.1482,-3.1482,-3.1482,-1.9566,-1.9264,-1.8588,-1.7579,-1.7095,-1.6552,-1.5239,-1.4482,-1.3977,-1.3555,-1.2392,-1.1126,-1.0164,-0.9583,-0.8943,-0.7868,0.0,-0.9408,-0.957,-0.9827,-1.026,-1.0591,-0.9923,-0.9684,-1.0478,-1.0021,-0.9909,-1.0703,-1.0932,-1.13,-1.21,-1.22,-1.2738,-1.3814,-1.5215,-1.638,-1.7305,-1.7522,-1.7522,-1.7522,-1.7705,-1.7816,-1.7948,-1.9938,-2.0966,-2.1416,-2.2714,-2.3509,-2.375,-2.332,-2.3359,-2.3701,-2.3701,-2.3701,-2.3701,-2.3701,-2.3467,-2.3076,-2.2656,-2.2236,-2.2066,-2.2819,-2.3446,-2.3963,-2.4192,-2.4719,-2.5312,-2.5312,-2.5312,-2.5312,-2.5535,-2.5875,-2.6311,-2.6625,-2.7151,-2.7792,-2.8387,-2.8662,-2.8837,-2.8913,-2.8875,-2.9111,-2.9967,-3.0244,-3.0733,-3.1991,-3.1825,-3.1482,-3.1409,-3.1395,-3.1395,-3.1395,-3.0901,-3.0568,-3.0568,-3.0702,-3.0895,-3.1073,-3.1234,-3.1351,-3.1467,-3.1482,-3.1482,-3.1482,-3.1482,-3.1482,-3.1482,-3.1482,-3.1482,-3.1482,-3.1482,-3.1482,-1.9683,-1.9329,-1.8645,-1.7791,-1.728,-1.6494,-1.498,-1.4335,-1.369,-1.23,-1.1064,-0.9827,-0.8608,-0.8098,-0.7493,-0.6553,-0.7537,-0.8229,-0.7642,-0.8063,-0.8501,0.0,-0.8472,-0.8288,-0.851,-0.9068,0.0,0.0,-1.0295,-1.0835,-1.1017,-1.1017,-1.1555,-1.263,-1.4781,-1.5858,-1.5744,-1.6801,-1.7228,-1.7221,-1.7076,-1.7089,-1.7318,-1.7722,-1.8935,-2.074,-2.0908,0.0,-2.375,-2.332,-2.3184,-2.3252,-2.3252,-2.3252,-2.3252,-2.3252,-2.3203,-2.3076,-2.2656,-2.2236,-2.2043,-2.3136,-2.336,-2.339,-2.4719,-2.5158,-2.5312,-2.5312,-2.5312,-2.5312,-2.5312,-2.5455,-2.5624,-2.6299,-2.6554,-2.6846,-2.7767,-2.8113,-2.8386,-2.8837,-2.8561,-2.866,-3.0057,-3.0309,-3.0581,-3.151,-3.1531,-3.1322,-3.08,-3.0742,-3.0742,-3.0742,-3.064,-3.0568,-3.0568,-3.0702,-3.0821,-3.0821,-3.1102,-3.1278,-3.1351,-3.1409,-3.1482,-3.1482,-3.1482,-3.1482,-3.1482,-3.1482,-3.1482,-3.1482,-3.1482,-3.1482,-1.8939,-1.8402,-1.7523,-1.6667,-1.5861,-1.4943,-1.4229,-1.3419,-1.2631,-1.1623,-1.0492,-0.9365,-0.8446,-0.7336,-0.6427,-0.6024,-0.6614,-0.7132,-0.6695,-0.7445,-0.7981,-0.8112,-0.763,-0.7482,-0.7919,-0.7971,-0.8401,-0.9354,-0.9649,-1.0062,-1.0684,-1.0607,-1.1044,-1.2096,-1.3776,-1.4873,-1.527,-1.64,-1.6921,-1.6914,-1.6774,-1.678,-1.6907,-1.74,-1.8499,-2.0091,-2.0483,-2.1708,-2.326,-2.288,-2.2882,-2.3057,-2.2969,-2.2969,-2.3135,-2.3135,-2.3135,-2.3105,-2.291,-2.2568,-2.2335,-2.3317,-2.3541,-2.363,-2.4742,-2.5611,-2.6093,-2.5805,-2.5937,-2.6154,-2.6154,-2.6358,-2.6635,-2.6962,-2.7172,-2.7456,-2.8461,-2.8512,-2.8462,-2.8499,-2.8285,-2.8592,-3.0104,-2.9781,-2.9945,-3.1772,-3.1467,-3.0916,-3.0611,-3.0568,-3.0568,-3.0568,-3.0568,-3.0568,-3.0568,-3.0642,-3.0702,-3.0821,-3.094,-3.1117,-3.1278,-3.1351,-3.1409,-3.1482,-3.1482,-3.1482,-3.1482,-3.1482,-3.1482,-3.1482,-3.1482,-3.1482,-1.8272,-1.7401,-1.6359,-1.5782,-1.4754,-1.3843,-1.3497,-1.2638,-1.1582,-1.0756,-0.9887,-0.9043,-0.8263,-0.6825,-0.5668,0.0,-0.5674,-0.5727,-0.5801,-0.6603,-0.7205,-0.7462,-0.6821,0.0,-0.7368,-0.6936,0.0,-0.8689,-0.8997,-0.947,-1.0566,-1.0485,-1.0767,-1.1498,-1.252,-1.3625,-1.4696,-1.5708,-1.6407,-1.6613,-1.6547,-1.6553,-1.66,-1.7258,-1.8343,-1.9536,-2.0261,-2.1418,-2.2706,-2.253,-2.2618,-2.296,-2.2794,-2.2891,-2.3057,-2.3047,-2.3135,-2.3125,-2.3037,-2.2734,-2.2542,-2.3515,-2.3897,-2.4062,-2.4812,-2.589,-2.6839,-2.6406,-2.6586,-2.6899,-2.6791,-2.7152,-2.756,-2.756,-2.7775,-2.8187,-2.8926,-2.8672,-2.8276,-2.8099,-2.7848,-2.8221,-2.9713,-2.9195,-2.9348,-3.1743,-3.1235,-3.0568,-3.0568,-3.0568,-3.0568,-3.0568,-3.0568,-3.0568,-3.0568,-3.0568,-3.0642,-3.0762,-3.0762,-3.094,-3.1234,-3.1278,-3.1351,-3.1482,-3.139,-3.139,-3.1482,-3.139,-3.139,-3.1482,-3.1482,-3.1482,-1.8221,-1.7115,-1.5933,-1.6192,-1.55,-1.453,-1.3218,-1.2429,-1.1416,-0.9308,-0.8719,-0.8233,-0.7062,-0.6267,-0.5397,0.0,0.0,-0.3924,-0.3785,-0.4365,-0.497,-0.5582,0.0,0.0,-0.5603,-0.6172,-0.6699,-0.6927,-0.8231,-0.9385,-1.0217,-1.0355,-1.0351,-1.0373,-1.1493,-1.2424,-1.323,-1.4325,-1.5417,-1.6306,-1.6039,-1.6052,-1.6299,-1.6101,-1.716,-1.918,-1.9239,-2.0503,0.0,-2.2432,-2.2441,-2.253,-2.2706,-2.2794,-2.2891,-2.3047,-2.3135,-2.3086,-2.2705,-2.2295,-2.2182,-2.3849,-2.4342,-2.4502,-2.5292,-2.6183,-2.6923,-2.6875,-2.6899,-2.6815,-2.6298,-2.6586,-2.7007,-2.7007,-2.7509,-2.8013,-2.8139,-2.7594,-2.7307,-2.7754,-2.7164,-2.7058,-2.8473,-2.8573,-2.9044,-3.0545,-3.064,-3.0568,-3.0568,-3.0568,-3.0568,-3.0568,-3.0568,-3.0568,-3.0568,-3.0568,-3.0628,-3.0642,-3.0702,-3.0895,-3.1132,-3.1234,-3.1351,-3.1482,-3.0911,-3.0911,-3.1482,-3.0911,-3.0911,-3.1482,-3.1482,-3.1482,-1.7501,-1.6948,-1.6504,-1.6088,-1.4649,-1.3219,-1.2693,-1.1424,-1.0045,-0.8991,-0.8237,-0.739,-0.6494,-0.5036,-0.3859,-0.3438,0.0,0.0,-0.2874,-0.3827,-0.4646,-0.476,-0.5002,0.0,0.0,0.0,-0.5875,-0.6213,-0.7973,-0.9093,-0.9142,-0.9697,-1.0022,-0.9847,-1.0929,-1.1582,-1.189,-1.3567,-1.4649,-1.5133,-1.5422,-1.5725,-1.5999,-1.5698,-1.6664,-1.8568,-1.8568,-1.9817,0.0,-2.1444,-2.1586,-2.2044,-2.1874,-2.1939,-2.2015,-2.2288,-2.2383,-2.2353,-2.2197,-2.2344,-2.2757,-2.3395,-2.4342,-2.5226,-2.5756,-2.636,-2.6863,-2.6526,-2.6899,-2.7284,-2.6743,-2.6767,-2.6935,-2.6935,-2.6902,-2.6964,-2.7454,-2.7164,-2.6927,-2.7282,-2.7442,-2.7939,-2.893,-2.9151,-2.9596,-3.0953,-3.0814,-3.0568,-3.0568,-3.0568,-3.0568,-3.0568,-3.0568,-3.0568,-3.0568,-3.0568,-3.0568,-3.0568,-3.0642,-3.0762,-3.0895,-3.0631,-3.0541,-3.0755,-3.0171,-3.0212,-3.0911,-3.0642,-3.0851,-3.1482,-3.1482,-3.1482,-1.6313,-1.5892,-1.5577,-1.5026,-1.331,-1.1759,-1.1544,-0.999,-0.8492,-0.8086,-0.717,-0.6344,-0.5846,-0.4204,-0.2867,-0.2688,-0.263,-0.2404,-0.1992,-0.3083,-0.3765,-0.375,0.0,-0.4323,0.0,-0.4915,-0.5357,-0.6002,-0.7367,-0.8213,-0.851,-0.9063,-0.9526,-0.9551,-1.0275,-1.0858,-1.1085,-1.2893,-1.4004,-1.4292,-1.5065,-1.5504,-1.5691,-1.5398,-1.6161,-1.7675,-1.7943,-1.9083,0.0,-2.0631,-2.0856,-2.1438,-2.1221,-2.1182,-2.1339,-2.17,-2.1783,-2.1773,-2.1738,-2.2241,-2.2936,-2.3018,-2.3984,-2.5217,-2.5755,-2.637,-2.6851,-2.6454,-2.6779,-2.72,-2.6995,-2.6815,-2.6731,-2.6899,-2.6635,-2.6454,-2.6976,-2.6871,-2.6637,-2.684,-2.7328,-2.8017,-2.9011,-2.9256,-2.9701,-3.104,-3.0858,-3.0568,-3.0568,-3.0568,-3.0568,-3.0568,-3.0568,-3.0495,-3.0306,-3.0466,-3.0495,-3.0306,-3.0466,-3.0642,-3.0762,-3.0397,-3.0234,-3.0312,-2.9867,-2.9963,-3.0507,-3.0507,-3.0851,-3.1482,-3.1482,-3.1582,-1.4566,-1.3658,-1.262,-1.2667,-1.1884,-1.0697,-0.949,-0.8332,-0.7087,-0.5939,-0.536,-0.5014,-0.497,-0.3849,-0.2688,-0.2238,-0.1703,0.0,-0.1041,-0.1428,-0.1835,0.0,0.0,-0.2435,-0.3414,-0.4528,-0.5383,-0.621,-0.6305,0.0,-0.8653,-0.8514,-0.8754,-0.9364,-0.9535,-1.0023,-1.0877,-1.2133,-1.3216,-1.4292,-1.5065,-1.5398,-1.5391,-1.5104,-1.5479,-1.6426,-1.7288,-1.8251,0.0,-2.0174,-2.0521,-2.0521,-2.0773,-2.0857,-2.0941,-2.1339,-2.1495,-2.1447,-2.1296,-2.17,-2.2475,-2.2907,-2.3486,-2.4276,-2.5099,-2.6069,-2.6935,-2.6923,-2.6538,-2.6238,-2.6791,-2.6526,-2.625,-2.6803,-2.6923,-2.6923,-2.6935,-2.665,-2.6481,-2.6637,-2.6433,-2.6726,-2.8247,-2.8492,-2.9016,-3.0387,-3.0568,-3.0568,-3.0568,-3.0568,-3.0568,-3.0568,-3.0568,-3.0321,-2.9682,-3.0205,-3.0306,-2.9668,-3.0219,-3.0642,-3.0762,-3.0821,-3.0632,-3.0327,-3.0297,-3.0354,-3.0507,-3.0507,-3.0851,-3.1482,-3.1482,-3.1796,-1.2707,-1.2176,-1.1723,-1.1731,-1.0301,-0.8878,-0.839,-0.7406,-0.6411,-0.565,-0.4799,-0.3892,-0.3111,-0.2058,-0.0986,-0.0448,-0.0538,-0.0631,0.0,0.0,0.0,-0.1304,-0.1562,-0.223,0.0,0.0,-0.4248,-0.5187,-0.5787,-0.6258,-0.677,-0.7707,-0.8687,-0.9539,-0.9478,-0.9606,-0.9831,-1.1447,-1.2428,-1.2707,-1.4109,-1.4903,-1.509,-1.4796,-1.5168,-1.6016,-1.6268,-1.7296,0.0,-1.8806,-1.927,-2.009,-2.0058,-2.0028,-2.0028,-2.0339,-2.041,-2.0391,-2.0346,-2.0997,-2.1834,-2.2189,-2.29,-2.3768,-2.4551,-2.5264,-2.5901,-2.6262,-2.5973,-2.5685,-2.6226,-2.5961,-2.5612,-2.5781,-2.5817,-2.5817,-2.5817,-2.584,-2.5861,-2.5932,-2.6483,-2.7162,-2.8117,-2.8826,-2.9546,-3.0447,-3.0568,-3.0568,-3.0568,-3.0568,-3.0568,-3.0568,-3.0568,-3.0321,-2.9682,-3.0205,-3.0306,-2.9668,-3.0219,-3.0642,-3.0642,-3.022,-2.9798,-2.9478,-2.9034,-2.8922,-2.9205,-2.9654,-3.0654,-3.2135,-3.2135,-3.2437,-1.0089,-0.9901,-0.9558,-0.958,-0.8328,-0.7007,-0.6919,-0.6057,-0.5081,-0.4352,-0.3507,-0.2592,-0.1511,-0.0627,0.009,0.0538,0.0269,0.009,0.0,0.0,0.0,0.0,0.0,0.0,0.0,-0.2786,-0.3468,-0.4133,-0.5003,-0.5654,-0.5876,-0.6792,-0.7859,-0.8929,-0.9216,-0.9222,-0.9153,-1.0667,-1.165,-1.2011,-1.3306,-1.4258,-1.4783,-1.4489,-1.4692,-1.5191,-1.5524,-1.6369,0.0,-1.7726,-1.8338,-1.9237,-1.9215,-1.9155,-1.9044,-1.9416,-1.955,-1.955,-1.9627,-2.0312,-2.1241,-2.1754,-2.2626,-2.3616,-2.4094,-2.4735,-2.5384,-2.5709,-2.5564,-2.5384,-2.5709,-2.5552,-2.5312,-2.5312,-2.5155,-2.5011,-2.5011,-2.4936,-2.4953,-2.501,-2.5772,-2.6629,-2.7437,-2.8283,-2.9063,-2.9768,-2.9856,-2.9856,-2.9856,-2.9856,-2.9856,-2.9856,-2.9856,-2.9595,-2.8956,-2.9929,-3.0306,-2.9668,-2.9987,-3.0219,-3.0219,-2.961,-2.907,-2.8634,-2.8527,-2.8589,-2.877,-2.9939,-3.1305,-3.2695,-3.2926,-3.323,0.0,-0.6773,-0.6168,-0.6493,-0.5855,-0.5104,-0.519,-0.4455,0.0,-0.2266,-0.1687,-0.1111,-0.0089,0.0269,0.0628,0.1076,0.0807,0.0718,0.0,0.1303,0.0,0.0,0.0709,0.0,0.0,-0.1917,-0.3127,-0.3224,-0.416,-0.4997,-0.5764,-0.5751,-0.6435,-0.7826,-0.8586,-0.889,-0.8824,-0.9967,-1.1054,-1.1962,-1.2732,-1.3598,-1.4482,-1.4208,-1.4088,0.0,-1.4985,-1.5703,0.0,-1.7058,-1.7705,-1.8164,-1.8522,-1.8449,-1.8164,-1.875,-1.8965,-1.8965,-1.9127,-1.9723,-2.0589,-2.1573,-2.2695,-2.3713,-2.3713,-2.441,-2.5204,-2.5204,-2.5204,-2.5204,-2.5204,-2.5204,-2.5204,-2.5204,-2.4819,-2.447,-2.447,-2.4097,-2.3851,-2.3996,-2.4585,-2.5398,-2.6339,-2.7107,-2.7837,-2.8583,-2.8681,-2.8681,-2.8681,-2.8681,-2.8681,-2.8681,-2.8681,-2.8448,-2.7839,-2.9421,-3.0161,-2.9523,-2.9523,-2.9566,-2.9566,-2.9,-2.8417,-2.7925,-2.863,-2.9024,-2.9195,-3.1025,-3.2388,-3.3303,-3.3767,-3.4052,-0.2792,0.0,-0.3527,-0.4074,-0.3237,-0.2452,0.0,-0.2496,-0.1578,-0.097,-0.0529,-0.0088,0.0894,0.1166,0.1256,0.1615,0.1525,0.1436,0.1436,0.1508,0.0,0.1673,0.1473,0.0941,0.0103,-0.1234,-0.2351,-0.3126,-0.416,-0.4774,-0.4895,-0.5354,-0.5896,-0.6706,-0.751,-0.8185,-0.882,-0.9611,-1.0524,-1.1488,-1.2388,-1.3316,-1.4188,-1.4122,-1.4088,-1.4173,-1.4985,-1.5703,-1.619,-1.7058,-1.7705,-1.8137,-1.8229,-1.8201,-1.8137,-1.8229,-1.8331,-1.8331,-1.834,-1.8982,-1.9928,-2.1196,-2.2301,-2.3171,-2.3171,-2.3616,-2.4133,-2.4133,-2.4133,-2.4133,-2.4133,-2.4133,-2.4133,-2.4133,-2.4037,-2.3941,-2.3941,-2.3857,-2.3948,-2.4333,-2.4698,-2.537,-2.6551,-2.7149,-2.7684,-2.8454,-2.8624,-2.8681,-2.8681,-2.8681,-2.8681,-2.8681,-2.8681,-2.8623,-2.8463,-2.8869,-2.8855,-2.8216,-2.8637,-2.8898,-2.8898,-2.8768,-2.8417,-2.7925,-2.7748,-2.839,-2.995,-2.9853,-3.1189,-3.3866,-3.3468,-3.3763,0.0312,-0.0716,-0.2024,-0.2344,-0.1813,-0.1348,-0.17,-0.1378,-0.0698,0.0176,0.0441,0.0794,0.1768,0.1872,0.1878,0.239,0.2405,0.0,0.0,0.0,0.2104,0.1693,0.1692,0.1468,0.0,-0.0206,-0.1319,-0.239,-0.3323,-0.4122,-0.4514,-0.4787,-0.5248,-0.5902,-0.6605,-0.7531,-0.8702,-0.9134,-0.9946,-1.1327,-1.1843,-1.279,-1.4088,-1.4088,-1.4015,-1.3881,-1.4365,-1.4984,-1.5705,-1.6158,-1.6788,-1.7587,-1.7761,-1.7724,-1.7587,-1.777,-1.7834,-1.7834,-1.7834,-1.8677,-1.9786,-2.0296,-2.1407,-2.2492,-2.2492,-2.2747,-2.3147,-2.3628,-2.3773,-2.3773,-2.3773,-2.3773,-2.3773,-2.3773,-2.358,-2.3412,-2.3412,-2.322,-2.3252,-2.3753,-2.4279,-2.4946,-2.5908,-2.654,-2.7071,-2.7535,-2.7671,-2.7726,-2.781,-2.781,-2.781,-2.781,-2.781,-2.781,-2.781,-2.781,-2.7911,-2.8144,-2.8216,-2.8245,-2.8245,-2.7969,-2.769,-2.7501,-2.7709,-2.8549,-3.0045,-3.0163,-3.1549,-3.3941,-3.3532,-3.3904,0.2665,0.1278,-0.0327,-0.0665,-0.0502,-0.0421,-0.0429,-0.034,0.0169,0.1374,0.1552,0.1899,0.2777,0.2734,0.2753,0.3322,0.0,0.0,0.3595,0.3434,0.3003,0.1996,0.1878,0.0,0.1655,0.0711,-0.0399,-0.1177,-0.2302,-0.3384,-0.4162,-0.4258,-0.4656,-0.5371,-0.5988,-0.6962,-0.8388,-0.8568,-0.9432,-1.1068,-1.1241,-1.2186,-1.3913,-1.3951,-1.3881,-1.3641,0.0,0.0,-1.5133,-1.5274,-1.5952,-1.6936,-1.7275,-1.7202,-1.6945,-1.7284,-1.7403,-1.7475,-1.7679,-1.8636,-1.9813,-1.969,-2.0613,-2.1874,-2.1862,-2.1999,-2.2378,-2.328,-2.3532,-2.3532,-2.3532,-2.3532,-2.3532,-2.3532,-2.3183,-2.2859,-2.2859,-2.251,-2.2383,-2.3092,-2.3723,-2.4408,-2.5168,-2.5866,-2.6315,-2.6437,-2.6457,-2.6578,-2.6712,-2.6779,-2.6779,-2.6779,-2.6779,-2.6779,-2.6779,-2.6779,-2.7244,-2.8318,-2.7882,-2.7578,-2.7578,-2.707,-2.6884,-2.7093,-2.7997,-2.8965,-3.0148,-3.1001,-3.2232,-3.3789,-3.3789,-3.4121,0.4243,0.4005,0.3559,0.2362,0.2801,0.3098,0.168,0.2181,0.3019,0.3197,0.3369,0.3727,0.457,0.4515,0.4374,0.0,0.0,0.4466,0.0,0.0,0.4221,0.3147,0.0,0.2633,0.1725,0.0598,-0.0098,-0.0196,-0.1989,-0.306,-0.3235,-0.3895,-0.4656,-0.5371,-0.546,-0.6257,-0.7669,-0.8296,-0.9082,-1.012,-1.0895,-1.1843,-1.2954,-1.3406,-1.3687,-1.3627,0.0,-1.4674,-1.5133,-1.5871,-1.6455,-1.6908,-1.6972,-1.6963,-1.6908,-1.6972,-1.7,-1.713,-1.8339,-1.907,-1.9592,-2.07,-2.1348,-2.1761,-2.1874,-2.1937,-2.2035,-2.2327,-2.2438,-2.2438,-2.2438,-2.2438,-2.2438,-2.2438,-2.2378,-2.2306,-2.2306,-2.2246,-2.2504,-2.3555,-2.3914,-2.4413,-2.5495,-2.591,-2.6115,-2.6179,-2.6351,-2.651,-2.651,-2.6712,-2.6779,-2.6779,-2.6779,-2.6779,-2.6779,-2.6779,-2.6866,-2.707,-2.6982,-2.6924,-2.6924,-2.6837,-2.7011,-2.7429,-2.755,-2.879,-3.1181,-3.0813,-3.1683,-3.365,-3.3743,-3.3856,0.5774,0.5888,0.5909,0.5344,0.4982,0.4508,0.39,0.4163,0.4599,0.4688,0.0,0.0,0.0,0.0,0.507,0.5513,0.0,0.641,0.5741,0.5745,0.5461,0.0,0.0,0.3609,0.2584,0.2067,0.1262,0.0095,-0.0841,-0.1564,-0.2091,-0.3061,-0.3673,-0.403,-0.4924,-0.5902,-0.6871,-0.7672,-0.8636,-0.9946,-1.0809,-1.1685,-1.2487,-1.3289,-1.3467,-1.3153,0.0,-1.3838,-1.4263,-1.5065,-1.5766,-1.6333,-1.676,-1.6908,-1.6908,-1.6908,-1.6908,-1.7038,-1.8104,-1.8767,-1.9309,-2.0355,-2.1071,-2.1537,-2.16,-2.1737,-2.1937,-2.1999,-2.2135,-2.2197,-2.2197,-2.2197,-2.2197,-2.2197,-2.2197,-2.2197,-2.2197,-2.2197,-2.2555,-2.3742,-2.3981,-2.4403,-2.5643,-2.5911,-2.6056,-2.6179,-2.6326,-2.6486,-2.6645,-2.6712,-2.6779,-2.6779,-2.6779,-2.6779,-2.6779,-2.6779,-2.6779,-2.6779,-2.6779,-2.6922,-2.7152,-2.7203,-2.7429,-2.7898,-2.8304,-2.9092,-3.0305,-3.0396,-3.1356,-3.3102,-3.3193,-3.3624,0.7215,0.7638,0.7868,0.8053,0.6993,0.5854,0.5744,0.5801,0.0,0.0,0.0,0.0,0.0,0.5971,0.0,0.6614,0.7578,0.7858,0.6979,0.6952,0.664,0.5386,0.5189,0.4759,0.3603,0.3293,0.2481,0.0834,0.0276,-0.0273,-0.1075,-0.2239,-0.2867,-0.2867,-0.4387,-0.5458,-0.6166,-0.6835,-0.7975,-0.9602,-1.0494,-1.1313,-1.1975,-1.2757,-1.3022,-1.2822,-1.2748,-1.2954,-1.3528,-1.4322,-1.5037,-1.5833,-1.6621,-1.6908,-1.6908,-1.6908,-1.6908,-1.7038,-1.7765,-1.8375,-1.8911,-1.9835,-2.0549,-2.1123,-2.1325,-2.16,-2.1874,-2.1862,-2.2061,-2.2197,-2.2197,-2.2197,-2.2197,-2.2197,-2.2197,-2.2197,-2.2197,-2.2197,-2.2531,-2.38,-2.4021,-2.4368,-2.566,-2.5893,-2.5948,-2.6179,-2.6286,-2.6394,-2.6674,-2.6727,-2.6779,-2.6779,-2.6779,-2.6779,-2.6779,-2.6779,-2.6832,-2.6974,-2.6974,-2.71,-2.7464,-2.7615,-2.7947,-2.8496,-2.8997,-2.9414,-2.9769,-3.0348,-3.1226,-3.2403,-3.2779,-3.3458,0.8769,0.9385,1.0001,1.0134,0.9256,0.8035,0.6858,0.7112,0.0,0.6854,0.0,0.0,0.0,0.8005,0.7919,0.7643,0.7918,0.8215,0.8129,0.0,0.8026,0.6677,0.6454,0.5922,0.4482,0.3469,0.2873,0.2681,0.0999,0.0,-0.009,-0.1881,-0.2867,-0.2867,-0.3851,-0.4746,-0.546,-0.6043,-0.7087,-0.874,-0.9496,-1.0233,-1.1044,-1.147,-1.2087,-1.2808,-1.2452,-1.2753,-1.3528,-1.4322,-1.5037,-1.5833,-1.6621,-1.6908,-1.6908,-1.6908,-1.6908,-1.7038,-1.7765,-1.8037,-1.8307,-1.9628,-2.0161,-2.0355,-2.1135,-2.1549,-2.1761,-2.1874,-2.2061,-2.2197,-2.2197,-2.2197,-2.2197,-2.2197,-2.2197,-2.2197,-2.2197,-2.2197,-2.2531,-2.38,-2.4021,-2.4368,-2.566,-2.5893,-2.5893,-2.5948,-2.6111,-2.6286,-2.634,-2.6621,-2.6779,-2.6779,-2.6779,-2.6779,-2.6779,-2.6779,-2.6959,-2.7414,-2.7464,-2.7464,-2.7515,-2.7997,-2.8496,-2.9028,-2.909,-2.9653,-3.08,-3.1071,-3.1314,-3.1445,-3.3003,-3.3392,0.9545,0.9906,1.0272,1.0284,1.0507,1.0471,0.9549,0.9493,0.9722,0.99,0.9271,0.0,0.0,0.0,0.8758,0.9567,0.9068,0.8645,0.8928,0.8659,0.814,0.743,0.7248,0.6762,0.5413,0.4444,0.3582,0.2995,0.1621,0.0897,0.0897,-0.0358,-0.1336,-0.1846,-0.2811,-0.3925,-0.516,-0.5453,-0.6213,-0.7716,-0.8888,-0.9606,-0.9797,-1.0964,-1.1566,-1.1784,-1.2123,-1.2445,-1.2806,-1.36,-1.4394,-1.518,-1.6403,-1.6908,-1.6908,-1.6908,-1.6908,-1.7038,-1.7765,-1.824,-1.8767,-1.977,-2.0431,-2.0892,-2.1262,-2.1537,-2.1761,-2.1874,-2.2061,-2.2197,-2.2197,-2.2197,-2.2197,-2.2197,-2.2197,-2.2197,-2.2197,-2.2469,-2.298,-2.3846,-2.4337,-2.4865,-2.5729,-2.5893,-2.5948,-2.6002,-2.6179,-2.6326,-2.6418,-2.6659,-2.6779,-2.6779,-2.6779,-2.6779,-2.6779,-2.6779,-2.6884,-2.7063,-2.7327,-2.7815,-2.8496,-2.8685,-2.9028,-2.9576,-2.9621,-2.9839,-3.0336,-3.0424,-3.1013,-3.2077,-3.271,-3.3396,1.0293,1.0678,1.1105,1.1033,1.1636,1.219,1.1811,1.156,1.1427,1.157,1.0917,1.0333,1.0298,0.0,0.0,0.0,1.018,0.9648,0.9918,0.949,0.8961,0.843,0.8239,0.7643,0.6391,0.5473,0.4449,0.3405,0.2419,0.1704,0.1436,0.0538,-0.0266,-0.0869,-0.2082,-0.3261,-0.436,-0.4826,-0.5553,-0.6706,-0.7942,-0.8675,-0.8996,-1.0097,-1.0819,-1.1111,-1.1706,-1.2077,-1.2378,-1.3455,-1.4458,-1.5463,-1.6473,-1.6908,-1.6908,-1.6908,-1.6908,-1.6968,-1.7501,-1.8104,-1.8777,-1.9507,-2.0226,-2.0892,-2.121,-2.1486,-2.1698,-2.1812,-2.1999,-2.2197,-2.2197,-2.2197,-2.2197,-2.2197,-2.2197,-2.2247,-2.242,-2.2811,-2.3327,-2.415,-2.4694,-2.5174,-2.5784,-2.5893,-2.5948,-2.6056,-2.6233,-2.6326,-2.6457,-2.6712,-2.6779,-2.6779,-2.6922,-2.7011,-2.7011,-2.7167,-2.7357,-2.7509,-2.7815,-2.824,-2.8826,-2.9182,-2.9531,-2.9902,-2.9918,-2.9902,-2.9989,-2.9973,-3.0724,-3.2142,-3.2401,-3.3267,1.1178,1.1916,1.2829,1.2822,1.2829,1.2913,1.3507,1.2896,1.2135,1.145,1.1327,1.1327,1.1327,1.1327,0.0,1.1047,1.1154,1.1216,1.1216,1.1146,1.0663,0.9646,0.9354,0.8653,0.7245,0.6251,0.5272,0.4376,0.3401,0.251,0.1436,0.0538,0.0,0.0,-0.1735,-0.2745,-0.2769,-0.4095,-0.5098,-0.5824,-0.6322,-0.7414,-0.8992,-0.8793,-0.9604,-1.1111,-1.1111,-1.1558,-1.2445,-1.3954,-1.5463,-1.6908,-1.6908,-1.6908,-1.6908,-1.6908,-1.6908,-1.6908,-1.6908,-1.7373,-1.8104,-1.8767,-1.9507,-2.0237,-2.0955,-2.1423,-2.1698,-2.1698,-2.1949,-2.2197,-2.2197,-2.2197,-2.2197,-2.2197,-2.2197,-2.2359,-2.298,-2.3088,-2.3505,-2.4765,-2.5005,-2.5174,-2.5784,-2.5893,-2.5948,-2.6056,-2.6233,-2.6326,-2.651,-2.6712,-2.6779,-2.6779,-2.7203,-2.7515,-2.7515,-2.7997,-2.8543,-2.9074,-2.9074,-2.8873,-2.8336,-2.9335,-2.9918,-2.9918,-2.9918,-2.9918,-2.9918,-2.9989,-3.0451,-3.1319,-3.2142,-3.3003,1.2006,1.2527,1.3019,1.2876,1.322,1.3681,1.3654,1.3395,0.0,0.0,1.2412,1.2482,1.2307,1.1757,0.0,1.2693,1.1947,1.1394,1.1838,1.1363,1.076,1.0249,0.9495,0.8777,0.8109,0.6602,0.5542,0.5272,0.438,0.3489,0.2509,0.2151,0.142,0.0087,-0.0428,-0.1341,-0.254,-0.2964,-0.3799,-0.5061,-0.5646,-0.6651,-0.794,-0.8498,-0.9301,-1.0271,-1.0881,-1.1558,-1.2378,-1.3382,-1.4394,-1.5321,-1.5903,-1.6403,-1.6908,-1.6908,-1.6908,-1.6968,-1.7501,-1.8104,-1.8793,-1.9125,-1.9962,-2.0899,-2.0869,-2.1132,-2.1537,-2.1737,-2.1937,-2.1999,-2.2185,-2.2197,-2.2309,-2.275,-2.2811,-2.298,-2.361,-2.4092,-2.4523,-2.4948,-2.5342,-2.5674,-2.5893,-2.5893,-2.5948,-2.6056,-2.6233,-2.6394,-2.6659,-2.6779,-2.6779,-2.6779,-2.6922,-2.7152,-2.7464,-2.7665,-2.7963,-2.8496,-2.8889,-2.9182,-2.9425,-2.971,-2.9918,-2.9918,-2.9918,-2.9918,-2.9918,-3.0494,-3.1202,-3.2073,-3.2899,-3.3716,1.2712,1.3013,1.334,1.3146,1.3514,1.3895,1.3834,1.3821,1.3701,0.0,1.3354,1.3416,1.3253,1.279,0.0,1.3737,1.3004,1.2493,1.2928,1.24,1.1783,1.1252,1.0614,0.9932,0.9405,0.7918,0.6773,0.6416,0.5401,0.4324,0.3449,0.3008,0.2268,0.1099,0.0421,-0.0414,-0.152,-0.2132,-0.3056,-0.4224,-0.4927,-0.5935,-0.7176,-0.7863,-0.8699,-0.9523,-1.0582,-1.1636,-1.2632,-1.3548,-1.4308,-1.4973,-1.5913,-1.6482,-1.6908,-1.6908,-1.6908,-1.6968,-1.7442,-1.8037,-1.866,-1.9049,-1.9931,-2.0771,-2.0864,-2.1156,-2.1451,-2.1651,-2.18,-2.1925,-2.2061,-2.2123,-2.2309,-2.2641,-2.275,-2.298,-2.3787,-2.4337,-2.4751,-2.5272,-2.5674,-2.5893,-2.5893,-2.5893,-2.5948,-2.6056,-2.6233,-2.6394,-2.6659,-2.6712,-2.6712,-2.6779,-2.7167,-2.7494,-2.7799,-2.8192,-2.8591,-2.8935,-2.9227,-2.956,-2.9874,-2.9918,-2.9918,-2.9918,-2.9918,-3.0048,-3.0295,-3.0851,-3.1658,-3.2793,-3.336,-3.4093,1.318,1.34,1.3559,1.3559,1.3585,1.3754,1.4021,1.4088,1.4088,1.4088,0.0,1.4088,1.4088,1.4088,1.4088,1.4088,1.4088,1.4088,1.4088,1.3913,1.3385,1.2504,1.2174,1.166,1.0783,0.9753,0.8694,0.7698,0.6538,0.5357,0.4321,0.3371,0.2799,0.2598,0.1157,0.0245,0.0,-0.1559,-0.2724,-0.3339,-0.4285,-0.5303,-0.6465,-0.7092,-0.7863,-0.8775,-1.0432,-1.1754,-1.2854,-1.3961,-1.4684,-1.5232,-1.6251,-1.676,-1.683,-1.6793,-1.6853,-1.6844,-1.6876,-1.7396,-1.8111,-1.867,-1.9413,-2.0158,-2.0773,-2.11,-2.126,-2.1249,-2.1557,-2.1791,-2.1865,-2.2025,-2.2197,-2.2247,-2.2309,-2.2714,-2.3904,-2.4195,-2.4496,-2.566,-2.5893,-2.5893,-2.5893,-2.5893,-2.5948,-2.6111,-2.6218,-2.6379,-2.6563,-2.6602,-2.6669,-2.6922,-2.773,-2.8304,-2.8384,-2.9273,-2.9874,-2.9918,-2.9918,-2.9918,-2.9918,-2.9918,-2.9918,-2.9918,-2.9918,-3.0214,-3.0881,-3.1083,-3.1952,-3.3399,-3.3623,-3.4143,1.2973,1.324,1.3559,1.3559,1.3814,1.4008,1.4075,1.4088,1.4088,1.4088,1.4088,1.4088,1.4088,1.4088,1.4088,1.4088,1.4088,1.4088,1.4088,1.4082,1.3828,1.347,1.2687,1.2077,1.1746,1.0788,0.9765,0.8751,0.845,0.7355,0.5401,0.506,0.4248,0.2678,0.2163,0.1335,0.0,-0.0971,-0.1847,0.0,-0.3995,-0.4793,-0.5098,-0.6273,-0.748,-0.8775,-1.0432,-1.1108,-1.1306,-1.2317,-1.305,-1.3631,-1.4678,-1.5463,-1.6088,-1.6347,-1.645,-1.6462,-1.672,-1.7229,-1.7791,-1.8112,-1.8928,-1.9738,-1.9446,-1.9736,-2.0118,-2.0334,-2.0734,-2.1185,-2.144,-2.1824,-2.2309,-2.2811,-2.3267,-2.3975,-2.5189,-2.5481,-2.5591,-2.5839,-2.5893,-2.5893,-2.5893,-2.5893,-2.6002,-2.6233,-2.6365,-2.6669,-2.721,-2.7261,-2.7464,-2.7913,-2.8158,-2.8496,-2.8889,-2.9136,-2.947,-2.9858,-2.9918,-2.9918,-2.9918,-2.9918,-2.9918,-2.9918,-2.9918,-3.0214,-3.0881,-3.1632,-3.2441,-3.3416,-3.4133,-3.4591,1.3434,1.3621,1.3854,1.3854,1.3975,1.4088,1.4088,1.4412,1.4741,1.4741,1.4741,1.4741,1.4741,1.4741,1.4741,1.4741,1.4328,1.4088,1.4088,1.4088,1.4082,1.3913,1.3348,1.2841,1.2769,1.1712,1.0829,1.0213,0.9611,0.853,0.6986,0.6488,0.5528,0.398,0.3387,0.2556,0.1211,0.0295,-0.0731,-0.1853,-0.3078,-0.4027,-0.4691,-0.5983,-0.7403,-0.878,-0.9604,-1.0149,-1.0556,-1.182,-1.2742,-1.3461,-1.4506,-1.5358,-1.6014,-1.6033,-1.6019,-1.6057,-1.6213,-1.651,-1.6901,-1.7591,-1.8229,-1.8824,-1.9169,-1.947,-1.9748,-1.996,-2.0252,-2.057,-2.0819,-2.1344,-2.2031,-2.2934,-2.3359,-2.3904,-2.5203,-2.5453,-2.5564,-2.5839,-2.5893,-2.5893,-2.5893,-2.5893,-2.5948,-2.6111,-2.6218,-2.6457,-2.6878,-2.721,-2.755,-2.7898,-2.84,-2.8795,-2.9074,-2.9335,-2.9621,-2.9858,-2.9918,-2.9918,-2.9918,-2.9918,-2.9918,-2.9918,-2.9918,-3.0376,-3.1445,-3.2004,-3.2861,-3.394,-3.4778,-3.5195,1.3955,1.4048,1.4088,1.4088,1.4166,1.4334,1.4334,1.4992,1.5643,1.5643,1.5643,1.5643,1.5643,1.5643,1.556,1.5394,1.4824,1.423,1.4015,1.4216,1.421,1.3948,1.3843,1.3784,1.3574,1.2519,1.1712,1.1505,1.051,0.9443,0.8562,0.7671,0.6634,0.5545,0.4627,0.3658,0.2669,0.1601,0.0438,-0.0894,-0.2023,-0.3279,-0.4698,-0.5761,-0.6992,-0.8394,-0.8661,-0.9306,-1.0072,-1.1566,-1.2578,-1.3372,-1.4488,-1.5323,-1.5824,-1.5679,-1.5588,-1.5579,-1.5505,-1.5605,-1.5974,-1.7083,-1.7572,-1.8006,-1.912,-1.9424,-1.9483,-1.9645,-1.9912,-2.0143,-2.0189,-2.0885,-2.1765,-2.2803,-2.3173,-2.3625,-2.4851,-2.5174,-2.5286,-2.5784,-2.5893,-2.5893,-2.5893,-2.5893,-2.5893,-2.5948,-2.6056,-2.6272,-2.6578,-2.7108,-2.76,-2.7898,-2.8685,-2.9227,-2.9227,-2.9621,-2.9918,-2.9918,-2.9918,-2.9918,-2.9918,-2.9918,-2.9918,-2.9918,-2.9946,-3.0595,-3.1817,-3.2226,-3.3132,-3.4445,-3.5203,-3.5616,1.3761,1.3895,1.4088,1.4088,1.4664,1.5235,1.5235,1.5884,1.6535,0.0,1.6535,1.6535,1.6535,1.6535,1.6288,1.556,1.5318,1.4892,1.3817,1.4573,1.4785,1.3467,1.4139,1.4328,1.3366,1.3068,1.2536,1.157,1.1361,1.0704,0.9499,0.8646,0.7639,0.6345,0.5551,0.458,0.3411,0.2013,0.1123,0.0777,-0.1301,-0.3147,-0.4696,-0.4825,-0.5594,-0.6938,-0.8644,-0.9299,-0.9265,-1.0874,-1.1479,-1.1532,-1.3181,-1.3856,-1.4073,-1.488,-1.5184,-1.5129,-1.479,-1.535,-1.6257,-1.643,-1.7183,-1.8057,-1.8235,-1.829,-1.84,-1.8663,-1.9461,-2.0129,-1.9932,-2.0976,-2.2166,-2.2372,-2.3146,-2.4216,-2.5494,-2.5784,-2.5784,-2.5893,-2.5893,-2.5893,-2.5893,-2.5893,-2.6002,-2.6233,-2.6286,-2.6683,-2.7898,-2.8094,-2.8543,-2.947,-2.971,-2.9814,-2.9814,-2.9858,-2.9918,-2.9918,-2.9918,-2.9918,-2.9918,-2.9918,-2.9918,-2.9918,-3.0113,-3.0522,-3.1073,-3.2011,-3.3065,-3.4191,-3.4918,-3.5582,1.3681,1.3861,1.4257,1.4741,1.5151,1.556,1.6049,1.678,1.7423,1.7423,1.7836,1.7997,1.7513,1.7423,1.7261,1.6944,1.6296,1.564,1.5094,1.5275,1.5212,1.4543,1.4772,1.462,1.3719,1.3473,1.2934,1.2048,1.196,1.1533,1.0507,0.9669,0.8842,0.8019,0.6626,0.5617,0.4987,0.368,0.2352,0.1,-0.0366,-0.189,-0.3448,-0.3793,-0.4873,-0.6637,-0.7466,-0.8295,-0.906,-0.9972,-1.0835,-1.171,-1.2445,-1.2964,-1.3372,-1.3967,-1.4197,-1.4232,-1.4441,-1.4852,-1.5362,-1.569,-1.6368,-1.7157,-1.7501,-1.7843,-1.8139,-1.841,-1.8887,-1.927,-1.9239,-2.0266,-2.1412,-2.1785,-2.2964,-2.4259,-2.521,-2.5655,-2.5893,-2.5893,-2.5893,-2.5893,-2.5893,-2.5893,-2.5948,-2.6056,-2.6472,-2.6967,-2.7565,-2.8288,-2.8935,-2.9425,-2.971,-2.9918,-2.9918,-2.9918,-2.9918,-2.9918,-2.9918,-2.9918,-2.9918,-2.9918,-2.9918,-2.9918,-3.0017,-3.057,-3.1526,-3.2233,-3.335,-3.4751,-3.5606,-3.619,1.3534,1.3851,1.4358,1.509,1.5591,1.6106,1.6838,0.0,1.8327,0.0,1.8816,1.9134,1.8487,1.8327,1.8238,1.8078,1.7208,1.6421,1.6087,1.5974,1.5835,1.5336,1.5378,1.502,1.3895,1.3601,1.3171,1.2372,1.2305,1.2003,1.1409,1.0651,0.9983,0.9542,0.7937,0.6826,0.6316,0.4999,0.336,0.132,0.0597,-0.0534,-0.188,-0.2721,-0.4194,-0.6086,-0.6513,-0.7372,-0.8564,-0.9243,-1.0281,-1.1503,-1.1775,-1.2289,-1.3011,-1.3361,-1.3631,-1.3821,-1.4327,-1.4625,-1.4852,-1.541,-1.6026,-1.6641,-1.7268,-1.7733,-1.8139,-1.8356,-1.8614,-1.8815,-1.8999,-1.9902,-2.0939,-2.1353,-2.264,-2.4024,-2.5001,-2.557,-2.5893,-2.5893,-2.5893,-2.5893,-2.5893,-2.5988,-2.6042,-2.6111,-2.6721,-2.724,-2.7464,-2.84,-2.9074,-2.9273,-2.9665,-2.9918,-2.9918,-2.9918,-2.9918,-2.9918,-2.9918,-2.9918,-2.9918,-2.9918,-2.9946,-3.0017,-3.0212,-3.0831,-3.186,-3.2625,-3.3738,-3.5233,-3.6187,-3.6799,1.3233,1.3766,1.4374,1.4853,1.6126,1.7412,1.784,0.0,1.9222,1.9222,1.9301,1.9301,1.9222,1.9222,1.8975,1.8158,1.79,1.7405,1.5947,1.666,1.6631,1.4848,1.5663,1.5584,1.3732,1.3542,1.3171,1.2372,1.2305,1.2305,1.2224,1.1484,1.0797,1.0345,0.9486,0.8358,0.6876,0.5354,0.381,0.2251,0.158,0.0839,-0.0156,-0.1758,-0.3217,-0.4598,-0.6231,-0.7033,-0.7349,-0.8885,-0.9586,-0.9728,-1.0996,-1.1934,-1.2597,-1.326,-1.3881,-1.4446,-1.4506,-1.4843,-1.5468,-1.6083,-1.6641,-1.7268,-1.7854,-1.8084,-1.8193,-1.8506,-1.8963,-1.9423,-1.9695,-2.0536,-2.1367,-2.1415,-2.2283,-2.3624,-2.5458,-2.5879,-2.5893,-2.5893,-2.5893,-2.5893,-2.5893,-2.6204,-2.651,-2.663,-2.7063,-2.7675,-2.8496,-2.8685,-2.9028,-2.977,-2.9858,-2.9918,-2.9918,-2.9918,-2.9918,-2.9918,-2.9918,-2.9918,-2.9918,-2.9918,-3.0017,-3.0251,-3.1044,-3.1457,-3.1523,-3.3025,-3.4289,-3.5307,-3.6237,-3.7017,1.2966,1.3571,1.4513,1.5194,1.6407,1.7562,1.8257,1.8873,1.9301,1.9301,1.9301,1.9301,1.9301,1.9301,1.9222,1.8895,1.861,1.8184,1.7357,1.7406,1.7151,1.6193,1.6457,1.6263,1.5054,1.4974,1.4609,1.381,1.3317,1.3317,1.3738,1.2572,1.1867,1.1833,1.0485,0.9149,0.7841,0.6898,0.5898,0.4864,0.3533,0.2212,0.0781,-0.031,-0.1708,-0.3209,-0.4103,-0.5709,-0.7703,-0.8191,-0.8766,-0.9518,-1.0021,-1.0776,-1.1653,-1.2798,-1.3372,-1.3684,-1.4567,-1.4837,-1.4902,-1.5526,-1.614,-1.6754,-1.7324,-1.7788,-1.8139,-1.8247,-1.856,-1.8963,-1.9436,-2.0194,-2.1149,-2.2242,-2.2783,-2.3393,-2.4488,-2.4713,-2.484,-2.5233,-2.5303,-2.543,-2.5823,-2.6258,-2.651,-2.6563,-2.7444,-2.8238,-2.8511,-2.909,-2.9576,-2.9874,-2.9918,-2.9918,-2.9918,-2.9918,-2.9973,-3.0156,-3.0156,-3.0241,-3.0452,-3.0493,-3.0518,-3.0625,-3.1113,-3.1716,-3.2484,-3.3736,-3.4947,-3.6041,-3.6636,-3.7147,1.2679,1.3334,1.4219,1.5073,1.5984,1.6902,1.8018,1.8518,1.8786,1.9021,1.921,1.9301,1.9301,1.9301,1.9301,1.9301,1.9081,1.877,1.8375,1.8082,1.7761,1.7358,1.7312,1.6964,1.6102,1.6022,1.5606,1.4681,1.4178,0.0,1.4601,1.3658,1.2935,1.2586,1.133,1.011,0.8834,0.8574,0.7868,0.6807,0.5445,0.4049,0.2621,0.1236,-0.0154,-0.1524,-0.2269,-0.4318,-0.7161,-0.7394,-0.8255,-0.9383,-0.9563,-1.0346,-1.1588,-1.239,-1.298,-1.3427,-1.439,-1.4583,-1.4625,-1.5186,-1.5806,-1.6415,-1.7034,-1.7611,-1.8084,-1.8205,-1.8464,-1.8869,-1.9567,-2.0434,-2.1394,-2.2532,-2.2788,-2.2949,-2.3518,-2.3858,-2.423,-2.4638,-2.4775,-2.5062,-2.5686,-2.6246,-2.6667,-2.6901,-2.7795,-2.8494,-2.8574,-2.9198,-2.9681,-2.977,-2.9874,-2.9918,-2.9918,-2.9918,-3.0017,-3.0293,-3.0293,-3.046,-3.0804,-3.0804,-3.0845,-3.0965,-3.1416,-3.2106,-3.2966,-3.387,-3.4927,-3.6214,-3.6605,-3.7069,0.0,0.0,0.0,1.433,1.4858,1.5549,1.702,0.0,1.7761,1.8475,1.8948,1.9301,1.9301,1.9292,1.9283,1.9301,1.9301,1.9164,1.877,1.8715,1.8568,1.8174,1.8128,1.7658,1.6581,1.6465,1.5939,1.4784,1.4681,1.4673,1.4673,1.4665,1.3995,1.2721,1.2138,1.1177,0.9783,1.0108,0.9486,0.7997,0.7191,0.628,0.5333,0.2931,0.1407,0.0575,-0.0845,-0.2872,-0.5349,-0.6441,-0.7794,-0.9157,-0.9609,-1.0808,-1.2318,-1.208,-1.2796,-1.387,-1.387,-1.4145,-1.4625,-1.5186,-1.5806,-1.6415,-1.7034,-1.7611,-1.8139,-1.8367,-1.8679,-1.9239,-2.0169,-2.1321,-2.2184,-2.2184,-2.2231,-2.231,-2.2618,-2.3416,-2.4061,-2.4075,-2.4362,-2.4797,-2.5481,-2.6199,-2.6928,-2.7655,-2.8137,-2.8477,-2.87,-2.8936,-2.9213,-2.947,-2.9754,-2.9902,-2.9902,-2.9902,-3.006,-3.0293,-3.0335,-3.046,-3.0845,-3.0845,-3.0965,-3.1295,-3.2032,-3.2525,-3.2869,-3.3314,-3.4302,-3.5814,-3.6238,-3.6845,1.2766,0.0,0.0,0.0,0.0,0.0,0.0,0.0,1.6901,1.7761,1.8145,1.8567,1.9213,1.9063,1.8971,1.9256,1.9301,1.9164,1.877,1.8715,1.8568,1.8174,1.8128,1.7999,1.7658,1.7379,1.7081,0.0,1.5908,1.5683,1.6254,1.5566,1.4781,1.4123,1.3219,1.2516,1.2064,1.1096,1.0461,1.0032,0.7668,0.631,0.584,0.4024,0.2552,0.1229,0.0863,-0.065,-0.2848,-0.4413,-0.5958,-0.7469,-0.8477,-0.9592,-1.0749,-1.1724,-1.2595,-1.3355,-1.387,-1.4268,-1.4625,-1.5186,-1.5806,-1.6415,-1.7034,-1.7611,-1.8193,-1.8583,-1.8987,-1.9579,-2.0795,-2.1636,-2.2184,-2.2184,-2.2402,-2.2572,-2.2694,-2.3134,-2.3632,-2.4098,-2.4265,-2.4517,-2.5112,-2.6035,-2.6763,-2.6958,-2.7946,-2.87,-2.8982,-2.9198,-2.9486,-2.977,-3.0044,-3.0199,-3.0199,-3.041,-3.0683,-3.1004,-3.1004,-3.1162,-3.1504,-3.1504,-3.1579,-3.1671,-3.186,-3.2018,-3.211,-3.3329,-3.4523,-3.5619,-3.6582,-3.6932,0.0,0.0,0.0,0.0,0.0,0.0,1.4582,1.5003,1.5638,0.0,1.7352,1.7933,1.8408,1.8629,1.8788,1.9017,1.9054,1.9036,1.8971,1.8962,1.8871,1.8641,1.8614,1.855,1.8385,1.7999,1.7688,1.7513,1.6696,1.6482,1.6908,1.6174,1.537,1.4724,1.4354,1.3774,1.3036,1.2573,1.1938,1.1028,0.9275,0.7985,0.7159,0.5684,0.445,0.3491,0.2592,0.1262,-0.0349,-0.1889,-0.4038,-0.6515,-0.7465,-0.8775,-1.0282,-1.1082,-1.1947,-1.2868,-1.3575,-1.3987,-1.4344,-1.484,-1.5575,-1.6368,-1.6698,-1.7446,-1.8193,-1.8691,-1.9396,-2.0245,-2.1299,-2.1888,-2.2184,-2.2184,-2.2434,-2.2754,-2.2889,-2.326,-2.3555,-2.3807,-2.3925,-2.4208,-2.4862,-2.5619,-2.6213,-2.6487,-2.7456,-2.8186,-2.8389,-2.8948,-2.9396,-2.9547,-3.0027,-3.0293,-3.0293,-3.0584,-3.0965,-3.1295,-3.1295,-3.1466,-3.18,-3.18,-3.18,-3.18,-3.18,-3.1645,-3.1334,-3.2674,-3.3713,-3.4462,-3.5792,-3.6239,0.0,0.0,0.0,0.0,1.247,0.0,1.3536,1.3877,1.4312,0.0,1.6431,1.7303,1.7311,1.7905,1.8357,1.8488,1.8488,1.872,1.9237,1.9301,1.9301,1.9301,1.9301,1.9146,1.8751,1.8357,1.7954,1.7523,1.7128,1.6908,1.6978,1.6637,1.6051,1.5103,1.5578,1.5023,1.3355,1.4148,1.3483,1.1472,1.1269,1.0478,0.8947,0.7644,0.6798,0.6375,0.4403,0.3009,0.2071,0.0734,-0.205,-0.5677,-0.6398,-0.8025,-0.9937,-1.0218,-1.1106,-1.2327,-1.3045,-1.3558,-1.3947,-1.4375,-1.5303,-1.6312,-1.6312,-1.7168,-1.8302,-1.8839,-1.9862,-2.0957,-2.165,-2.1983,-2.2217,-2.2263,-2.2526,-2.2934,-2.326,-2.3625,-2.3754,-2.3494,-2.3668,-2.4064,-2.4653,-2.504,-2.5518,-2.6074,-2.6888,-2.7442,-2.7489,-2.8435,-2.9121,-2.9198,-2.9924,-3.0377,-3.0418,-3.0707,-3.1044,-3.1334,-3.1334,-3.1504,-3.18,-3.18,-3.18,-3.18,-3.1714,-3.1351,-3.0714,-3.1673,-3.2331,-3.2763,-3.4331,-3.5062,0.0,0.0,0.0,0.0,0.0,0.0,1.2702,1.2995,1.3528,0.0,1.4766,1.5529,1.6852,1.6455,1.6196,1.718,1.7316,1.7782,1.9122,1.9301,1.9301,1.9301,1.9301,1.9146,1.8751,1.8357,1.7954,1.7523,1.7128,1.7107,1.7501,1.7493,1.7389,1.7282,1.7056,1.6412,1.5312,1.4626,1.3891,1.3021,1.1929,1.1016,1.0155,0.9309,0.8296,0.7149,0.6175,0.5055,0.373,0.2135,-0.0201,-0.3046,-0.4891,-0.6168,-0.7149,-0.9006,-1.018,-1.1008,-1.2273,-1.305,-1.3666,-1.4285,-1.5303,-1.6312,-1.6312,-1.739,-1.8839,-1.9811,-2.0523,-2.1082,-2.165,-2.2016,-2.2328,-2.2572,-2.3113,-2.361,-2.3696,-2.3967,-2.4177,-2.4135,-2.4177,-2.4265,-2.4403,-2.4921,-2.5364,-2.5503,-2.658,-2.7535,-2.7915,-2.8604,-2.9335,-3.0011,-3.046,-3.0788,-3.1083,-3.1411,-3.1634,-3.1709,-3.1709,-3.1709,-3.18,-3.18,-3.18,-3.18,-3.1214,-3.0888,-3.0872,-3.1063,-3.1304,-3.159,-3.3296,-3.4177,0.0,0.0,0.0,1.0925,0.0,0.0,0.0,1.2335,1.2905,1.3355,1.3932,1.4576,1.532,1.5335,1.5428,1.598,1.6246,1.6639,1.7467,1.8395,1.8935,1.8742,1.8715,1.8641,1.844,1.8045,1.7705,1.7642,1.7417,1.7501,1.8037,1.8104,1.8041,1.7875,1.7644,1.7139,1.6246,1.571,1.4893,1.3855,1.3158,1.2358,1.1447,1.0808,0.9907,0.889,0.7847,0.6616,0.5252,0.3597,0.1802,-0.0267,-0.2926,-0.4716,-0.5913,-0.7668,-0.9105,-1.0419,-1.1369,-1.2382,-1.3318,-1.3822,-1.504,-1.6312,-1.6312,-1.7589,-1.9263,-2.0055,-2.0709,-2.1326,-2.1841,-2.2249,-2.2512,-2.2649,-2.3246,-2.3797,-2.3797,-2.4051,-2.4343,-2.4574,-2.4599,-2.4533,-2.4343,-2.4746,-2.5113,-2.5113,-2.6486,-2.7644,-2.7913,-2.8957,-2.9881,-3.0351,-3.0804,-3.1123,-3.1295,-3.1596,-3.18,-3.18,-3.18,-3.18,-3.18,-3.18,-3.18,-3.18,-3.0679,-3.0317,-3.0785,-2.9904,-2.9695,-3.0198,-3.193,-3.2805,0.0,0.0,0.0,0.0,0.0,1.1306,0.0,0.0,0.0,1.2391,1.303,1.3558,1.3768,1.4298,1.4677,0.0,0.0,0.0,0.0,1.6911,0.0,1.8022,1.8099,1.8128,1.8128,1.7742,1.7591,1.7666,1.7774,1.8104,1.8633,1.8633,1.8548,1.8332,1.823,1.784,1.6982,1.6809,1.6049,1.468,1.4488,1.3837,1.281,1.2174,1.1494,1.0822,0.9566,0.8222,0.6885,0.5311,0.3867,0.2341,-0.1136,-0.3396,-0.4916,-0.6467,-0.8086,-0.97,-1.0542,-1.1646,-1.283,-1.3361,-1.4787,-1.6358,-1.6631,-1.7972,-1.9512,-2.0156,-2.0809,-2.1471,-2.2044,-2.2434,-2.2754,-2.2875,-2.3421,-2.3925,-2.3925,-2.4094,-2.4385,-2.4719,-2.4823,-2.4823,-2.4558,-2.4799,-2.5068,-2.5195,-2.6663,-2.7778,-2.8037,-2.9362,-3.0393,-3.0601,-3.1044,-3.1334,-3.1372,-3.1634,-3.18,-3.18,-3.18,-3.1731,-3.1593,-3.1438,-3.1438,-3.1576,-3.0075,-2.9627,-3.0335,-2.8916,-2.8592,-2.9289,-3.0695,-3.1433,0.0,0.0,0.0,0.0,1.0172,0.0,0.0,0.0,1.0693,1.1196,0.0,1.1893,1.3294,0.0,0.0,0.0,0.0,0.0,1.3829,1.4817,1.6088,1.7467,1.7952,1.8128,1.8128,1.784,1.7686,1.7706,1.8172,1.8633,1.9166,1.9233,1.942,1.9868,1.9446,1.8976,1.848,1.7612,1.6946,1.6337,1.5468,1.4688,1.3965,1.3494,1.2879,1.2258,1.148,1.0322,0.8977,0.7569,0.6151,0.4323,0.0,-0.2138,-0.307,-0.5741,-0.7269,-0.8242,-0.9919,-1.1017,-1.1839,-1.3094,-1.4787,-1.6518,-1.7829,-1.878,-1.9577,-2.0398,-2.0848,-2.118,-2.1841,-2.2434,-2.3024,-2.3566,-2.3967,-2.4219,-2.4219,-2.4261,-2.4302,-2.4343,-2.4639,-2.502,-2.5313,-2.5389,-2.5637,-2.6322,-2.713,-2.7997,-2.8846,-2.9757,-3.0518,-3.1055,-3.1235,-3.1428,-3.1709,-3.18,-3.18,-3.18,-3.18,-3.1507,-3.0834,-3.0144,-3.0093,-3.08,-2.9317,-2.8672,-2.9043,-2.9048,-2.9343,-2.9906,-2.9937,-3.0571,0.0,0.0,0.0,0.0,0.0,0.0,0.9978,0.0,1.0418,0.0,0.0,0.0,0.0,0.0,0.0,0.0,1.2388,0.0,0.0,0.0,1.4942,0.0,0.0,0.0,1.7341,1.7311,1.751,1.8104,1.8375,1.8844,1.9726,1.9726,1.9868,2.0074,1.9878,1.9575,1.9093,1.8427,1.7715,1.7026,1.6318,1.569,1.5157,1.4697,1.4094,1.3485,1.2923,1.1912,1.051,0.9035,0.756,0.5944,0.2711,0.0332,-0.16,-0.4064,-0.5855,-0.7363,-0.8796,-1.0319,-1.1811,-1.3906,-1.5391,-1.6528,-1.7786,-1.8738,-1.9577,-2.0334,-2.0736,-2.1082,-2.1568,-2.2249,-2.2979,-2.3201,-2.3964,-2.4639,-2.4639,-2.4823,-2.5059,-2.5313,-2.5465,-2.5726,-2.6139,-2.598,-2.5934,-2.6245,-2.7123,-2.8094,-2.8963,-2.9849,-3.0475,-3.0759,-3.1264,-3.1384,-3.0802,-3.1133,-3.1288,-3.0984,-3.0851,-3.0677,-3.0525,-3.0064,-2.9965,-3.0296,-2.9199,-2.89,-2.9385,-2.8776,-2.9129,-3.0356,-3.0982,-3.1583,0.9165,0.0,0.0,0.0,0.0,0.0,0.0,0.0,0.0,0.0,0.0,0.0,0.0,0.0,1.028,0.0,0.0,1.1254,0.0,1.2315,0.0,0.0,0.0,0.0,0.0,1.6899,1.7442,1.824,1.8576,1.9044,1.9868,2.0009,2.0085,2.0085,2.0085,1.9911,1.9626,1.9116,1.8501,1.769,1.7073,1.6549,1.6104,1.5584,1.505,1.4451,1.4103,1.3235,1.192,1.0434,0.9093,0.7688,0.5284,0.2849,0.0332,-0.2197,-0.4394,-0.6379,-0.7762,-0.9793,-1.2104,-1.4007,-1.5381,-1.6472,-1.7512,-1.8578,-1.9577,-2.0422,-2.0934,-2.1326,-2.1732,-2.248,-2.3113,-2.3216,-2.4006,-2.4759,-2.4863,-2.5137,-2.5465,-2.5872,-2.6016,-2.621,-2.6505,-2.6385,-2.6312,-2.6528,-2.7278,-2.8095,-2.8948,-2.9651,-3.0084,-3.012,-3.0762,-3.082,-2.9929,-3.0429,-3.0677,-3.0404,-3.0008,-3.0008,-3.0398,-2.9796,-2.9568,-2.9779,-2.9034,-2.8911,-2.9497,-2.8877,-2.9251,-3.0595,-3.1382,-3.1991,0.0,0.0,0.0,0.846,0.0,0.0,0.0,0.0,0.8991,0.0,0.0,0.0,1.0679,1.0756,1.0688,0.0,0.0,0.0,0.0,0.0,0.0,0.0,0.0,0.0,0.0,1.6941,1.7706,0.0,1.87,1.9299,1.9299,1.9802,2.0085,2.0085,2.0085,2.0074,2.0053,1.9711,1.9205,1.8654,1.7763,1.7079,1.657,1.6104,1.5642,1.5177,1.5177,1.4519,1.3321,1.1981,1.0913,0.9844,0.7084,0.5045,0.3111,-0.0398,-0.3053,-0.5114,-0.7084,-0.9775,-1.2504,-1.2573,-1.4287,-1.6461,-1.7313,-1.8447,-1.9668,-2.1019,-2.1554,-2.1983,-2.2799,-2.329,-2.3696,-2.4082,-2.4234,-2.4426,-2.4839,-2.4902,-2.5059,-2.5427,-2.5835,-2.6087,-2.6139,-2.6436,-2.6928,-2.7637,-2.7772,-2.8095,-2.8909,-2.9138,-2.9245,-2.9245,-2.9454,-2.9558,-2.9506,-2.9859,-3.0131,-3.0368,-2.9703,-2.9632,-3.0362,-2.8966,-2.852,-2.9323,-2.8594,-2.8388,-2.8742,-2.9618,-3.0197,-3.0498,-3.0222,-3.0914,0.0,0.0,0.836,0.8013,0.0,0.0,0.0,0.0,0.0,0.0,0.0,0.0,0.0,0.0,0.0,0.0,0.0,0.0,0.0,0.0,0.0,0.0,0.0,0.0,0.0,0.0,0.0,0.0,1.7955,0.0,1.8858,1.963,2.0085,2.0085,2.0085,2.0085,2.0085,1.9722,1.9216,1.8676,1.8126,1.7611,1.7043,1.657,1.6104,1.5642,1.5342,1.4834,1.407,1.2687,1.1742,1.085,0.8581,0.6633,0.4644,0.0597,-0.193,-0.3865,-0.7191,-0.9895,-1.2012,-1.3,-1.4821,-1.6826,-1.7474,-1.8638,-1.9952,-2.0736,-2.1277,-2.1746,-2.203,-2.2965,-2.3918,-2.4017,-2.4776,-2.554,-2.5652,-2.5908,-2.6123,-2.628,-2.6385,-2.6505,-2.6505,-2.6624,-2.6776,-2.7029,-2.708,-2.7419,-2.8391,-2.8663,-2.8763,-2.8797,-2.9542,-2.9642,-2.8646,-2.9034,-2.9391,-2.9468,-2.9068,-2.9024,-2.945,-2.8797,-2.8557,-2.8845,-2.8601,-2.85,-2.8569,-2.8891,-2.9491,-3.0356,-3.0262,-3.1133,0.854,0.8185,0.0,0.7482,0.8009,0.0,0.8143,0.0,0.8259,0.0,0.0,0.0,0.0,0.0,0.0,0.0,0.0,0.0,0.0,0.9614,0.0,0.0,0.0,0.0,0.0,0.0,1.602,1.7188,1.7965,1.8544,0.0,1.976,2.027,2.027,2.0388,2.0453,2.0453,2.0479,2.0088,1.9313,1.8927,1.8331,1.759,1.7088,1.657,1.6104,1.5642,1.5303,1.4902,1.3433,1.2679,1.2219,1.0059,0.8195,0.6217,0.2187,-0.0865,-0.3531,-0.6872,-0.9382,-1.1352,-1.2354,-1.4421,-1.6502,-1.7008,-1.8256,-1.9686,-2.0651,-2.1329,-2.1874,-2.2203,-2.3113,-2.396,-2.4168,-2.4934,-2.5726,-2.6016,-2.6315,-2.6539,-2.6657,-2.6691,-2.6691,-2.6691,-2.6691,-2.6691,-2.6691,-2.6691,-2.6961,-2.7638,-2.7952,-2.8129,-2.8161,-2.8981,-2.9169,-2.8345,-2.8626,-2.8905,-2.8994,-2.8858,-2.8834,-2.8994,-2.8815,-2.8998,-2.9587,-2.9065,-2.9065,-2.9598,-2.9065,-2.9232,-2.9995,-3.0272,-3.1191]}]]